     2.11           OBSERVATION DATA    G (GPS)             RINEX VERSION / TYPE
teqc 2010Oct21 OPUS Account 20111028 16:35:13UTC            PGM / RUN BY / DATE
F 1527                                                      MARKER NAME
3063                                                        MARKER NUMBER
CSMIDDLETON NGS                                             OBSERVER / AGENCY
4624K01647 TRIMBLE NETR5 4.41                               REC # / TYPE / VERS
12694052 TRM41249.00 NONE                                   ANT # / TYPE
  -732501.7929 -5587026.1912  2978138.3901                  APPROX POSITION XYZ
        2.0040        0.0000        0.0000                  ANTENNA: DELTA H/E/N
     1     1                                                WAVELENGTH FACT L1/2
     5    L1    L2    C1    P1    P2                        # / TYPES OF OBSERV
    15                                                      LEAP SECONDS
  2011     8    24     0     0    0.0000000     GPS         TIME OF FIRST OBS
                                                            END OF HEADER
 11  8 24  0  0  0.0000000  0  9G10G12G04G09G25G05G17G30G02
 109725898.59518  85500855.45756  20880118.273                    20880127.063
 113401645.77917  88364994.05717  21579614.094                    21579622.379
 113491457.23018  88435032.12255  21596688.008                    21596696.328
 123667820.98817  96364604.14154  23533208.781                    23533221.125
 127928002.17917  99684146.85717  24343880.453                    24343892.570
 116098183.15917  90466197.53117  22092728.313                    22092738.340
 121366357.40917  94571242.73517  23095245.555                    23095255.809
 127520780.04616  99366894.82853  24266401.961                    24266411.633
 108486709.89718  84535243.34856  20644306.656                    20644312.949
 11  8 24  0  0 30.0000000  0  9G10G12G04G09G25G05G17G30G02
 109722263.870 7  85498023.23046  20879426.805                    20879435.320
 113337119.422 7  88314713.829 7  21567335.086                    21567343.219
 113566892.473 7  88493812.82145  21611042.781                    21611051.168
 123743546.282 7  96423610.74543  23547619.219                    23547631.113
 127826909.851 7  99605373.711 7  24324642.047                    24324655.359
 116006419.104 7  90394693.200 7  22075265.758                    22075275.977
 121416709.188 7  94610477.826 7  23104827.586                    23104838.016
 127417529.254 6  99286439.74642  24246752.945                    24246764.055
 108484311.008 7  84533374.09946  20643850.258                    20643856.266
 11  8 24  0  1  0.0000000  0  9G10G12G04G09G25G05G17G30G02
 109719257.121 8  85495680.33846  20878854.516                    20878862.977
 113272998.185 7  88264749.264 7  21555133.188                    21555141.070
 113642475.636 8  88552708.78445  21625425.828                    21625434.156
 123819466.416 7  96482769.18744  23562066.211                    23562078.656
 127725965.911 6  99526716.166 7  24305433.227                    24305446.098
 115914940.435 7  90323411.232 7  22057858.125                    22057868.379
 121467213.116 7  94649831.452 7  23114437.563                    23114448.113
 127314483.285 6  99206144.10842  24227144.289                    24227154.742
 108482205.531 8  84531733.49646  20643449.734                    20643456.000
 11  8 24  0  1 30.0000000  0  9G10G12G04G09G25G05G17G30G02
 109716878.898 8  85493827.20046  20878401.750                    20878411.098
 113209284.038 7  88215101.918 7  21543008.555                    21543016.461
 113718204.418 8  88611718.18745  21639836.703                    21639845.180
 123895578.174 7  96542076.96943  23576550.266                    23576561.996
 127625172.741 6  99448176.146 6  24286253.078                    24286265.719
 115823749.388 7  90252353.391 7  22040504.844                    22040515.027
 121517869.812 7  94689304.131 7  23124077.656                    23124088.059
 127211644.956 6  99126010.36942  24207574.148                    24207585.250
 108480392.338 8  84530320.64646  20643105.039                    20643110.883
 11  8 24  0  2  0.0000000  0  9G10G12G04G09G25G05G17G30G02
 109715129.548 7  85492464.09346  20878069.141                    20878077.973
 113145979.427 7  88165773.695 7  21530962.148                    21530970.102
 113794077.228 8  88670839.83145  21654274.523                    21654283.781
 123971878.051 7  96601531.32044  23591069.508                    23591081.121
 127524533.012 6  99369755.689 6  24267101.984                    24267114.887
 115732849.225 7  90181522.217 7  22023207.383                    22023216.949
 121568679.933 7  94728896.348 7  23133746.813                    23133757.055
 127109016.918 5  99046040.56842  24188044.148                    24188055.715
 108478870.476 8  84529134.80646  20642814.930                    20642821.035
 11  8 24  0  2 30.0000000  0  9G10G12G04G09G25G05G17G30G02
 109714009.253 8  85491591.15146  20877855.867                    20877864.539
 113083087.273 7  88116766.865 7  21518994.297                    21519002.480
 113870091.836 8  88730071.96045  21668739.234                    21668748.371
 124048362.604 7  96661129.59744  23605623.820                    23605635.898
 127424049.326 6  99291456.808 6  24247979.984                    24247992.430
 115642243.020 7  90110920.096 7  22005964.953                    22005975.059
 121619643.914 7  94768608.483 7  23143444.836                    23143455.070
 127006602.251 6  98966237.01442  24168555.484                    24168567.160
 108477638.572 8  84528174.90546  20642580.961                    20642586.258
 11  8 24  0  3  0.0000000  0  9G10G12G04G09G25G05G17G30G02
 109713518.190 8  85491208.53246  20877762.180                    20877770.949
 113020609.218 7  88068082.703 7  21507104.781                    21507112.340
 113946246.013 8  88789412.84745  21683231.102                    21683239.973
 124125028.449 7  96720869.13144  23620213.711                    23620225.238
 127323724.158 6  99213281.461 6  24228888.867                    24228901.609
 115551933.372 7  90040549.056 7  21988779.500                    21988789.367
 121670762.548 7  94808441.112 6  23153172.641                    23153182.141
 126904403.477 6  98886601.68443  24149108.070                    24149119.074
 108476695.653 8  84527440.19246  20642401.273                    20642407.121
 11  8 24  0  3 30.0000000  0  9G10G12G04G09G25G05G17G30G02
 109713656.510 8  85491316.33746  20877788.914                    20877797.398
 112958547.682 7  88019723.109 7  21495294.805                    21495302.809
 114022537.905 7  88848861.05145  21697749.453                    21697758.063
 124201872.040 7  96780747.17444  23634835.992                    23634848.527
 127223560.034 6  99135231.569 6  24209828.320                    24209840.703
 115461923.431 7  89970411.564 7  21971651.555                    21971661.395
 121722036.002 7  94848394.388 6  23162929.063                    23162939.703
 126802423.566 6  98807136.86543  24129701.313                    24129712.195
 108476040.426 8  84526929.65446  20642276.625                    20642282.637
 11  8 24  0  4  0.0000000  0  9G10G12G04G09G25G05G17G30G02
 109714424.565 8  85491914.85046  20877935.047                    20877943.367
 112896905.538 7  87971690.299 7  21483565.031                    21483572.676
 114098965.273 8  88908414.81045  21712293.031                    21712302.121
 124278889.809 7  96840760.91644  23649492.281                    23649504.250
 127123559.420 7  99057309.077 6  24190799.289                    24190811.078
 115372215.499 7  89900509.405 7  21954580.133                    21954589.789
 121773465.273 7  94888469.074 6  23172716.484                    23172725.945
 126700665.075 6  98727844.61344  24110338.336                    24110348.730
 108475671.508 8  84526642.21446  20642206.227                    20642212.277
 11  8 24  0  4 30.0000000  0  9G10G12G04G09G25G05G17G30G02
 109715822.676 7  85493004.31946  20878200.852                    20878209.215
 112835684.736 7  87923985.814 7  21471914.742                    21471922.438
 114175526.225 7  88968072.65445  21726861.945                    21726870.977
 124356078.494 7  96900907.84144  23664180.711                    23664193.086
 127023724.854 7  98979516.013 6  24171801.047                    24171812.605
 115282812.763 7  89830845.048 7  21937568.133                    21937577.789
 121825050.964 7  94928665.658 6  23182533.047                    23182542.668
 126599130.763 7  98648727.07744  24091017.297                    24091026.922
 108475587.929 8  84526577.12446  20642190.484                    20642196.156
 11  8 24  0  5  0.0000000  0  9G10G12G04G09G25G05G17G30G02
 109717850.801 8  85494584.71546  20878586.750                    20878595.188
 112774887.425 7  87876611.316 7  21460345.641                    21460353.500
 114252218.537 7  89027832.85345  21741456.211                    21741464.992
 124433434.720 6  96961185.32244  23678900.953                    23678913.727
 126924059.058 7  98901854.415 6  24152835.406                    24152846.961
 115193717.726 7  89761420.465 7  21920613.281                    21920623.016
 121876793.546 7  94968984.495 6  23192379.273                    23192389.391
 126497823.506 7  98569786.47144  24071739.086                    24071748.449
 108475788.366 8  84526733.33746  20642228.328                    20642234.117
 11  8 24  0  5 30.0000000  0  9G10G12G04G09G25G05G17G30G02
 109720509.138 7  85496656.17546  20879092.984                    20879100.977
 112714516.302 7  87829568.910 7  21448857.031                    21448865.254
 114329040.643 8  89087694.20545  21756074.625                    21756084.039
 124510955.263 6  97021590.84044  23693652.258                    23693665.082
 126824564.841 7  98824326.561 6  24133902.219                    24133914.035
 115104933.902 7  89692238.374 7  21903718.164                    21903727.441
 121928693.484 7  95009425.929 6  23202255.219                    23202265.719
 126396746.451 7  98491025.23644  24052504.320                    24052514.125
 108476272.148 8  84527110.34746  20642320.211                    20642326.414
 11  8 24  0  6  0.0000000  0  9G10G12G04G09G25G05G17G30G02
 109723798.502 8  85499219.34446  20879718.734                    20879726.895
 112654574.049 7  87782860.692 7  21437450.273                    21437458.402
 114405990.796 8  89147655.32045  21770717.875                    21770727.059
 124588636.829 6  97082121.81444  23708435.508                    23708448.129
 126725244.914 7  98746934.510 6  24115001.633                    24115014.090
 115016464.079 7  89623300.966 7  21886882.773                    21886892.215
 121980751.604 7  95049990.648 6  23212162.102                    23212172.133
 126295902.387 6  98412445.58744  24033314.273                    24033324.316
 108477038.201 8  84527707.29646  20642466.328                    20642472.086
 11  8 24  0  6 30.0000000  0  9G10G12G04G09G25G05G17G30G02
 109727718.657 7  85502274.03346  20880464.789                    20880473.301
 112595062.442 8  87736488.038 7  21426125.844                    21426133.371
 114483066.647 8  89207714.41045  21785385.172                    21785394.047
 124666475.852 7  97142775.48344  23723248.070                    23723260.473
 126626101.665 7  98669680.131 6  24096135.398                    24096148.137
 114928310.898 7  89554610.299 7  21870108.141                    21870117.348
 122032968.299 7  95090678.939 6  23222098.031                    23222108.805
 126195293.992 6  98334049.57543  24014169.234                    24014178.891
 108478085.040 8  84528523.04546  20642665.508                    20642671.348
 11  8 24  0  7  0.0000000  0  9G10G12G04G09G25G05G17G30G02
 109732269.412 8  85505820.09646  20881330.266                    20881339.031
 112535983.653 8  87690452.632 7  21414883.672                    21414891.340
 114560266.170 8  89267869.86645  21800075.531                    21800084.648
 124744468.936 6  97203549.20743  23738089.875                    23738101.777
 126527137.617 7  98592565.381 6  24077303.648                    24077315.398
 114840477.252 7  89486168.616 7  21853393.742                    21853403.117
 122085344.292 7  95131491.352 6  23232065.383                    23232074.988
 126094923.970 6  98255839.28343  23995068.875                    23995078.922
 108479411.459 8  84529556.63546  20642917.820                    20642923.535
 11  8 24  0  7 30.0000000  0  9G10G12G04G09G25G05G17G30G02
 109737450.614 7  85509857.41246  20882316.242                    20882324.563
 112477340.509 8  87644756.693 7  21403724.227                    21403731.688
 114637587.627 8  89328120.33245  21814789.641                    21814798.086
 124822612.625 7  97264440.27543  23752959.414                    23752972.230
 126428355.444 7  98515592.347 7  24058505.156                    24058518.055
 114752966.014 7  89417978.144 7  21836740.922                    21836750.301
 122137880.313 7  95172428.470 6  23242062.867                    23242072.742
 125994795.180 6  98177816.98143  23976014.516                    23976024.957
 108481016.258 8  84530807.15646  20643223.164                    20643229.332
 11  8 24  0  8  0.0000000  0  9G10G12G04G09G25G05G17G30G02
 109743262.910 8  85514386.49846  20883422.672                    20883430.922
 112419135.383 8  87599402.066 7  21392648.133                    21392656.129
 114715029.161 8  89388464.36745  21829526.406                    21829535.121
 124900903.841 6  97325446.31543  23767858.523                    23767870.559
 126329758.022 7  98438763.259 7  24039742.875                    24039755.555
 114665779.986 7  89350041.094 7  21820149.570                    21820159.074
 122190576.796 7  95213490.637 6  23252090.422                    23252100.496
 125894910.713 6  98099985.08942  23957007.414                    23957017.477
 108482898.484 8  84532273.84946  20643581.375                    20643587.367
 11  8 24  0  8 30.0000000  0  9G10G12G04G09G25G05G17G30G02
 109749706.052 8  85519407.15446  20884648.719                    20884657.199
 112361370.028 8  87554390.105 7  21381655.867                    21381663.480
 114792588.542 8  89448900.23945  21844285.211                    21844294.156
 124979339.158 7  97386564.62443  23782784.227                    23782795.754
 126231347.646 7  98362079.918 7  24021015.758                    24021028.500
 114578922.159 7  89282359.772 7  21803620.930                    21803630.410
 122243434.162 7  95254678.166 6  23262149.289                    23262158.602
 125795273.101 6  98022345.43242  23938046.742                    23938056.957
 108485056.880 8  84533955.73346  20643991.977                    20643997.969
 11  8 24  0  9  0.0000000  0  9G10G12G04G09G25G05G17G30G02
 109756779.815 8  85524919.19446  20885994.336                    20886003.211
 112304046.987 8  87509722.817 7  21370747.570                    21370755.434
 114870264.199 8  89509426.71845  21859066.781                    21859075.336
 125057915.029 7  97447792.49543  23797736.359                    23797748.730
 126133126.993 7  98285544.395 7  24002325.172                    24002337.406
 114492394.964 7  89214936.085 7  21787155.250                    21787164.746
 122296453.060 7  95295991.577 6  23272237.594                    23272248.133
 125695885.146 6  97944900.35642  23919133.578                    23919143.855
 108487490.013 8  84535851.69846  20644454.766                    20644461.004
 11  8 24  0  9 30.0000000  0  9G10G12G04G09G25G05G17G30G02
 109764484.402 8  85530922.77446  20887460.516                    20887469.211
 112247168.805 8  87465402.165 7  21359923.813                    21359932.086
 114948054.171 7  89570042.26745  21873869.398                    21873878.266
 125136628.168 7  97509127.33844  23812715.547                    23812727.410
 126035099.067 7  98209159.081 7  23983671.008                    23983683.488
 114406201.358 7  89147772.350 7  21770752.945                    21770762.539
 122349634.326 7  95337431.501 6  23282358.063                    23282368.180
 125596750.032 6  97867652.27543  23900269.391                    23900278.969
 108490197.466 8  84537961.42346  20644970.305                    20644976.359
 11  8 24  0 10  0.0000000  0  9G10G12G04G09G25G05G17G30G02
 109772819.158 8  85537417.40946  20889046.617                    20889055.234
 112190737.091 8  87421429.405 7  21349185.383                    21349192.918
 115025956.278 8  89630745.20345  21888693.516                    21888702.457
 125215475.085 7  97570566.39544  23827719.547                    23827731.609
 125937266.054 6  98132925.618 7  23965054.000                    23965066.930
 114320344.161 7  89080870.731 7  21754415.156                    21754424.285
 122402978.229 7  95378998.129 6  23292509.203                    23292519.590
 125497870.265 6  97790603.11943  23881452.766                    23881463.074
 108493177.460 7  84540283.51446  20645537.148                    20645543.285
 11  8 24  0 10 30.0000000  0  9G10G12G04G09G25G05G17G30G02
 109781784.409 8  85544403.33746  20890752.547                    20890761.305
 112134754.867 8  87377806.897 7  21338532.336                    21338540.266
 115103968.958 7  89691534.29445  21903538.945                    21903548.063
 125294452.619 7  97632107.23944  23842748.266                    23842760.691
 125839630.922 6  98056846.369 6  23946474.453                    23946486.785
 114234826.559 7  89014233.743 7  21738141.586                    21738150.895
 122456485.612 7  95420692.152 6  23302690.914                    23302701.605
 125399248.956 7  97713755.43543  23862685.336                    23862695.785
 108496429.376 8  84542817.49446  20646155.914                    20646161.996
 11  8 24  0 11  0.0000000  0  9G10G12G04G09G25G05G17G30G02
 109791379.992 8  85551880.44146  20892578.523                    20892587.262
 112079223.722 8  87334535.891 7  21327964.883                    21327972.773
 115182090.230 8  89752407.99345  21918405.250                    21918414.270
 125373557.321 7  97693747.19944  23857801.617                    23857814.449
 125742196.276 6  97980923.338 6  23927933.258                    23927946.051
 114149650.979 7  88947863.258 7  21721933.250                    21721942.418
 122510156.611 7  95462513.666 6  23312904.117                    23312914.695
 125300888.862 6  97637111.24843  23843968.617                    23843978.332
 108499951.448 8  84545561.98046  20646826.281                    20646832.109
 11  8 24  0 11 30.0000000  0  9G10G12G04G09G25G05G17G30G02
 109801605.500 8  85559848.39746  20894524.477                    20894533.219
 112024145.829 8  87291618.066 7  21317484.164                    21317492.066
 115260318.066 7  89813364.73945  21933291.016                    21933300.566
 125452785.819 7  97755483.62643  23872878.406                    23872890.977
 125644964.515 7  97905158.381 6  23909430.516                    23909442.762
 114064819.978 7  88881761.271 7  21705789.898                    21705799.363
 122563991.847 7  95504463.151 6  23323148.641                    23323159.527
 125202792.622 6  97560672.66743  23825301.570                    23825311.184
 108503742.449 8  84548516.02146  20647547.883                    20647553.750
 11  8 24  0 12  0.0000000  0  9G10G12G04G09G25G05G17G30G02
 109812461.147 8  85568307.37546  20896590.070                    20896598.879
 111969524.020 8  87249055.638 7  21307090.023                    21307097.500
 115338650.859 8  89874403.25645  21948197.180                    21948206.629
 125532134.847 6  97817313.99143  23887978.430                    23887990.926
 125547938.470 7  97829553.723 6  23890967.594                    23890979.414
 113980336.725 7  88815930.255 7  21689713.344                    21689723.145
 122617991.959 7  95546541.101 6  23333424.547                    23333435.039
 125104963.261 7  97484442.08243  23806684.844                    23806694.848
 108507801.522 8  84551678.95246  20648320.242                    20648326.223
 11  8 24  0 12 30.0000000  0  9G10G12G04G09G25G05G17G30G02
 109823946.174 8  85577256.77146  20898775.758                    20898784.289
 111915359.536 8  87206849.565 7  21296782.500                    21296790.320
 115417086.333 7  89935521.79245  21963122.844                    21963132.723
 125611600.749 6  97879235.42043  23903099.383                    23903112.602
 125451120.635 7  97754111.296 6  23872543.469                    23872554.418
 113896203.469 7  88750371.973 7  21673703.539                    21673712.477
 122672157.550 7  95588747.956 6  23343732.961                    23343743.105
 125007403.257 7  97408421.34643  23788119.766                    23788129.363
 108512126.974 8  84555049.45546  20649143.570                    20649149.125
 11  8 24  0 13  0.0000000  0  9G10G12G04G09G25G05G17G30G02
 109836060.880 8  85586696.83146  20901081.000                    20901089.184
 111861655.315 8  87165002.140 7  21286563.055                    21286571.043
 115495623.266 8  89996719.38345  21978068.367                    21978077.367
 125691180.591 6  97941245.60843  23918243.125                    23918256.141
 125354514.101 7  97678833.520 6  23854160.195                    23854171.430
 113812423.411 8  88685088.894 7  21657760.422                    21657769.746
 122726489.175 7  95631084.201 6  23354071.656                    23354081.719
 124910116.092 7  97332613.25444  23769607.219                    23769616.691
 108516718.534 8  84558627.30746  20650016.836                    20650022.836
 11  8 24  0 13 30.0000000  0  9G10G12G04G09G25G05G17G30G02
 109848804.621 8  85596627.05546  20903506.102                    20903514.711
 111808413.226 8  87123514.829 7  21276431.109                    21276439.227
 115574259.459 8  90057994.31045  21993032.227                    21993041.031
 125770870.850 6  98003341.83543  23933408.219                    23933420.973
 125258121.195 7  97603722.225 6  23835816.844                    23835828.168
 113728999.276 8  88620083.173 7  21641885.336                    21641894.754
 122780987.205 7  95673550.147 6  23364442.281                    23364452.434
 124813104.203 7  97257019.63943  23751145.953                    23751155.375
 108521574.346 8  84562411.06946  20650940.727                    20650946.754
 11  8 24  0 14  0.0000000  0  9G10G12G04G09G25G05G17G30G02
 109862177.138 8  85607047.22246  20906050.766                    20906059.270
 111755635.406 8  87082389.281 7  21266388.117                    21266395.527
 115652993.113 8  90119345.19945  22008014.875                    22008023.535
 125850668.143 6  98065521.43643  23948592.883                    23948605.977
 125161944.511 7  97528779.400 6  23817514.867                    23817526.590
 113645933.473 7  88555356.657 7  21626078.289                    21626087.523
 122835652.401 7  95716146.330 7  23374844.367                    23374854.691
 124716370.366 6  97181642.70344  23732738.273                    23732747.699
 108526693.163 8  84566399.77446  20651914.891                    20651920.918
 11  8 24  0 14 30.0000000  0  9G10G12G04G09G25G05G17G30G02
 109876177.733 8  85617956.79446  20908715.117                    20908723.430
 111703324.308 8  87041627.424 7  21256434.273                    21256441.266
 115731822.392 7  90180770.57845  22023015.578                    22023024.988
 125930569.240 6  98127781.91843  23963797.531                    23963810.152
 125065986.967 7  97454007.370 6  23799255.234                    23799266.273
 113563229.425 8  88490912.039 7  21610340.000                    21610349.477
 122890485.293 6  95758873.178 6  23385278.961                    23385289.016
 124619917.629 6  97106484.78743  23714383.273                    23714393.566
 108532074.192 8  84570592.79546  20652938.586                    20652944.613
 11  8 24  0 15  0.0000000  0  9G10G12G04G09G25G05G17G30G02
 109890806.309 8  85629355.72246  20911498.617                    20911507.426
 111651481.593 8  87001230.545 7  21246568.242                    21246575.891
 115810745.629 7  90242269.17045  22038033.836                    22038043.316
 126010570.673 7  98190120.58043  23979022.016                    23979034.582
 124970250.898 7  97379407.913 6  23781036.633                    23781048.582
 113480889.262 8  88426750.973 7  21594671.328                    21594680.609
 122945486.337 7  95801731.040 7  23395745.445                    23395756.297
 124523748.526 6  97031547.90243  23696082.570                    23696092.781
 108537715.836 8  84574988.89846  20654012.867                    20654018.418
 11  8 24  0 15 30.0000000  0  9G10G12G04G09G25G05G17G30G02
 109906062.258 8  85641243.48746  20914401.852                    20914410.098
 111600109.750 8  86961200.574 7  21236792.477                    21236800.195
 115889761.036 7  90303839.57945  22053070.156                    22053079.402
 126090669.427 6  98252535.09944  23994264.422                    23994276.645
 124874739.251 7  97304983.364 7  23762861.102                    23762873.586
 113398915.802 8  88362875.639 7  21579071.977                    21579081.516
 123000655.812 7  95844720.148 7  23406243.875                    23406254.742
 124427866.222 6  96956834.50243  23677837.070                    23677847.453
 108543617.188 8  84579587.36546  20655135.422                    20655141.520
 11  8 24  0 16  0.0000000  0  9G10G12G04G09G25G05G17G30G02
 109921945.246 8  85653619.85046  20917424.125                    20917432.574
 111549210.789 8  86921539.091 7  21227106.789                    21227114.660
 115968866.603 7  90365480.24645  22068123.617                    22068133.160
 126170862.209 7  98315022.86744  24009524.195                    24009536.848
 124779454.553 7  97230735.662 7  23744729.008                    23744741.336
 113317311.839 8  88299288.229 7  21563543.438                    21563552.934
 123055994.459 7  95887841.090 7  23416774.305                    23416785.113
 124332273.352 6  96882346.65943  23659646.609                    23659656.785
 108549776.926 8  84584387.17846  20656307.703                    20656313.777
 11  8 24  0 16 30.0000000  0  9G10G12G04G09G25G05G17G30G02
 109938454.675 8  85666484.36346  20920565.586                    20920574.176
 111498786.767 8  86882247.689 7  21217511.258                    21217518.938
 116048060.791 7  90427189.97945  22083193.883                    22083203.152
 126251145.395 6  98377581.10144  24024801.734                    24024814.207
 124684399.611 7  97156666.975 7  23726641.227                    23726653.035
 113236080.007 7  88235990.787 7  21548085.469                    21548094.672
 123111502.831 7  95931094.273 6  23427337.398                    23427348.203
 124236972.815 6  96808086.58343  23641510.563                    23641520.910
 108556193.958 8  84589387.48446  20657528.836                    20657534.699
 11  8 24  0 17  0.0000000  0  9G10G12G04G09G25G05G17G30G02
 109955590.026 8  85679836.59946  20923826.617                    20923835.027
 111448839.785 8  86843327.991 7  21208006.711                    21208014.383
 116127341.865 7  90488967.39645  22098280.344                    22098289.707
 126331515.654 6  98440207.15244  24040095.898                    24040108.758
 124589577.005 7  97082779.338 7  23708597.695                    23708608.941
 113155222.818 7  88172985.273 7  21532698.867                    21532707.770
 123167181.161 7  95974479.914 7  23437932.875                    23437943.668
 124141967.490 7  96734056.53443  23623432.328                    23623441.879
 108562866.827 8  84594587.13746  20658798.227                    20658804.523
 11  8 24  0 17 30.0000000  0  9G10G12G04G09G25G05G17G30G02
 109973350.886 8  85693676.23446  20927206.148                    20927214.648
 111399371.677 8  86804781.451 7  21198593.188                    21198600.648
 116206707.825 7  90550810.96145  22113383.219                    22113392.426
 126411969.826 6  98502898.56144  24055406.547                    24055418.391
 124494989.374 7  97009074.819 7  23690596.578                    23690609.316
 113074743.325 7  88110274.068 7  21517384.148                    21517393.086
 123223030.299 7  96017998.661 6  23448560.578                    23448571.070
 124047260.131 7  96660258.69143  23605409.852                    23605419.203
 108569794.717 8  84599985.50946  20660117.078                    20660122.816
 11  8 24  0 18  0.0000000  0  9G10G12G04G09G25G05G17G30G02
 109991736.843 8  85708002.96746  20930705.078                    20930713.324
 111350384.558 8  86766609.701 7  21189271.203                    21189278.836
 116286157.018 7  90612719.37545  22128502.445                    22128511.414
 126492504.751 6  98565652.91444  24070731.078                    24070743.875
 124400639.322 7  96935555.393 7  23672642.688                    23672654.516
 112994643.889 7  88047859.011 7  21502141.531                    21502150.527
 123279050.660 7  96061650.837 6  23459220.914                    23459231.348
 123952853.510 7  96586695.14543  23587445.063                    23587454.398
 108576976.107 8  84605581.41346  20661483.453                    20661489.254
 11  8 24  0 18 30.0000000  0  9G10G12G04G09G25G05G17G30G02
 110010746.940 8  85722816.03346  20934322.148                    20934330.738
 111301880.435 8  86728814.313 7  21180041.406                    21180048.625
 116365687.839 7  90674691.40545  22143636.305                    22143645.883
 126573117.046 6  98628467.55743  24086071.898                    24086084.230
 124306529.558 7  96862223.230 6  23654733.797                    23654746.430
 112914927.032 7  87985742.073 7  21486972.047                    21486981.438
 123335242.472 7  96105436.600 6  23469913.758                    23469924.586
 123858750.483 7  96513368.17843  23569537.828                    23569547.012
 108584409.765 8  84611373.88946  20662898.094                    20662903.922
 11  8 24  0 19  0.0000000  0  9G10G12G04G09G25G05G17G30G02
 110030380.589 8  85738114.97146  20938058.586                    20938067.078
 111253861.396 8  86691396.905 7  21170903.430                    21170910.898
 116445298.356 7  90736725.54545  22158785.844                    22158795.273
 126653803.285 6  98691339.81743  24101425.633                    24101438.117
 124212662.859 7  96789080.437 6  23636871.438                    23636883.629
 112835595.284 7  87923925.210 7  21471875.711                    21471884.605
 123391606.449 7  96149356.509 6  23480639.094                    23480649.723
 123764953.914 7  96440279.97043  23551689.109                    23551697.504
 108592094.414 8  84617361.95546  20664360.586                    20664366.191
 11  8 24  0 19 30.0000000  0  9G10G12G04G09G25G05G17G30G02
 110050637.129 8  85753899.28646  20941913.570                    20941921.543
 111206329.476 8  86654359.070 7  21161858.211                    21161866.055
 116524986.969 7  90798820.51845  22173950.234                    22173959.664
 126734560.327 6  98754267.26043  24116793.047                    24116806.109
 124119041.863 7  96716129.119 6  23619056.898                    23619067.961
 112756651.676 8  87862410.800 7  21456852.828                    21456862.063
 123448142.967 7  96193410.881 6  23491398.742                    23491408.844
 123671466.512 7  96367432.72443  23533899.344                    23533908.160
 108600028.987 8  84623544.76146  20665870.047                    20665876.016
 11  8 24  0 20  0.0000000  0  9G10G12G04G09G25G05G17G30G02
 110071516.088 8  85770168.60446  20945886.688                    20945894.746
 111159286.521 8  86617702.236 7  21152906.484                    21152914.094
 116604752.143 7  90860975.15245  22189129.078                    22189137.867
 126815384.777 7  98817247.19143  24132173.906                    24132186.570
 124025669.197 7  96643371.270 6  23601287.945                    23601299.207
 112678098.790 8  87801200.843 7  21441904.703                    21441913.363
 123504852.559 7  96237600.096 6  23502190.523                    23502200.617
 123578291.230 7  96294828.65843  23516167.883                    23516177.309
 108608212.370 8  84629921.44346  20667427.141                    20667433.066
 11  8 24  0 20 30.0000000  0  9G10G12G04G09G25G05G17G30G02
 110093016.789 8  85786922.39646  20949977.922                    20949986.320
 111112734.522 8  86581427.973 7  21144047.648                    21144055.414
 116684591.856 7  90923187.87645  22204322.242                    22204331.262
 126896273.524 7  98880277.26843  24147566.586                    24147579.035
 123932547.573 7  96570809.078 6  23583567.516                    23583578.980
 112599939.309 8  87740297.448 7  21427031.242                    21427040.445
 123561735.454 7  96281924.373 6  23513014.453                    23513025.016
 123485430.734 7  96222469.93244  23498497.492                    23498507.203
 108616643.231 8  84636490.97046  20669031.867                    20669037.535
 11  8 24  0 21  0.0000000  0  9G10G12G04G09G25G05G17G30G02
 110115138.417 8  85804160.03246  20954187.734                    20954196.012
 111066675.232 8  86545537.637 7  21135283.070                    21135290.766
 116764504.869 7  90985457.71845  22219528.578                    22219537.961
 126977223.094 6  98943354.72943  24162970.383                    24162983.395
 123839679.727 7  96498444.610 6  23565895.453                    23565906.594
 112522175.411 8  87679702.287 7  21412233.109                    21412241.957
 123618792.405 7  96326384.261 6  23523871.875                    23523882.887
 123392888.061 7  96150358.83544  23480886.664                    23480896.383
 108625320.461 8  84643252.47346  20670682.898                    20670688.668
 11  8 24  0 21 30.0000000  0  9G10G12G04G09G25G05G17G30G02
 110137880.303 8  85821880.97946  20958515.414                    20958523.844
 111021111.346 8  86510033.330 7  21126612.438                    21126620.207
 116844489.365 7  91047783.26645  22234749.250                    22234758.875
 127058230.740 6  99006477.42243  24178386.805                    24178398.598
 123747068.549 7  96426280.175 6  23548272.008                    23548283.730
 112444810.081 8  87619417.704 7  21397511.078                    21397519.945
 123676023.908 7  96370980.173 6  23534762.805                    23534773.438
 123300666.106 6  96078497.67944  23463337.688                    23463347.512
 108634243.233 8  84650205.29846  20672380.656                    20672386.590
 11  8 24  0 22  0.0000000  0  9G10G12G04G09G25G05G17G30G02
 110161241.099 8  85840084.20346  20962960.602                    20962969.008
 110976044.000 8  86474915.931 7  21118036.805                    21118044.070
 116924543.373 7  91110162.98545  22249983.539                    22249992.691
 127139292.530 6  99069642.34643  24193811.867                    24193824.371
 123654716.300 7  96354317.472 6  23530698.039                    23530708.941
 112367845.442 8  87559445.345 7  21382865.031                    21382873.895
 123733430.481 7  96415712.517 6  23545687.102                    23545697.879
 123208767.332 6  96006888.34744  23445850.094                    23445859.953
 108643409.495 8  84657347.85946  20674125.500                    20674130.988
 11  8 24  0 22 30.0000000  0  9G10G12G04G09G25G05G17G30G02
 110185220.325 8  85858769.31846  20967524.078                    20967532.406
 110931475.311 8  86440187.101 7  21109554.977                    21109562.914
 117004665.507 7  91172595.77045  22265230.234                    22265239.203
 127220405.413 6  99132847.08743  24209246.125                    24209260.152
 123562625.707 7  96282558.694 6  23513173.266                    23513185.391
 112291284.268 8  87499787.374 7  21368295.906                    21368304.996
 123791012.348 7  96460581.456 6  23556644.242                    23556655.469
 123117194.637 6  95935533.10543  23428423.539                    23428433.895
 108652818.170 8  84664679.32046  20675915.102                    20675921.211
 11  8 24  0 23  0.0000000  0  9G10G12G04G09G25G05G17G30G02
 110209817.499 8  85877935.95446  20972204.586                    20972213.016
 110887407.267 8  86405848.386 7  21101169.594                    21101176.832
 117084854.153 7  91235080.39445  22280489.633                    22280498.523
 127301566.701 6  99196089.52943  24224691.688                    24224704.770
 123470799.684 7  96211006.050 6  23495699.555                    23495710.895
 112215129.290 7  87440445.917 7  21353804.219                    21353812.762
 123848769.884 6  96505587.308 6  23567635.523                    23567645.641
 123025950.878 6  95864434.20643  23411060.281                    23411070.391
 108662468.367 8  84672198.97246  20677751.695                    20677757.770
 11  8 24  0 23 30.0000000  0  9G10G12G04G09G25G05G17G30G02
 110235031.430 8  85897583.17746  20977002.742                    20977010.969
 110843841.983 8  86371901.419 7  21092879.070                    21092886.457
 117165107.630 7  91297615.54645  22295761.258                    22295770.414
 127382772.853 6  99259366.93343  24240144.633                    24240157.719
 123379240.880 7  96139661.643 6  23478275.758                    23478287.820
 112139383.239 7  87381423.096 7  21339390.156                    21339398.613
 123906703.598 7  96550730.432 6  23578659.680                    23578670.367
 122935038.894 6  95793593.82644  23393760.367                    23393770.324
 108672358.972 8  84679905.95546  20679634.031                    20679639.230
 11  8 24  0 24  0.0000000  0  9G10G12G04G09G25G05G17G30G02
 110260861.217 8  85917710.29746  20981917.570                    20981926.301
 110800781.038 8  86338347.460 7  21084685.242                    21084692.563
 117245424.351 7  91360199.98345  22311044.953                    22311054.348
 127464020.456 6  99322676.64143  24255605.453                    24255618.953
 123287951.957 7  96068527.523 7  23460904.547                    23460915.832
 112064048.210 7  87322720.556 7  21325054.297                    21325063.293
 123964814.118 6  96596011.307 6  23589717.203                    23589728.313
 122844461.705 6  95723014.33844  23376524.164                    23376533.684
 108682488.775 8  84687799.32146  20681561.156                    20681567.344
 11  8 24  0 24 30.0000000  0  9G10G12G04G09G25G05G17G30G02
 110287305.760 8  85938316.45646  20986950.047                    20986958.602
 110758225.994 8  86305187.708 7  21076587.234                    21076594.438
 117325802.749 7  91422832.48644  22326340.266                    22326350.023
 127545306.410 6  99386016.24543  24271074.266                    24271087.164
 123196935.453 7  95997605.678 7  23443584.547                    23443595.719
 111989126.849 8  87264340.364 7  21310797.219                    21310806.188
 124023101.571 6  96641430.058 6  23600809.406                    23600819.883
 122754221.635 6  95652697.57044  23359352.070                    23359361.402
 108692856.113 8  84695877.77746  20683534.633                    20683540.465
 11  8 24  0 25  0.0000000  0  9G10G12G04G09G25G05G17G30G02
 110314364.228 8  85959400.99646  20992099.266                    20992107.254
 110716178.755 8  86272423.638 7  21068585.500                    21068593.305
 117406240.855 7  91485511.50544  22341646.859                    22341656.664
 127626627.276 6  99449383.04143  24286548.391                    24286561.891
 123106193.943 7  95926898.110 6  23426316.570                    23426328.047
 111914621.309 8  87206284.178 7  21296618.852                    21296628.027
 124081566.504 6  96686987.109 6  23611935.344                    23611945.492
 122664321.542 7  95582645.67144  23342244.453                    23342254.164
 108703459.743 8  84704140.36246  20685552.477                    20685557.945
 11  8 24  0 25 30.0000000  0  9G10G12G04G09G25G05G17G30G02
 110342035.683 8  85980963.20346  20997364.641                    20997373.117
 110674641.305 8  86240056.822 7  21060681.281                    21060689.285
 117486737.403 7  91548236.07544  22356965.227                    22356974.352
 127707980.087 6  99512774.73643  24302030.094                    24302043.086
 123015730.209 7  95856406.984 7  23409102.031                    23409113.754
 111840534.610 8  87148554.368 7  21282521.063                    21282529.656
 124140209.334 6  96732682.779 6  23623094.195                    23623104.867
 122574764.277 7  95512860.90444  23325202.125                    23325212.418
 108714298.624 8  84712586.25146  20687614.906                    20687620.637
 11  8 24  0 26  0.0000000  0  9G10G12G04G09G25G05G17G30G02
 110370318.922 7  86003002.11946  21002746.734                    21002755.215
 110633615.577 8  86208088.741 7  21052874.563                    21052882.145
 117567290.793 7  91611004.95144  22372293.813                    22372303.445
 127789361.576 6  99576188.75543  24317516.602                    24317529.309
 122925547.121 7  95786134.497 7  23391940.742                    23391952.223
 111766868.909 7  87091152.598 7  21268502.461                    21268511.695
 124199030.579 6  96778517.462 6  23634288.047                    23634298.785
 122485552.717 7  95443345.51044  23308225.945                    23308235.414
 108725371.952 8  84721214.82446  20689722.070                    20689727.723
 11  8 24  0 26 30.0000000  0  9G10G12G04G09G25G05G17G30G02
 110399213.379 8  86025517.30246  21008245.141                    21008253.633
 110593103.022 8  86176520.541 7  21045164.930                    21045172.703
 117647899.499 7  91673816.91044  22387633.188                    22387642.680
 127870768.512 6  99639622.59143  24333007.836                    24333021.039
 122835647.185 7  95716082.659 7  23374833.250                    23374845.078
 111693626.656 8  87034080.802 7  21254565.016                    21254573.559
 124258030.705 6  96824491.538 6  23645515.133                    23645525.938
 122396689.732 7  95374101.72044  23291315.219                    23291325.254
 108736678.316 8  84730024.98846  20691873.617                    20691879.379
 11  8 24  0 27  0.0000000  0  9G10G12G04G09G25G05G17G30G02
 110428717.431 8  86048507.49546  21013859.563                    21013868.340
 110553105.237 8  86145353.461 7  21037553.648                    21037561.219
 117728561.769 7  91736670.61244  22402983.250                    22402992.121
 127952197.831 6  99703073.89643  24348502.398                    24348516.207
 122746032.894 7  95646253.360 7  23357780.742                    23357791.691
 111620810.173 8  86977340.768 7  21240708.492                    21240717.297
 124317209.659 6  96870604.957 6  23656776.539                    23656787.121
 122308177.561 7  95305131.29843  23274471.969                    23274481.766
 108748215.972 8  84739015.37146  20694068.891                    20694074.840
 11  8 24  0 27 30.0000000  0  9G10G12G04G09G25G05G17G30G02
 110458830.004 8  86071971.85946  21019589.875                    21019598.199
 110513624.666 8  86114589.402 7  21030040.766                    21030048.242
 117809276.029 7  91799564.84344  22418342.492                    22418351.828
 128033646.373 6  99766540.16643  24364002.492                    24364015.707
 122656707.221 7  95576648.941 7  23340782.414                    23340793.828
 111548421.853 8  86920934.357 7  21226933.336                    21226941.961
 124376568.390 6  96916858.428 6  23668071.789                    23668082.836
 122220019.441 7  95236436.72744  23257696.133                    23257705.203
 108759984.233 8  84748185.45046  20696308.227                    20696314.422
 11  8 24  0 28  0.0000000  0  9G10G12G04G09G25G05G17G30G02
 110489550.281 8  86095909.77046  21025435.258                    21025444.328
 110474662.558 8  86084229.352 7  21022626.617                    21022633.773
 117890041.215 7  91862498.74144  22433711.852                    22433721.055
 128115110.936 6  99830018.91743  24379505.016                    24379518.211
 122567672.840 7  95507271.474 7  23323840.008                    23323851.359
 111476464.631 8  86864863.880 7  21213240.523                    21213248.836
 124436106.884 6  96963251.970 6  23679402.422                    23679412.512
 122132218.108 7  95168020.18744  23240988.469                    23240997.496
 108771981.888 8  84757534.27946  20698591.633                    20698597.422
 11  8 24  0 28 30.0000000  0  9G10G12G04G09G25G05G17G30G02
 110520876.971 8  86120320.20146  21031396.570                    21031405.203
 110436220.519 8  86054274.547 7  21015311.430                    21015318.672
 117970855.400 7  91925470.83744  22449090.023                    22449099.309
 128196588.178 6  99893507.53543  24395009.789                    24395023.051
 122478932.192 7  95438122.910 7  23306953.039                    23306964.809
 111404940.613 8  86809130.945 7  21199629.867                    21199638.109
 124495825.625 6  97009785.990 6  23690766.742                    23690776.539
 122044776.113 7  95099883.59244  23224348.539                    23224357.242
 108784207.461 8  84767060.69146  20700918.250                    20700923.586
 11  8 24  0 29  0.0000000  0  9G10G12G04G09G25G05G17G30G02
 110552809.162 8  86145202.45546  21037473.563                    21037481.914
 110398300.594 8  86024726.579 7  21008095.078                    21008102.922
 118051717.421 7  91988480.18644  22464477.664                    22464486.824
 128278075.271 6  99957003.82643  24410515.852                    24410529.738
 122390488.461 7  95369205.682 7  23290122.711                    23290134.141
 111333852.959 8  86753738.051 7  21186102.117                    21186110.527
 124555724.841 6  97056460.621 6  23702164.938                    23702175.289
 121957696.503 7  95032029.38544  23207777.852                    23207787.137
 108796660.171 8  84776764.10446  20703287.906                    20703293.559
 11  8 24  0 29 30.0000000  0  9G10G12G04G09G25G05G17G30G02
 110585344.924 8  86170555.01746  21043664.961                    21043673.488
 110360903.924 8  85995586.342 7  21000979.000                    21000986.680
 118132625.295 7  92051525.26845  22479874.063                    22479883.141
 128359568.732 6 100020505.07744  24426023.852                    24426037.754
 122302343.677 7  95300521.421 7  23273349.102                    23273360.426
 111263202.566 8  86698685.872 7  21172657.656                    21172666.148
 124615805.176 6  97103276.379 6  23713598.297                    23713608.422
 121870981.576 6  94964459.31343  23191275.742                    23191285.273
 108809338.238 8  84786643.11146  20705700.164                    20705706.098
 11  8 24  0 30  0.0000000  0  9G10G12G04G09G25G05G17G30G02
 110618483.594 7  86196377.38446  21049970.969                    21049979.219
 110324032.394 8  85966855.309 7  20993962.094                    20993970.078
 118213577.720 7  92114605.05445  22495278.453                    22495288.199
 128441065.667 6 100084009.05643  24441531.828                    24441545.902
 122214500.746 7  95232072.387 6  23256633.125                    23256644.184
 111192992.659 8  86643976.926 7  21159297.164                    21159305.926
 124676066.822 6  97150233.405 6  23725064.766                    23725076.359
 121784634.281 6  94897175.69744  23174844.922                    23174854.383
 108822240.747 8  84796697.01446  20708155.320                    20708161.059
 11  8 24  0 30 30.0000000  0  9G10G12G04G09G25G05G17G30G02
 110652223.937 8  86222668.56546  21056391.625                    21056399.957
 110287687.487 8  85938534.626 7  20987046.375                    20987053.996
 118294573.249 7  92177718.44544  22510692.070                    22510701.012
 128522563.025 6 100147513.38143  24457040.555                    24457054.762
 122126962.364 7  95163860.663 6  23239975.219                    23239986.340
 111123225.044 8  86589612.621 7  21146021.141                    21146029.684
 124736510.017 6  97197331.928 6  23736567.656                    23736578.441
 121698657.336 6  94830180.69743  23158484.078                    23158493.641
 108835366.335 8  84806924.74146  20710652.852                    20710658.762
 11  8 24  0 31  0.0000000  0  9G10G12G04G09G25G05G17G30G02
 110686564.652 8  86249427.58146  21062926.008                    21062934.609
 110251870.758 8  85910625.510 7  20980230.492                    20980238.281
 118375610.262 7  92240864.14944  22526112.164                    22526121.449
 128604057.470 6 100211015.39843  24472548.977                    24472562.449
 122039731.138 7  95095888.307 6  23223375.523                    23223386.863
 111053902.457 8  86535595.091 7  21132829.227                    21132837.848
 124797135.275 6  97244572.330 6  23748104.070                    23748115.035
 121613053.461 7  94763476.38844  23142193.789                    23142203.930
 108848713.882 8  84817325.43246  20713193.633                    20713199.086
 11  8 24  0 31 30.0000000  0  9G10G12G04G09G25G05G17G30G02
 110721504.386 8  86276653.36546  21069575.156                    21069583.398
 110216584.100 8  85883129.438 7  20973515.750                    20973523.426
 118456687.439 7  92304041.15744  22541540.781                    22541549.914
 128685545.864 6 100274512.69443  24488055.680                    24488069.336
 121952809.872 7  95028157.494 6  23206834.531                    23206846.035
 110985027.083 8  86481926.037 7  21119722.734                    21119730.750
 124857943.244 6  97291955.116 6  23759676.156                    23759686.586
 121527825.389 7  94697064.92144  23125976.070                    23125985.527
 108862282.359 8  84827898.26546  20715774.828                    20715781.199
 11  8 24  0 32  0.0000000  0  9G10G12G04G09G25G05G17G30G02
 110757041.312 8  86304344.47846  21076337.391                    21076345.953
 110181828.920 8  85856047.495 7  20966901.922                    20966909.387
 118537802.989 7  92367248.04144  22556976.727                    22556985.977
 128767025.075 6 100338002.83843  24503560.492                    24503574.453
 121866200.929 7  94960670.081 6  23190353.555                    23190364.836
 110916601.093 8  86428607.158 7  21106701.398                    21106709.887
 124918933.936 7  97339480.280 6  23771281.484                    23771292.367
 121442975.740 7  94630948.31544  23109829.555                    23109838.906
 108876070.047 8  84838641.90646  20718398.945                    20718404.754
 11  8 24  0 32 30.0000000  0  9G10G12G04G09G25G05G17G30G02
 110793174.545 8  86332500.27646  21083213.305                    21083221.586
 110147606.630 8  85829380.787 7  20960389.813                    20960397.445
 118618955.977 7  92430484.09544  22572419.430                    22572428.938
 128848492.117 6 100401483.51943  24519062.930                    24519077.160
 121779907.225 7  94893428.316 7  23173932.953                    23173943.844
 110848627.061 8  86375640.445 7  21093766.344                    21093775.156
 124980107.380 7  97387147.841 6  23782922.570                    23782933.363
 121358507.412 7  94565128.86444  23093756.063                    23093764.922
 108890076.103 8  84849555.71146  20721064.219                    20721070.090
 11  8 24  0 33  0.0000000  0  9G10G12G04G09G25G05G17G30G02
 110829902.804 8  86361119.72546  21090202.469                    21090210.746
 110113918.799 8  85803130.547 7  20953979.023                    20953986.547
 118700144.811 7  92493748.08044  22587869.672                    22587878.668
 128929943.936 6 100464952.36943  24534563.961                    24534576.984
 121693931.356 7  94826434.208 7  23157571.844                    23157582.973
 110781107.277 8  86323027.696 7  21080917.789                    21080925.930
 125041464.183 7  97434958.284 6  23794598.438                    23794609.695
 121274423.076 7  94499608.63644  23077755.133                    23077764.426
 108904299.420 8  84860638.80346  20723770.766                    20723776.832
 11  8 24  0 33 30.0000000  0  9G10G12G04G09G25G05G17G30G02
 110867224.401 8  86390201.49646  21097304.164                    21097312.551
 110080766.829 8  85777297.853 7  20947670.750                    20947677.855
 118781367.941 7  92557038.79444  22603325.156                    22603334.742
 129011377.353 6 100528406.83943  24550060.500                    24550073.305
 121608275.774 7  94759689.692 7  23141272.289                    23141283.293
 110714044.167 8  86270770.788 7  21068156.172                    21068164.469
 125103004.685 7  97482911.861 6  23806309.594                    23806320.035
 121190725.236 7  94434389.57944  23061827.672                    23061837.273
 108918738.510 8  84871890.03146  20726518.555                    20726524.023
 11  8 24  0 34  0.0000000  0  9G10G12G04G09G25G05G17G30G02
 110905138.041 8  86419744.60246  21104519.164                    21104527.910
 110048152.899 8  85751884.413 7  20941464.320                    20941471.848
 118862623.986 7  92620355.14044  22618788.156                    22618797.707
 129092789.498 6 100591844.76143  24565552.000                    24565565.938
 121522943.312 7  94693196.959 7  23125034.016                    23125045.480
 110647439.348 8  86218870.996 7  21055481.453                    21055489.977
 125164729.308 7  97531008.926 6  23818055.211                    23818066.016
 121107416.701 7  94369473.89344  23045974.766                    23045984.180
 108933392.285 8  84883308.55746  20729307.289                    20729313.059
 11  8 24  0 34 30.0000000  0  9G10G12G04G09G25G05G17G30G02
 110943642.312 8  86449747.94546  21111846.039                    21111854.605
 110016077.698 8  85726890.758 7  20935360.633                    20935367.805
 118943911.570 7  92683696.07544  22634256.852                    22634266.313
 129174176.861 6 100655263.40943  24581038.813                    24581053.383
 121437936.546 7  94626958.007 7  23108857.438                    23108868.652
 110581295.185 8  86167330.157 7  21042894.898                    21042903.230
 125226638.249 6  97579249.611 6  23829836.328                    23829847.094
 121024500.233 7  94304863.70444  23030195.922                    23030205.219
 108948259.603 8  84894893.46746  20732136.086                    20732141.938
 11  8 24  0 35  0.0000000  0  9G10G12G04G09G25G05G17G30G02
 110982735.545 8  86480210.21545  21119285.711                    21119293.902
 109984542.229 8  85702317.672 7  20929359.430                    20929367.129
 119025229.302 7  92747060.47944  22649730.789                    22649740.094
 129255536.589 6 100718660.51943  24596521.797                    24596536.184
 121353257.967 7  94560974.794 7  23092743.227                    23092754.656
 110515613.788 8  86116149.916 7  21030395.758                    21030404.164
 125288731.513 7  97627633.913 6  23841651.867                    23841662.965
 120941978.216 7  94240560.90344  23014493.094                    23014502.180
 108963339.101 8  84906643.71746  20735005.641                    20735011.688
 11  8 24  0 35 30.0000000  0  9G10G12G04G09G25G05G17G30G02
 111022416.635 8  86511130.56045  21126836.797                    21126844.887
 109953549.219 8  85678167.276 7  20923461.922                    20923469.195
 119106576.111 7  92810447.56144  22665210.828                    22665219.691
 129336865.765 6 100782033.77542  24611998.297                    24612012.676
 121268910.586 7  94495249.641 7  23076693.258                    23076703.871
 110450398.005 8  86065332.485 7  21017985.500                    21017994.043
 125351009.788 6  97676162.384 6  23853503.633                    23853514.527
 120859853.731 7  94176567.85644  22998865.523                    22998874.168
 108978629.960 8  84918558.66846  20737915.320                    20737921.270
 11  8 24  0 36  0.0000000  0  9G10G12G04G09G25G05G17G30G02
 111062683.450 8  86542507.30445  21134499.125                    21134507.660
 109923099.096 8  85654439.917 7  20917667.344                    20917675.055
 119187950.157 7  92873855.85944  22680695.656                    22680705.477
 129418161.458 6 100845381.02443  24627468.555                    24627482.566
 121184896.769 7  94429784.403 7  23060705.523                    23060717.258
 110385649.643 8  86014879.283 7  21005664.383                    21005672.887
 125413473.202 6  97724835.109 6  23865390.203                    23865400.926
 120778129.182 7  94112886.44944  22983313.508                    22983322.352
 108994130.801 8  84930637.23946  20740864.930                    20740870.898
 11  8 24  0 36 30.0000000  0  9G10G12G04G09G25G05G17G30G02
 111103534.674 8  86574339.43145  21142272.609                    21142281.023
 109893193.857 8  85631137.140 7  20911976.195                    20911983.926
 119269350.275 7  92937284.46944  22696185.484                    22696194.938
 129499420.491 6 100908699.67843  24642931.359                    24642945.211
 121101219.119 7  94364581.103 7  23044781.969                    23044793.398
 110321370.794 8  85964791.932 7  20993432.406                    20993441.125
 125476122.238 6  97773652.473 6  23877311.164                    23877322.711
 120696807.078 6  94049518.61744  22967838.063                    22967846.730
 109009840.280 8  84942878.39346  20743854.563                    20743860.426
 11  8 24  0 37  0.0000000  0  9G10G12G04G09G25G05G17G30G02
 111144968.938 8  86606625.89046  21150157.461                    21150165.605
 109863834.210 8  85608259.505 7  20906389.461                    20906396.887
 119350775.171 7  93000732.39144  22711680.742                    22711689.867
 129580639.666 6 100971987.25143  24658387.000                    24658401.516
 121017880.230 7  94299641.781 7  23028923.727                    23028934.246
 110257563.473 8  85915072.003 7  20981290.492                    20981298.566
 125538956.897 6  97822614.463 6  23889269.031                    23889279.402
 120615890.195 7  93986466.55244  22952439.609                    22952448.992
 109025757.184 8  84955281.17746  20746883.461                    20746889.141
 11  8 24  0 37 30.0000000  0  9G10G12G04G09G25G05G17G30G02
 111186984.759 8  86639365.50046  21158152.711                    21158161.035
 109835022.022 8  85585808.460 7  20900907.117                    20900914.289
 119432223.751 7  93064198.77344  22727179.586                    22727188.566
 129661816.050 6 101035241.47743  24673834.328                    24673848.508
 120934882.893 7  94234968.587 7  23013129.281                    23013140.465
 110194230.066 8  85865721.369 7  20969238.266                    20969246.195
 125601977.777 6  97871721.536 6  23901261.703                    23901272.559
 120535381.298 7  93923732.41144  22937119.336                    22937128.727
 109041880.721 8  84967844.98246  20749951.617                    20749957.242
 11  8 24  0 38  0.0000000  0  9G10G12G04G09G25G05G17G30G02
 111229580.283 8  86672556.82546  21166258.438                    21166266.484
 109806758.380 8  85563784.857 7  20895528.391                    20895535.652
 119513694.361 7  93127682.32744  22742683.063                    22742692.152
 129742946.926 6 101098460.22943  24689273.383                    24689287.188
 120852229.558 7  94170563.437 7  22997401.102                    22997411.723
 110131372.448 8  85816741.462 7  20957276.828                    20957285.129
 125665184.785 6  97920973.674 6  23913288.570                    23913299.793
 120455282.842 7  93861318.08944  22921877.766                    22921886.797
 109058209.441 8  84980568.67046  20753059.063                    20753064.391
 11  8 24  0 38 30.0000000  0  9G10G12G04G09G25G05G17G30G02
 111272753.987 8  86706198.68345  21174473.734                    21174482.066
 109779044.903 8  85542189.949 7  20890254.563                    20890262.090
 119595185.677 7  93191182.01144  22758190.461                    22758199.688
 129824029.022 6 101161640.96443  24704703.469                    24704716.777
 120769923.055 7  94106428.540 7  22981738.328                    22981749.695
 110068992.883 8  85768134.082 7  20945406.344                    20945414.516
 125728578.262 6  97970371.088 6  23925352.391                    23925363.199
 120375597.573 7  93799225.73444  22906713.234                    22906722.773
 109074742.248 8  84993451.39546  20756204.977                    20756210.738
 11  8 24  0 39  0.0000000  0  9G10G12G04G09G25G05G17G30G02
 111316503.851 7  86740289.48946  21182799.469                    21182808.059
 109751882.583 8  85521024.530 7  20885085.813                    20885093.543
 119676696.633 7  93254696.98944  22773701.406                    22773710.738
 129905059.377 6 101224781.39643  24720122.227                    24720136.723
 120687965.697 7  94042565.692 7  22966142.719                    22966153.453
 110007093.405 8  85719900.781 7  20933627.305                    20933635.480
 125792158.451 6  98019914.026 6  23937450.977                    23937462.547
 120296327.985 7  93737457.28844  22891628.938                    22891638.238
 109091477.971 8  85006492.23646  20759389.680                    20759395.566
 11  8 24  0 39 30.0000000  0  9G10G12G04G09G25G05G17G30G02
 111360828.456 8  86774828.14146  21191234.203                    21191242.688
 109725272.554 8  85500289.454 7  20880021.914                    20880029.246
 119758225.608 7  93318226.01044  22789215.859                    22789225.371
 129986035.024 6 101287879.24843  24735531.500                    24735545.801
 120606360.077 7  93978976.935 7  22950613.031                    22950624.281
 109945675.937 8  85672043.078 7  20921940.141                    20921948.215
 125855925.715 6  98069602.721 6  23949586.391                    23949596.852
 120217476.492 6  93676014.61544  22876624.313                    22876633.504
 109108415.243 8  85019690.12646  20762612.664                    20762618.477
 11  8 24  0 40  0.0000000  0  9G10G12G04G09G25G05G17G30G02
 111405725.943 7  86809813.19746  21199777.875                    21199786.355
 109699215.987 8  85479985.652 7  20875063.805                    20875070.965
 119839771.347 7  93381768.12244  22804733.398                    22804742.738
 130066953.078 6 101350932.20243  24750930.344                    24750944.098
 120525108.750 7  93915664.247 7  22935151.664                    22935162.281
 109884742.483 8  85624562.525 7  20910344.305                    20910352.598
 125919879.935 6  98119437.112 6  23961755.758                    23961767.352
 120139045.745 7  93614899.82544  22861699.625                    22861708.523
 109125552.600 8  85033043.93646  20765873.656                    20765879.340
 11  8 24  0 40 30.0000000  0  9G10G12G04G09G25G05G17G30G02
 111451194.661 7  86845243.36245  21208430.492                    21208438.969
 109673713.954 8  85460113.952 7  20870211.023                    20870218.430
 119921332.745 7  93445322.43044  22820254.180                    22820263.523
 130147810.350 6 101413937.76343  24766317.125                    24766331.375
 120444214.307 7  93852629.628 7  22919757.664                    22919768.668
 109824295.316 8  85577460.893 7  20898842.000                    20898850.020
 125984021.442 6  98169417.427 6  23973961.977                    23973973.133
 120061038.161 7  93554114.75544  22846855.070                    22846863.977
 109142889.003 8  85046552.84446  20769173.078                    20769178.621
 11  8 24  0 41  0.0000000  0  9G10G12G04G09G25G05G17G30G02
 111497232.956 7  86881117.36345  21217191.336                    21217199.430
 109648768.505 8  85440675.960 7  20865463.703                    20865471.121
 120002908.557 7  93508887.97344  22835777.586                    22835787.074
 130228604.237 6 101476893.94843  24781691.156                    24781705.551
 120363679.594 7  93789875.328 7  22904432.617                    22904443.500
 109764336.256 8  85530739.603 8  20887431.969                    20887439.988
 126048350.716 6  98219544.056 6  23986202.250                    23986215.195
 119983456.720 7  93493661.73644  22832091.922                    22832100.441
 109160423.819 8  85060216.36246  20772509.352                    20772514.898
 11  8 24  0 41 30.0000000  0  9G10G12G04G09G25G05G17G30G02
 111543838.664 8  86917433.49946  21226059.867                    21226068.180
 109624379.584 8  85421671.613 7  20860822.594                    20860829.734
 120084497.356 7  93572463.62544  22851302.992                    22851312.977
 130309331.338 6 101539798.08343  24797053.602                    24797067.266
 120283506.822 7  93727403.059 7  22889176.516                    22889187.324
 109704866.542 8  85484399.622 7  20876115.359                    20876123.344
 126112867.789 6  98269817.031 6  23998480.695                    23998491.785
 119906303.602 7  93433542.49044  22817409.734                    22817418.988
 109178155.491 8  85074033.27046  20775884.078                    20775889.316
 11  8 24  0 42  0.0000000  0  9G10G12G04G09G25G05G17G30G02
 111591010.473 8  86954190.75546  21235036.680                    21235044.684
 109600549.277 8  85403102.565 7  20856287.992                    20856295.656
 120166098.171 7  93636048.62844  22866831.234                    22866841.535
 130389989.056 6 101602648.14543  24812401.125                    24812416.227
 120203698.926 7  93665215.118 7  22873989.273                    22873999.996
 109645889.177 7  85438443.288 7  20864892.352                    20864900.789
 126177572.676 6  98320236.368 6  24010794.344                    24010804.375
 119829581.622 7  93373759.17844  22802810.375                    22802819.105
 109196083.076 8  85088002.83346  20779295.313                    20779300.789
 11  8 24  0 42 30.0000000  0  9G10G12G04G09G25G05G17G30G02
 111638746.397 8  86991387.58346  21244119.813                    21244128.320
 109577278.243 8  85384969.308 7  20851859.820                    20851866.844
 120247709.614 7  93699641.91144  22882361.281                    22882371.500
 130470574.415 6 101665441.78843  24827736.641                    24827751.594
 120124258.231 7  93603313.318 7  22858872.219                    22858882.629
 109587405.871 8  85392871.931 8  20853762.961                    20853771.184
 126242465.733 6  98370802.311 6  24023142.797                    24023153.488
 119753293.125 7  93314313.66544  22788293.063                    22788301.543
 109214205.072 8  85102123.89446  20782744.086                    20782749.219
 11  8 24  0 43  0.0000000  0  9G10G12G04G09G25G05G17G30G02
 111687044.438 8  87029022.41845  21253310.828                    21253319.254
 109554567.605 8  85367272.715 7  20847537.523                    20847545.152
 120329330.371 7  93763242.47044  22897893.758                    22897903.281
 130551084.471 6 101728176.81843  24843057.797                    24843071.770
 120045187.312 7  93541699.656 7  22843825.453                    22843836.547
 109529418.334 8  85347686.887 7  20842728.148                    20842736.383
 126307547.066 6  98421515.028 6  24035527.063                    24035538.082
 119677440.642 7  93255207.87744  22773858.203                    22773867.527
 109232520.552 8  85116395.71846  20786229.289                    20786234.418
 11  8 24  0 43 30.0000000  0  9G10G12G04G09G25G05G17G30G02
 111735902.879 8  87067093.92146  21262608.320                    21262616.734
 109532418.270 8  85350013.507 8  20843323.063                    20843330.465
 120410959.188 7  93826849.32744  22913426.930                    22913436.465
 130631516.269 6 101790850.78943  24858363.242                    24858377.547
 119966488.605 7  93480376.032 7  22828850.016                    22828860.594
 109471928.651 8  85302889.787 8  20831788.414                    20831796.520
 126372816.986 6  98472374.691 6  24047947.367                    24047958.305
 119602026.561 7  93196443.70844  22759507.844                    22759516.883
 109251028.084 8  85130817.19246  20789750.844                    20789756.633
 11  8 24  0 44  0.0000000  0  8G10G12G04G25G05G17G30G02
 111785319.993 8  87105600.77045  21272012.141                    21272020.422
 109510832.057 8  85333193.094 7  20839215.391                    20839222.723
 120492595.530 7  93890462.05344  22928961.852                    22928972.035
 119888165.140 7  93419344.826 7  22813945.109                    22813955.801
 109414939.014 8  85258482.330 8  20820943.180                    20820951.496
 126438276.287 6  98523381.908 6  24060404.078                    24060415.461
 119527053.879 7  93138023.50444  22745240.461                    22745249.672
 109269727.110 8  85145387.88746  20793309.234                    20793314.664
 11  8 24  0 44 30.0000000  0  8G10G12G04G25G05G17G30G02
 111835293.884 7  87144541.46445  21281521.766                    21281530.203
 109489809.684 8  85316812.034 7  20835214.891                    20835222.270
 120574237.915 6  93954079.44544  22944498.078                    22944507.969
 119810219.463 7  93358608.001 7  22799112.367                    22799123.066
 109358451.117 8  85214465.836 8  20810194.391                    20810202.270
 126503924.608 6  98574536.417 6  24072896.672                    24072908.199
 119452525.072 7  93079949.14744  22731058.477                    22731067.598
 109288616.671 8  85160107.04246  20796903.773                    20796909.078
 11  8 24  0 45  0.0000000  0  8G10G12G04G25G05G17G30G02
 111885822.202 7  87183914.17645  21291137.469                    21291145.605
 109469351.456 8  85300870.569 7  20831321.938                    20831328.871
 120655884.783 6  94017700.31544  22960034.711                    22960044.535
 119732653.408 7  93298166.994 7  22784352.094                    22784362.938
 109302466.428 8  85170841.454 8  20799540.711                    20799548.680
 126569761.640 6  98625837.953 6  24085425.242                    24085436.152
 119378441.913 7  93022222.07644  22716960.586                    22716969.734
 109307694.556 8  85174972.95446  20800533.938                    20800539.313
 11  8 24  0 45 30.0000000  0  8G10G12G04G25G05G17G30G02
 111936903.348 7  87223717.65745  21300857.766                    21300865.770
 109449458.855 8  85285369.855 7  20827536.336                    20827543.871
 120737534.857 7  94081323.70644  22975572.758                    22975582.238
 119655469.684 7  93238023.899 7  22769664.219                    22769675.090
 109246986.792 8  85127610.616 7  20788983.086                    20788990.945
 126635787.678 6  98677286.785 6  24097989.398                    24098000.160
 119304807.101 7  92964844.34044  22702948.719                    22702957.301
 109326959.839 8  85189984.88746  20804200.219                    20804205.824
 11  8 24  0 46  0.0000000  0  8G10G12G04G25G05G17G30G02
 111988535.263 7  87263950.32745  21310682.773                    21310691.180
 109430132.729 8  85270310.545 7  20823858.766                    20823866.195
 120819187.248 7  94144948.91844  22991110.617                    22991120.121
 119578670.717 7  93178180.622 7  22755050.109                    22755061.023
 109192013.967 8  85084774.699 8  20778522.133                    20778530.371
 126702003.069 6  98728883.169 6  24110589.305                    24110600.813
 119231623.033 7  92907817.85244  22689022.125                    22689031.008
 109346411.468 8  85205142.01846  20807901.750                    20807907.121
 11  8 24  0 46 30.0000000  0  8G10G12G04G25G05G17G30G02
 112040715.823 7  87304610.50345  21320612.297                    21320620.402
 109411373.891 8  85255693.284 7  20820288.938                    20820296.477
 120900840.846 7  94208575.04844  23006648.750                    23006658.695
 119502259.233 7  93118639.286 7  22740509.242                    22740519.742
 109137549.936 8  85042335.248 7  20768157.977                    20768165.828
 126768407.815 7  98780627.102 6  24123225.961                    24123237.383
 119158892.352 7  92851144.64344  22675181.375                    22675190.523
 109366048.758 8  85220443.82346  20811638.609                    20811644.164
 11  8 24  0 47  0.0000000  0  8G10G12G04G25G05G17G30G02
 112093443.056 7  87345696.66445  21330646.031                    21330654.902
 109393183.199 8  85241518.728 8  20816827.523                    20816834.801
 120982494.198 7  94272200.98944  23022187.008                    23022196.457
 119426237.640 7  93059401.755 7  22726043.086                    22726053.492
 109083596.228 8  85000293.449 7  20757891.117                    20757899.008
 126835001.966 7  98832518.609 6  24135898.969                    24135910.016
 119086617.308 7  92794826.48744  22661428.164                    22661437.020
 109385870.012 8  85235888.98446  20815410.461                    20815415.828
 11  8 24  0 47 30.0000000  0  8G10G12G04G25G05G17G30G02
 112146714.937 7  87387207.22045  21340783.703                    21340791.789
 109375561.684 8  85227787.693 7  20813474.102                    20813481.387
 121064146.569 7  94335826.16044  23037725.016                    23037734.430
 119350608.373 7  93000469.930 7  22711651.141                    22711661.590
 109030154.804 8  84958650.833 7  20747721.234                    20747729.270
 126901785.712 7  98884557.841 6  24148606.938                    24148618.063
 119014800.383 7  92738865.28944  22647761.648                    22647770.676
 109405874.443 8  85251476.87146  20819216.844                    20819222.371
 11  8 24  0 48  0.0000000  0  8G10G12G04G25G05G17G30G02
 112200529.485 7  87429140.62645  21351023.734                    21351032.172
 109358510.738 8  85214501.257 7  20810229.422                    20810236.898
 121145796.746 7  94399449.61444  23053262.359                    23053271.988
 119275374.009 7  92941845.817 7  22697334.711                    22697345.289
 108977227.400 8  84917408.752 8  20737649.586                    20737657.746
 126968759.380 7  98936745.066 6  24161352.383                    24161363.438
 118943443.966 7  92683262.94144  22634183.164                    22634191.949
 109426060.992 8  85267206.66146  20823058.328                    20823064.023
 11  8 24  0 48 30.0000000  0  8G10G12G04G25G05G17G30G02
 112254884.173 7  87471494.92545  21361367.555                    21361375.688
 109342029.987 8  85201659.117 7  20807093.313                    20807100.664
 121227443.408 7  94463070.36244  23068799.430                    23068808.664
 119200536.726 7  92883531.105 7  22683093.383                    22683104.133
 108924815.586 8  84876568.432 8  20727675.633                    20727683.938
 127035922.608 7  98989080.002 6  24174132.922                    24174143.715
 118872550.244 7  92628021.12544  22620692.680                    22620701.117
 109446428.139 8  85283077.18146  20826933.984                    20826939.609
 11  8 24  0 49  0.0000000  0  8G10G12G04G25G05G17G30G02
 112309777.385 8  87514268.85145  21371812.898                    21371821.164
 109326121.015 8  85189262.523 7  20804065.914                    20804073.453
 121309085.771 7  94526687.74244  23084335.047                    23084344.957
 119126099.173 7  92825527.876 7  22668928.227                    22668939.406
 108872921.146 8  84836131.252 7  20717800.875                    20717808.637
 127103275.799 6  99041562.961 6  24186950.148                    24186960.945
 118802121.729 7  92573141.80744  22607290.133                    22607298.957
 109466974.984 8  85299087.72146  20830844.008                    20830849.895
 11  8 24  0 49 30.0000000  0  8G10G12G04G25G05G17G30G02
 112365207.098 8  87557460.83645  21382361.383                    21382369.320
 109310784.828 8  85177312.251 7  20801147.539                    20801154.863
 121390722.854 7  94590301.01744  23099870.469                    23099880.250
 119052063.962 7  92767838.156 7  22654839.383                    22654850.461
 108821545.908 8  84796098.654 8  20708024.141                    20708032.230
 127170819.019 6  99094193.996 6  24199803.172                    24199814.414
 118732160.887 7  92518626.90744  22593976.922                    22593985.730
 109487700.642 8  85315237.59646  20834787.930                    20834793.625
 11  8 24  0 50  0.0000000  0  8G10G12G04G25G05G17G30G02
 112421170.771 8  87601068.88745  21393010.727                    21393019.113
 109296021.704 8  85165808.525 7  20798338.180                    20798345.684
 121472353.134 7  94653908.98544  23115403.602                    23115413.934
 118978433.182 7  92710463.567 7  22640828.180                    22640839.152
 108770691.243 8  84756471.692 7  20698346.859                    20698354.352
 127238552.262 6  99146973.118 6  24212692.367                    24212703.379
 118662669.786 7  92464478.04444  22580753.344                    22580762.148
 109508603.543 8  85331525.57846  20838765.602                    20838771.500
 11  8 24  0 50 30.0000000  0  8G10G12G04G25G05G17G30G02
 112477666.736 8  87645091.72845  21403761.484                    21403769.980
 109281832.600 8  85154752.088 7  20795638.008                    20795645.625
 121553976.082 7  94717511.25344  23130937.000                    23130946.273
 118905209.718 7  92653406.365 7  22626894.531                    22626904.844
 108720359.079 8  84717251.877 8  20688769.008                    20688776.730
 127306475.665 6  99199900.399 6  24225617.516                    24225628.438
 118593651.217 7  92410697.37544  22567619.734                    22567628.125
 109529683.171 8  85347951.27246  20842776.977                    20842782.672
 11  8 24  0 51  0.0000000  0  8G10G12G04G25G05G17G30G02
 112534692.488 8  87689527.38445  21414613.203                    21414621.461
 109268217.990 8  85144143.300 7  20793047.430                    20793054.641
 121635590.233 7  94781106.67044  23146467.000                    23146476.703
 118832395.587 7  92596668.122 7  22613038.555                    22613048.684
 108670550.380 8  84678439.953 8  20679290.344                    20679298.469
 127374589.074 6  99252975.773 6  24238578.953                    24238590.563
 118525106.973 7  92357286.31844  22554576.258                    22554585.113
 109550937.671 8  85364513.21546  20846821.648                    20846827.156
 11  8 24  0 51 30.0000000  0  8G10G12G04G25G05G17G30G02
 112592245.943 8  87734374.22845  21425565.109                    21425573.418
 109255178.476 8  85133982.647 7  20790566.219                    20790573.117
 121717194.495 7  94844694.38744  23161995.430                    23162005.715
 118759993.243 7  92540250.755 7  22599260.398                    22599271.305
 108621267.202 8  84640037.533 8  20669912.305                    20669920.152
 127442892.789 6  99306199.416 6  24251576.805                    24251588.016
 118457039.576 7  92304246.83644  22541623.523                    22541631.820
 109572366.322 8  85381210.86846  20850899.414                    20850905.414
 11  8 24  0 52  0.0000000  0  8G10G12G04G25G05G17G30G02
 112650324.816 8  87779630.49045  21436617.227                    21436625.824
 109242714.671 8  85124270.587 7  20788194.250                    20788201.699
 121798787.758 6  94908273.51844  23177522.188                    23177532.535
 118688005.004 7  92484156.071 7  22585561.227                    22585572.109
 108572510.581 8  84602045.411 8  20660634.523                    20660642.254
 127511386.671 6  99359571.251 6  24264610.242                    24264621.180
 118389451.106 7  92251580.53944  22528761.805                    22528770.137
 109593967.816 8  85398043.20046  20855009.711                    20855015.594
 11  8 24  0 52 30.0000000  0  8G10G12G04G25G05G17G30G02
 112708926.796 8  87825294.36745  21447768.688                    21447777.223
 109230827.700 8  85115008.015 8  20785932.227                    20785939.855
 121880369.378 7  94971843.56944  23193046.859                    23193057.152
 118616433.462 7  92428386.079 7  22571941.813                    22571952.543
 108524282.269 8  84564464.959 8  20651456.859                    20651464.871
 127580070.821 6  99413091.336 6  24277680.984                    24277692.672
 118322344.018 7  92199289.35745  22515991.883                    22516000.566
 109615741.248 8  85415009.50846  20859153.383                    20859158.734
 11  8 24  0 53  0.0000000  0  8G10G12G04G25G05G17G30G02
 112768049.826 8  87871364.24445  21459019.844                    21459028.031
 109219518.041 8  85106195.299 7  20783780.172                    20783787.078
 121961938.270 6  95035403.72644  23208569.297                    23208578.711
 118545281.014 7  92372942.653 7  22558402.352                    22558412.512
 108476584.129 8  84527297.624 8  20642379.641                    20642387.566
 127648945.368 6  99466759.823 6  24290787.055                    24290798.555
 118255720.589 7  92147375.04645  22503313.938                    22503322.355
 109637685.748 8  85432109.10746  20863329.086                    20863335.055
 11  8 24  0 53 30.0000000  0  8G10G12G04G25G05G17G30G02
 112827691.717 8  87917838.44845  21470368.555                    21470377.348
 109208786.144 8  85097832.796 7  20781737.594                    20781744.898
 122043493.297 6  95098953.06044  23224088.891                    23224098.434
 118474549.966 7  92317827.603 7  22544942.047                    22544953.238
 108429417.582 8  84490544.515 8  20633404.453                    20633412.176
 127718010.256 6  99520576.580 6  24303930.164                    24303941.543
 118189583.077 7  92095839.36745  22490728.156                    22490736.715
 109659800.048 8  85449341.02346  20867537.469                    20867542.699
 11  8 24  0 54  0.0000000  0  8G10G12G04G25G05G17G30G02
 112887850.219 7  87964715.19845  21481816.914                    21481825.172
 109198632.441 8  85089920.831 7  20779805.203                    20779812.789
 122125033.536 6  95162490.89444  23239604.859                    23239615.297
 118404242.606 7  92263042.684 7  22531562.938                    22531574.152
 108382784.025 8  84454206.726 8  20624530.211                    20624537.828
 127787265.504 6  99574541.693 6  24317108.320                    24317119.938
 118123933.564 7  92044683.96545  22478235.359                    22478243.719
 109682082.952 7  85466704.31646  20871777.836                    20871783.938
 11  8 24  0 54 30.0000000  0  8G10G12G04G25G05G17G30G02
 112948522.884 7  88011992.58445  21493362.258                    21493370.797
 109189057.371 8  85082459.756 7  20777983.609                    20777990.949
 122206557.736 6  95226016.21644  23255118.523                    23255128.828
 118334361.093 7  92208589.600 7  22518264.844                    22518276.043
 108336684.509 8  84418285.071 8  20615757.789                    20615765.688
 127856711.128 6  99628655.120 6  24330323.961                    24330335.059
 118058774.130 7  91993910.44645  22465835.594                    22465844.746
 109704533.119 7  85484197.93946  20876049.844                    20876055.434
 11  8 24  0 55  0.0000000  0  8G10G12G04G25G05G17G30G02
 113009707.816 7  88059669.15845  21505005.523                    21505014.250
 109180061.860 8  85075450.274 7  20776271.516                    20776278.668
 122288065.652 7  95289528.84344  23270628.961                    23270638.848
 118264908.369 7  92154470.644 7  22505048.375                    22505059.492
 108291121.139 8  84382781.191 8  20607087.164                    20607095.137
 127926346.957 6  99682916.790 6  24343575.453                    24343586.746
 117994107.495 7  91943520.90444  22453530.383                    22453538.691
 109727150.287 8  85501821.69246  20880353.781                    20880359.844
 11  8 24  0 55 30.0000000  0  9G10G12G04G29G25G05G17G30G02
 113071402.487 7  88107742.92045  21516745.078                    21516753.688
 109171646.491 8  85068892.865 7  20774670.344                    20774677.504
 122369555.719 7  95353027.56644  23286136.000                    23286146.035
 129557348.06917 100953834.42915  24653952.195                    24653961.391
 118195886.405 7  92100687.333 7  22491914.195                    22491925.035
 108246094.884 8  84347695.833 8  20598519.211                    20598527.016
 127996173.207 6  99737326.802 6  24356862.781                    24356874.320
 117929935.508 7  91893516.82245  22441318.180                    22441327.328
 109749932.999 8  85519574.44446  20884689.203                    20884695.145
 11  8 24  0 56  0.0000000  0  9G10G12G04G29G25G05G17G30G02
 113133605.006 8  88156212.41445  21528582.078                    21528590.730
 109163811.970 8  85062788.063 7  20773179.352                    20773187.012
 122451027.812 7  95416512.28744  23301639.969                    23301649.426
 129477686.684 6 100891760.655 5  24638793.758                    24638802.625
 118127298.042 7  92047241.901 7  22478862.383                    22478872.691
 108201607.636 8  84313030.488 8  20590053.516                    20590061.367
 128066190.115 6  99791885.411 6  24370186.523                    24370197.691
 117866260.863 7  91843900.27244  22429201.484                    22429210.359
 109772880.767 8  85537455.81046  20889055.680                    20889061.922
 11  8 24  0 56 30.0000000  0  9G10G12G04G29G25G05G17G30G02
 113196312.720 7  88205075.56045  21540515.664                    21540523.391
 109156558.319 8  85057135.888 7  20771799.016                    20771806.418
 122532480.479 7  95479981.83544  23317140.211                    23317149.770
 129397944.703 6 100829624.060 5  24623618.734                    24623628.313
 118059145.375 7  91994135.960 7  22465893.164                    22465903.684
 108157660.853 8  84278786.275 8  20581690.523                    20581698.547
 128136397.727 6  99846592.607 6  24383546.313                    24383557.910
 117803085.399 7  91794672.68645  22417179.586                    22417188.141
 109795992.267 8  85555464.75446  20893453.984                    20893459.625
 11  8 24  0 57  0.0000000  0  9G10G12G04G29G25G05G17G30G02
 113259522.806 7  88254330.17445  21552543.797                    21552552.215
 109149885.894 8  85051936.625 7  20770528.891                    20770536.734
 122613912.616 6  95543435.41144  23332635.664                    23332646.086
 129318122.421 6 100767424.915 5  24608428.984                    24608438.691
 117991430.293 7  91941370.994 7  22453007.227                    22453018.137
 108114255.310 8  84244963.818 8  20573430.961                    20573438.379
 128206795.399 6  99901447.937 6  24396942.773                    24396954.113
 117740410.952 7  91745835.51144  22405252.859                    22405261.605
 109819266.078 8  85573600.18746  20897883.234                    20897888.648
 11  8 24  0 57 30.0000000  0  9G10G12G04G29G25G05G17G30G02
 113323233.015 7  88303974.48045  21564667.602                    21564675.953
 109143794.907 8  85047190.423 7  20769370.109                    20769377.246
 122695323.228 6  95606872.21444  23348128.305                    23348137.746
 129238220.244 6 100705163.600 5  24593224.711                    24593234.156
 117924155.003 7  91888948.727 7  22440205.367                    22440216.070
 108071392.059 8  84211563.918 8  20565273.938                    20565281.848
 128277383.259 6  99956451.496 6  24410375.195                    24410386.145
 117678239.552 7  91697390.31044  22393422.180                    22393431.238
 109842701.053 8  85591861.19646  20902342.289                    20902348.344
 11  8 24  0 58  0.0000000  0  9G10G12G04G29G25G05G17G30G02
 113387441.194 8  88354006.81145  21576885.969                    21576893.984
 109138285.588 8  85042897.466 7  20768321.891                    20768328.836
 122776711.404 6  95670291.53644  23363615.836                    23363625.270
 129158238.745 6 100642840.484 5  24578004.500                    24578013.684
 117857321.750 7  91836870.905 7  22427487.188                    22427498.133
 108029072.479 8  84178587.663 8  20557220.805                    20557228.887
 128348160.988 6 100011602.996 6  24423843.805                    24423855.391
 117616573.244 7  91649338.68645  22381687.609                    22381695.582
 109866296.001 8  85610246.85946  20906832.047                    20906838.168
 11  8 24  0 58 30.0000000  0  9G10G12G04G29G25G05G17G30G02
 113452144.466 7  88404424.94045  21589198.492                    21589206.984
 109133358.015 8  85039057.819 7  20767384.250                    20767391.402
 122858075.967 6  95733692.45443  23379098.820                    23379108.266
 129078178.512 6 100580456.002 5  24562768.367                    24562778.543
 117790932.555 7  91785139.087 7  22414853.609                    22414864.684
 107987297.915 8  84146036.086 8  20549271.648                    20549279.375
 128419128.914 7 100066902.702 5  24437348.102                    24437359.719
 117555413.774 7  91601682.00045  22370048.813                    22370057.371
 109890049.705 8  85628756.23346  20911352.555                    20911358.305
 11  8 24  0 59  0.0000000  0  9G10G12G04G29G25G05G17G30G02
 113517341.642 8  88455227.92545  21601604.984                    21601613.305
 109129013.553 8  85035672.543 7  20766557.492                    20766564.707
 122939416.991 6  95797075.00644  23394577.258                    23394587.227
 128998040.511 6 100518010.860 5  24547518.602                    24547528.988
 117724990.676 7  91733755.828 7  22402305.375                    22402316.449
 107946070.072 8  84113910.537 8  20541425.648                    20541434.094
 128490286.859 6 100122350.475 6  24450889.070                    24450900.605
 117494764.320 7  91554422.71645  22358507.977                    22358516.223
 109913962.327 8  85647389.43246  20915902.648                    20915908.930
 11  8 24  0 59 30.0000000  0  9G10G12G04G29G25G05G17G30G02
 113583029.545 7  88506413.29045  21614104.961                    21614113.344
 109125251.964 8  85032741.446 7  20765841.563                    20765848.637
 123020732.989 6  95860438.02544  23410051.781                    23410061.832
 128917825.482 6 100455505.767 6  24532253.852                    24532264.816
 117659497.724 7  91682722.381 7  22389842.648                    22389853.113
 107905389.795 8  84082211.653 8  20533684.648                    20533692.691
 128561634.513 6 100177946.044 5  24464466.383                    24464476.977
 117434626.307 7  91507561.96545  22347063.438                    22347072.711
 109938032.156 8  85666145.13946  20920483.102                    20920489.063
 11  8 24  1  0  0.0000000  0  9G10G12G04G29G25G05G17G30G02
 113649205.006 8  88557978.56145  21626697.766                    21626706.094
 109122073.497 8  85030264.725 7  20765236.820                    20765244.172
 123102022.840 6  95923780.68843  23425520.844                    23425530.543
 128837533.383 6 100392940.627 6  24516975.125                    24516985.871
 117594455.583 7  91632040.213 7  22377465.680                    22377476.246
 107865258.100 8  84050940.243 8  20526047.680                    20526055.609
 128633171.728 6 100233689.314 5  24478079.398                    24478091.035
 117375001.435 7  91461101.04945  22335717.750                    22335726.742
 109962257.614 7  85685022.11646  20925093.367                    20925099.223
 11  8 24  1  0 30.0000000  0  9G10G12G04G29G25G05G17G30G02
 113715866.034 7  88609922.21145  21639383.195                    21639391.496
 109119477.857 8  85028242.165 7  20764742.820                    20764750.000
 123183286.042 6  95987102.57343  23440984.430                    23440994.699
 128757165.226 7 100330316.175 6  24501681.688                    24501692.164
 117529866.760 7  91581711.297 7  22365174.836                    22365185.285
 107825676.122 8  84020097.175 8  20518515.656                    20518523.652
 128704898.725 6 100289580.497 5  24491728.547                    24491739.832
 117315891.871 7  91415041.68245  22324469.281                    22324477.570
 109986638.379 8  85704020.11646  20929733.117                    20929738.516
 11  8 24  1  1  0.0000000  0  9G10G12G04G29G25G05G17G30G02
 113783011.000 7  88662242.93445  21652160.180                    21652168.469
 109117466.163 7  85026674.618 7  20764359.828                    20764367.398
 123264522.319 6  96050403.49343  23456443.852                    23456453.066
 128676722.212 7 100267633.367 6  24486374.422                    24486384.336
 117465734.112 7  91531737.826 7  22352970.328                    22352981.129
 107786645.821 8  83989683.990 8  20511088.328                    20511096.578
 128776815.928 6 100345619.884 6  24505414.094                    24505425.234
 117257300.418 7  91369386.03645  22313320.063                    22313328.492
 110011173.868 8  85723138.68546  20934401.883                    20934407.695
 11  8 24  1  1 30.0000000  0  8G10G12G04G29G25G05G30G02
 113850637.627 7  88714938.98645  21665029.234                    21665037.578
 109116039.055 7  85025562.589 7  20764088.609                    20764095.871
 123345731.138 7  96113683.02243  23471897.391                    23471906.336
 128596205.371 7 100204893.039 6  24471052.602                    24471061.832
 117402060.109 7  91482121.734 7  22340854.078                    22340864.543
 107748168.704 8  83959701.858 8  20503766.141                    20503774.254
 117199229.279 7  91324135.82345  22302269.125                    22302277.961
 110035863.457 7  85742377.32746  20939100.063                    20939105.777
 11  8 24  1  2  0.0000000  0  8G10G12G04G29G25G05G30G02
 113918742.640 8  88768007.78545  21677989.211                    21677997.418
 109115195.566 8  85024905.319 7  20763928.094                    20763935.168
 123426910.911 6  96176939.90743  23487345.336                    23487354.375
 128515614.196 7 100142094.807 6  24455715.898                    24455726.020
 117338845.921 7  91432863.947 7  22328824.250                    22328835.148
 107710244.695 8  83930150.718 8  20496550.023                    20496557.699
 117141679.401 7  91279291.77945  22291317.719                    22291326.277
 110060705.214 8  85761734.54946  20943827.570                    20943833.414
 11  8 24  1  2 30.0000000  0  8G10G12G04G29G25G05G30G02
 113987323.235 7  88821447.18945  21691039.852                    21691048.090
 109114935.876 7  85024702.962 7  20763878.328                    20763885.414
 123508060.284 6  96240173.09843  23502787.055                    23502797.281
 128434949.518 7 100079239.258 6  24440365.922                    24440375.941
 117276093.472 7  91383965.956 7  22316883.016                    22316893.332
 107672875.205 8  83901031.676 8  20489438.328                    20489446.133
 117084652.505 7  91234855.25845  22280466.000                    22280474.828
 110085698.073 8  85781209.50946  20948583.164                    20948589.000
 11  8 24  1  3  0.0000000  0  8G10G12G04G29G25G05G30G02
 114056376.723 7  88875255.08145  21704180.141                    21704188.730
 109115259.864 7  85024955.417 7  20763940.203                    20763947.148
 123589178.457 6  96303381.98244  23518223.734                    23518233.328
 128354211.444 7 100016326.544 6  24425001.930                    24425012.367
 117213804.763 7  91335429.314 7  22305030.148                    22305040.480
 107636060.508 8  83872344.938 8  20482432.523                    20482440.813
 117028150.388 7  91190827.65945  22269714.063                    22269722.844
 110110840.352 8  85800800.90546  20953367.500                    20953373.363
 11  8 24  1  3 30.0000000  0  8G10G12G04G29G25G05G30G02
 114125900.527 7  88929429.43645  21717409.977                    21717418.367
 109116167.872 8  85025662.947 7  20764112.898                    20764120.137
 123670264.938 6  96366566.19644  23533654.516                    23533663.988
 128273400.987 6  99953357.445 6  24409623.758                    24409634.688
 117151982.154 7  91287255.878 7  22293265.625                    22293276.207
 107599802.115 8  83844091.670 8  20475532.953                    20475540.789
 116972175.099 7  91147210.57045  22259062.305                    22259070.527
 110136131.634 8  85820508.41246  20958180.359                    20958185.797
 11  8 24  1  4  0.0000000  0  8G10G12G04G29G25G05G30G02
 114195892.247 7  88983968.42745  21730729.148                    21730737.363
 109117659.905 8  85026825.561 7  20764397.164                    20764404.402
 123751318.913 6  96429725.10043  23549078.547                    23549088.102
 128192518.933 6  99890332.558 6  24394232.633                    24394242.324
 117090627.890 7  91239447.382 7  22281589.961                    22281600.688
 107564101.186 8  83816272.802 8  20468739.641                    20468747.453
 116916728.786 7  91104005.67645  22248510.813                    22248519.809
 110161571.090 8  85840331.36746  20963021.680                    20963026.820
 11  8 24  1  4 30.0000000  0  8G10G12G04G29G25G05G30G02
 114266349.125 7  89038869.86245  21744136.648                    21744144.867
 109119735.605 8  85028442.983 7  20764792.125                    20764799.070
 123832339.683 6  96492858.12244  23564495.938                    23564505.816
 128111565.872 6  99827252.298 6  24378827.734                    24378837.289
 117029743.874 7  91192005.316 7  22270004.484                    22270014.773
 107528958.286 8  83788888.761 8  20462051.766                    20462059.832
 116861812.968 7  91061214.14345  22238060.867                    22238069.863
 110187157.489 8  85860268.82646  20967890.172                    20967895.836
 11  8 24  1  5  0.0000000  0  8G10G12G04G29G25G05G30G02
 114337268.996 7  89094132.09145  21757632.320                    21757640.727
 109122395.215 7  85030515.391 7  20765298.039                    20765304.953
 123913326.289 7  96555964.51844  23579906.797                    23579916.691
 128030542.663 6  99764117.388 6  24363409.891                    24363418.855
 116969332.230 7  91144931.326 7  22258507.961                    22258518.793
 107494374.674 8  83761940.528 8  20455470.328                    20455478.637
 116807429.607 7  91018837.51345  22227712.297                    22227720.773
 110212890.002 8  85880320.13946  20972787.555                    20972792.996
 11  8 24  1  5 30.0000000  0  8G10G12G04G29G25G05G30G02
 114408649.677 8  89149753.38645  21771215.500                    21771223.980
 109125639.187 8  85033043.157 7  20765915.523                    20765922.492
 123994278.552 7  96619044.17644  23595311.672                    23595321.762
 127949450.286 6  99700928.585 6  24347977.859                    24347987.742
 116909395.473 7  91098227.387 7  22247102.695                    22247113.422
 107460351.574 8  83735429.050 8  20448996.023                    20449003.980
 116753580.926 7  90976877.53545  22217465.164                    22217473.613
 110238768.270 8  85900485.02946  20977711.469                    20977717.004
 11  8 24  1  6  0.0000000  0  8G10G12G04G29G25G05G30G02
 114480488.048 8  89205731.32545  21784886.055                    21784894.238
 109129466.923 8  85036025.794 7  20766643.875                    20766651.137
 124075195.232 7  96682096.12444  23610709.617                    23610719.500
 127868289.186 6  99637686.273 6  24332533.938                    24332543.211
 116849935.227 8  91051894.756 7  22235787.820                    22235798.043
 107426889.441 8  83709354.697 8  20442628.789                    20442636.422
 116700268.347 7  90935335.27945  22207320.055                    22207328.676
 110264790.656 8  85920762.21446  20982663.484                    20982669.453
 11  8 24  1  6 30.0000000  0  8G10G12G04G29G25G05G30G02
 114552781.189 7  89262063.64245  21798642.938                    21798651.281
 109133878.391 8  85039463.285 7  20767483.508                    20767490.508
 124156075.451 7  96745119.65244  23626100.664                    23626110.930
 127787060.107 6  99574390.913 5  24317076.430                    24317085.574
 116790953.408 7  91005934.927 7  22224563.938                    22224574.824
 107393989.193 8  83683718.171 8  20436368.047                    20436375.629
 116647493.433 7  90894211.98845  22197277.383                    22197286.141
 110290956.103 8  85941150.86746  20987642.406                    20987648.176
 11  8 24  1  7  0.0000000  0  8G10G12G04G29G25G05G30G02
 114625526.760 7  89318748.49545  21812485.898                    21812494.156
 109138873.739 8  85043355.753 7  20768433.750                    20768440.855
 124236918.698 7  96808114.40644  23641484.164                    23641494.504
 127705763.823 6  99511043.207 6  24301606.086                    24301615.453
 116732452.202 7  90960349.599 7  22213431.172                    22213441.844
 107361651.766 8  83658520.211 8  20430214.398                    20430221.938
 116595258.227 7  90853509.25345  22187337.039                    22187345.320
 110317264.036 8  85961650.55246  20992648.523                    20992654.164
 11  8 24  1  7 30.0000000  0  8G10G12G04G29G25G05G30G02
 114698721.969 7  89375783.71045  21826414.391                    21826422.805
 109144452.454 8  85047702.795 7  20769495.281                    20769502.641
 124317724.123 7  96871079.65644  23656861.258                    23656871.297
 127624400.689 6  99447643.456 6  24286122.813                    24286133.059
 116674433.315 7  90915140.105 7  22202390.820                    22202400.988
 107329877.952 7  83633761.425 8  20424168.063                    20424175.840
 116543564.010 7  90813228.06045  22177500.570                    22177508.648
 110343712.980 8  85982260.11646  20997681.703                    20997687.270
 11  8 24  1  8  0.0000000  0  8G10G12G04G29G25G05G30G02
 114772364.523 7  89433167.51045  21840428.352                    21840437.238
 109150614.452 8  85052504.343 7  20770668.180                    20770675.098
 124398491.246 7  96934015.08944  23672230.914                    23672240.910
 127542972.073 6  99384192.648 6  24270627.719                    24270637.832
 116616899.044 8  90870308.240 7  22191442.898                    22191453.211
 107298668.812 8  83609442.644 8  20418229.125                    20418236.809
 116492412.977 7  90773370.12945  22167766.727                    22167774.781
 110370302.629 7  86002979.31446  21002741.531                    21002747.141
 11  8 24  1  8 30.0000000  0  8G10G12G04G29G25G05G30G02
 114846451.913 7  89490897.95045  21854526.891                    21854534.762
 109157360.200 8  85057760.767 7  20771951.656                    20771958.980
 124479219.677 7  96996920.35444  23687592.820                    23687603.203
 127461478.926 6  99320691.539 6  24255119.258                    24255129.648
 116559851.827 7  90825855.891 7  22180586.828                    22180597.391
 107268025.339 8  83585564.646 8  20412397.664                    20412405.492
 116441807.180 7  90733937.06345  22158136.484                    22158144.984
 110397032.567 8  86023807.83046  21007828.102                    21007833.582
 11  8 24  1  9  0.0000000  0  8G10G12G04G29G25G05G30G02
 114920980.993 8  89548972.54845  21868708.938                    21868717.375
 109164688.742 8  85063471.320 7  20773346.328                    20773353.484
 124559908.035 7  97059794.38744  23702947.977                    23702957.469
 127379921.381 6  99257140.268 6  24239599.711                    24239609.262
 116503292.874 7  90781784.006 7  22169823.406                    22169834.281
 107237947.658 8  83562127.527 8  20406674.156                    20406681.984
 116391747.571 7  90694929.60145  22148610.242                    22148618.980
 110423900.627 8  86044743.97846  21012940.688                    21012946.547
 11  8 24  1  9 30.0000000  0  8G10G12G04G29G25G05G30G02
 114995949.214 7  89607389.33145  21882975.078                    21882983.605
 109172599.899 8  85069635.850 7  20774851.828                    20774858.938
 124640556.041 7  97122636.98043  23718294.289                    23718304.574
 127298300.697 6  99193539.769 6  24224067.852                    24224078.086
 116447224.244 8  90738094.200 7  22159154.102                    22159164.742
 107208436.440 8  83539131.804 8  20401058.117                    20401065.660
 116342235.918 7  90656349.11345  22139188.953                    22139197.613
 110450906.353 8  86065787.38946  21018079.984                    21018085.781
 11  8 24  1 10  0.0000000  0  8G10G12G04G29G25G05G30G02
 115071354.414 7  89666146.59745  21897323.820                    21897332.367
 109181093.974 8  85076254.608 7  20776467.852                    20776475.289
 124721163.119 7  97185447.67044  23733633.375                    23733643.355
 127216617.659 6  99129890.688 6  24208524.070                    24208533.758
 116391648.344 7  90694788.342 7  22148578.641                    22148588.730
 107179493.090 8  83516578.575 8  20395550.766                    20395558.094
 116293274.322 7  90618197.25345  22129871.523                    22129880.250
 110478049.446 8  86086937.84246  21023245.422                    21023251.082
 11  8 24  1 10 30.0000000  0  8G10G12G04G29G25G05G30G02
 115147193.195 7  89725241.73545  21911756.008                    21911764.195
 109190169.608 8  85083326.539 7  20778195.234                    20778202.277
 124801728.086 7  97248225.54744  23748964.805                    23748974.531
 127134872.393 6  99066193.144 6  24192968.578                    24192978.469
 116336566.274 8  90651867.284 7  22138096.867                    22138107.031
 107151117.441 8  83494467.707 8  20390151.031                    20390158.207
 116244863.633 7  90580474.66545  22120659.547                    22120668.188
 110505327.786 8  86108193.69446  21028436.148                    21028441.617
 11  8 24  1 11  0.0000000  0  8G10G12G04G29G25G05G30G02
 115223463.474 7  89784673.11445  21926269.820                    21926278.188
 109199827.163 8  85090851.912 7  20780032.836                    20780040.320
 124882250.835 7  97310970.53643  23764286.938                    23764297.379
 127053066.801 7  99002448.577 6  24177401.406                    24177411.000
 116281980.600 8  90609333.014 7  22127709.453                    22127719.941
 107123310.899 7  83472800.304 8  20384859.313                    20384867.133
 116197006.085 7  90543183.10245  22111552.094                    22111560.625
 110532741.690 8  86129555.17446  21033652.828                    21033658.355
 11  8 24  1 11 30.0000000  0  8G10G12G04G29G25G05G30G02
 115300161.971 7  89844438.16845  21940864.828                    21940873.055
 109210066.290 8  85098830.456 7  20781981.211                    20781988.473
 124962730.508 7  97373681.94043  23779602.438                    23779611.996
 126971201.052 7  98938657.113 6  24161823.266                    24161832.375
 116227892.900 8  90567186.789 7  22117416.617                    22117427.254
 107096073.838 8  83451576.650 8  20379676.203                    20379684.164
 116149702.944 7  90506323.52845  22102550.664                    22102558.746
 110560289.751 8  86151021.19146  21038894.859                    21038900.973
 11  8 24  1 12  0.0000000  0  8G10G12G04G29G25G05G30G02
 115377286.172 7  89904534.94545  21955541.148                    21955549.664
 109220886.782 8  85107262.026 7  20784040.523                    20784047.488
 125043166.699 6  97436359.43443  23794908.758                    23794918.840
 126889276.268 6  98874819.669 6  24146233.023                    24146242.816
 116174305.282 8  90525430.232 7  22107219.484                    22107229.668
 107069407.078 8  83430797.387 8  20374602.141                    20374609.539
 116102955.971 7  90469897.34045  22093655.055                    22093663.281
 110587971.442 8  86172591.34446  21044162.367                    21044168.227
 11  8 24  1 12 30.0000000  0  8G10G12G04G29G25G05G30G02
 115454833.600 7  89964961.49945  21970298.445                    21970306.590
 109232288.052 8  85116146.147 7  20786210.094                    20786217.336
 125123558.698 6  97499002.49443  23810205.742                    23810216.762
 126807293.612 7  98810937.132 6  24130632.672                    24130642.086
 116121219.466 8  90484064.684 7  22097117.609                    22097127.914
 107043310.941 8  83410462.768 8  20369635.898                    20369643.555
 116056766.610 7  90433905.65645  22084865.547                    22084873.828
 110615785.736 8  86194264.81946  21049455.492                    21049461.313
 11  8 24  1 13  0.0000000  0  8G10G12G04G29G25G05G30G02
 115532801.403 7  90025715.63145  21985134.711                    21985143.199
 109244269.632 8  85125482.447 7  20788490.164                    20788496.684
 125203905.626 6  97561610.40643  23825496.648                    23825506.184
 126725253.490 6  98747009.839 6  24115020.867                    24115030.824
 116068637.183 8  90443091.503 7  22087111.250                    22087121.531
 107017785.921 8  83390573.171 8  20364778.742                    20364786.266
 116011136.269 7  90398349.58645  22076182.188                    22076190.715
 110643731.510 8  86216040.74146  21054773.352                    21054779.063
 11  8 24  1 13 30.0000000  0  8G10G12G04G29G25G05G30G02
 115611186.688 7  90086795.07445  22000051.188                    22000059.348
 109256830.947 8  85135270.495 7  20790880.188                    20790888.039
 125284207.043 6  97624182.87543  23840777.242                    23840788.004
 126643156.589 6  98683038.309 6  24099398.563                    24099407.832
 116016560.143 8  90402512.015 7  22077201.547                    22077211.570
 106992832.953 8  83371129.338 8  20360030.141                    20360037.883
 115966066.296 7  90363230.15645  22067605.664                    22067614.535
 110671807.952 8  86237918.48846  21060115.859                    21060121.789
 11  8 24  1 14  0.0000000  0  8G10G12G04G29G25G05G30G02
 115689986.725 7  90148197.69845  22015046.266                    22015054.609
 109269971.911 8  85145510.217 7  20793380.820                    20793388.047
 125364462.499 6  97686719.55143  23856049.195                    23856059.660
 126561004.168 6  98619023.535 6  24083765.078                    24083774.750
 115964990.150 7  90362327.631 7  22067387.977                    22067398.359
 106968451.799 8  83352131.064 8  20355390.406                    20355398.617
 115921558.215 7  90328548.54945  22059135.938                    22059144.676
 110700014.288 8  86259897.44946  21065483.594                    21065489.246
 11  8 24  1 14 30.0000000  0  8G10G12G04G29G25G05G30G02
 115769199.231 7  90209921.71945  22030119.391                    22030128.453
 109283691.639 8  85156200.930 7  20795991.539                    20795998.711
 125444671.680 6  97749220.17643  23871312.102                    23871322.941
 126478797.178 6  98554966.241 6  24068121.844                    24068131.156
 115913929.427 8  90322540.076 7  22057671.867                    22057681.781
 106944643.783 8  83333579.391 8  20350859.688                    20350867.637
 115877613.852 7  90294306.21745  22050773.969                    22050782.258
 110728350.057 8  86281977.26046  21070875.828                    21070881.340
 11  8 24  1 15  0.0000000  0  8G10G12G04G29G25G05G30G02
 115848821.001 7  90271964.65345  22045270.945                    22045279.855
 109297989.487 8  85167342.120 7  20798712.852                    20798719.688
 125524833.548 6  97811683.87043  23886567.102                    23886576.848
 126396536.315 6  98490866.967 6  24052467.438                    24052477.254
 115863379.298 8  90283150.377 7  22048052.086                    22048062.230
 106921408.984 8  83315474.389 8  20346438.648                    20346446.035
 115834234.222 7  90260503.93245  22042518.820                    22042527.152
 110756813.857 8  86304156.83646  21076292.125                    21076297.961
 11  8 24  1 15 30.0000000  0  8G10G12G04G29G25G05G30G02
 115928848.918 7  90334324.06445  22060499.508                    22060508.555
 109312865.285 8  85178933.660 7  20801543.242                    20801550.449
 125604947.370 6  97874110.16043  23901812.313                    23901822.504
 126314222.614 6  98426726.532 6  24036803.320                    24036813.570
 115813341.214 8  90244159.678 7  22038530.430                    22038540.168
 106898747.265 8  83297815.937 8  20342126.313                    20342133.754
 115791420.398 7  90227142.52145  22034371.641                    22034380.086
 110785404.729 8  86326435.43646  21081732.781                    21081738.988
 11  8 24  1 16  0.0000000  0  8G10G12G04G29G25G05G30G02
 116009280.823 7  90396998.27445  22075805.586                    22075813.773
 109328318.265 8  85190974.945 7  20804483.852                    20804490.820
 125685012.983 6  97936498.86243  23917047.734                    23917058.957
 126231856.951 6  98362545.573 6  24021129.781                    24021139.195
 115763817.241 8  90205569.587 7  22029106.242                    22029116.211
 106876659.687 8  83280604.869 8  20337923.273                    20337930.602
 115749174.123 7  90194223.37445  22026332.195                    22026341.301
 110814122.298 8  86348812.75646  21087197.703                    21087203.695
 11  8 24  1 16 30.0000000  0  8G10G12G04G29G25G05G30G02
 116090113.858 7  90459985.04945  22091187.500                    22091195.648
 109344348.007 8  85203465.656 7  20807534.305                    20807541.422
 125765029.849 6  97998849.61543  23932275.430                    23932285.406
 126149440.461 6  98298325.037 6  24005446.914                    24005456.352
 115714809.152 8  90167381.480 7  22019780.375                    22019790.250
 106855146.719 8  83263841.551 8  20333829.188                    20333836.590
 115707496.785 7  90161747.53745  22018401.148                    22018409.875
 110842965.884 8  86371288.27346  21092686.633                    21092692.168
 11  8 24  1 17  0.0000000  0  8G10G12G04G29G25G05G30G02
 116171345.102 7  90523282.10045  22106644.852                    22106653.754
 109360953.532 8  85216405.030 7  20810694.484                    20810701.035
 125844997.387 6  98061161.94843  23947492.836                    23947502.848
 126066974.177 6  98234065.654 6  23989753.719                    23989762.531
 115666318.652 8  90129596.689 7  22010552.734                    22010562.863
 106834208.714 8  83247526.255 8  20329844.750                    20329852.387
 115666389.746 7  90129716.09145  22010578.953                    22010587.340
 110871934.635 8  86393861.32246  21098198.984                    21098204.906
 11  8 24  1 17 30.0000000  0  8G10G12G04G29G25G05G30G02
 116252970.761 7  90586886.49645  22122178.477                    22122186.691
 109378133.666 8  85229792.145 7  20813963.141                    20813970.723
 125924914.482 6  98123434.95543  23962699.711                    23962710.555
 125984458.035 6  98169767.427 6  23974051.492                    23974060.477
 115618346.535 8  90092215.835 7  22001423.734                    22001433.996
 106813845.096 8  83231658.537 8  20325969.820                    20325977.148
 115625853.523 7  90098129.43245  22002865.141                    22002873.496
 110901026.467 8  86416530.28246  21103735.016                    21103740.949
 11  8 24  1 18  0.0000000  0  8G10G12G04G29G25G05G30G02
 116334989.148 7  90650796.92045  22137786.125                    22137794.594
 109395888.859 8  85243627.359 7  20817342.148                    20817349.340
 126004781.338 6  98185668.81843  23977898.039                    23977908.613
 125901894.321 6  98105432.091 6  23958340.047                    23958348.910
 115570895.353 8  90055240.906 7  21992394.070                    21992404.512
 106794057.111 8  83216239.359 8  20322204.328                    20322211.824
 115585890.164 7  90066989.15945  21995260.555                    21995269.313
 110930242.212 8  86439295.79346  21109294.633                    21109300.031
 11  8 24  1 18 30.0000000  0  8G10G12G04G29G25G05G30G02
 116417397.624 7  90715011.30645  22153468.031                    22153476.457
 109414218.212 8  85257909.963 7  20820830.273                    20820837.391
 126084597.532 6  98247863.23143  23993086.688                    23993097.430
 125819283.509 6  98041060.110 6  23942619.625                    23942628.770
 115523966.855 8  90018673.270 7  21983464.039                    21983473.980
 106774845.292 8  83201269.142 8  20318548.086                    20318555.449
 115546501.053 7  90036296.35845  21987765.109                    21987773.445
 110959580.926 8  86462157.13846  21114877.445                    21114883.039
 11  8 24  1 19  0.0000000  0  8G10G12G04G29G25G05G30G02
 116500193.090 7  90779527.24245  22169222.680                    22169231.645
 109433120.596 8  85272639.083 7  20824426.883                    20824434.543
 126164362.296 6  98310017.52043  24008265.648                    24008276.145
 125736626.599 7  97976652.170 6  23926890.070                    23926899.809
 115477562.252 8  89982513.859 7  21974633.391                    21974643.660
 106756209.370 8  83186747.676 8  20315002.266                    20315009.281
 115507687.089 7  90006051.72645  21980379.617                    21980387.406
 110989041.439 8  86485113.38446  21120483.719                    21120489.168
 11  8 24  1 19 30.0000000  0  8G10G12G04G29G25G05G30G02
 116583372.609 7  90844342.43745  22185052.023                    22185060.586
 109452595.331 8  85287814.188 7  20828133.063                    20828140.371
 126244075.064 7  98372131.33843  24023434.281                    24023445.152
 125653924.509 7  97912208.999 6  23911152.750                    23911161.340
 115431683.048 8  89946763.855 7  21965903.070                    21965913.277
 106738149.437 8  83172675.029 8  20311565.281                    20311572.746
 115469449.343 7  89976256.09445  21973102.523                    21973110.660
 111018622.762 8  86508163.77046  21126112.992                    21126118.895
 11  8 24  1 20  0.0000000  0  8G10G12G04G29G25G05G30G02
 116666933.674 7  90909454.93245  22200952.977                    22200961.414
 109472641.480 8  85303434.558 7  20831947.297                    20831954.762
 126323735.609 6  98434204.42943  24038593.398                    24038603.910
 125571178.051 7  97847731.262 6  23895406.445                    23895415.867
 115386331.080 8  89911424.690 7  21957272.578                    21957283.215
 106720666.066 8  83159051.653 8  20308238.250                    20308245.934
 115431789.288 7  89946910.61145  21965936.133                    21965944.758
 111048324.439 8  86531307.93946  21131765.117                    21131770.871
 11  8 24  1 20 30.0000000  0  8G10G12G04G29G25G05G30G02
 116750872.997 7  90974862.17945  22216926.398                    22216934.863
 109493258.343 8  85319499.631 7  20835870.758                    20835878.219
 126403343.005 6  98496236.10743  24053742.453                    24053752.891
 125488388.346 7  97783219.852 6  23879652.344                    23879661.734
 115341507.421 7  89876497.196 7  21948742.914                    21948753.383
 106703758.970 8  83145877.320 8  20305020.961                    20305028.633
 115394707.646 7  89918015.84445  21958880.109                    21958888.168
 111078145.350 8  86554545.02446  21137439.570                    21137445.234
 11  8 24  1 21  0.0000000  0  8G10G12G04G29G25G05G30G02
 116835187.773 7  91040561.98645  22232970.461                    22232978.895
 109514444.883 8  85336008.610 7  20839902.578                    20839909.992
 126482896.938 6  98558226.14443  24068881.211                    24068891.223
 125405556.664 7  97718675.736 6  23863890.078                    23863899.270
 115297213.684 8  89841982.630 7  21940314.055                    21940324.219
 106687428.344 8  83133152.180 8  20301913.188                    20301920.824
 115358205.604 7  89889572.71745  21951933.852                    21951941.855
 111108084.745 8  86577874.43746  21143137.375                    21143142.477
 11  8 24  1 21 30.0000000  0  8G10G12G04G29G25G05G30G02
 116919875.005 7  91106552.02545  22249085.797                    22249094.844
 109536199.985 8  85352960.628 7  20844042.133                    20844049.852
 126562396.848 6  98620174.07943  24084008.859                    24084019.684
 125322683.960 7  97654099.629 6  23848120.117                    23848128.953
 115253451.294 8  89807882.109 7  21931986.859                    21931996.539
 106671674.275 8  83120876.302 8  20298915.195                    20298923.082
 115322284.121 7  89861581.98045  21945097.875                    21945106.199
 111138141.772 8  86601295.50746  21148856.953                    21148862.266
 11  8 24  1 22  0.0000000  0  8G10G12G04G29G25G05G30G02
 117004932.188 7  91172830.30544  22265271.906                    22265280.234
 109558523.354 8  85370355.443 7  20848290.352                    20848297.883
 126641842.492 6  98682079.70143  24099127.609                    24099137.930
 125239771.344 7  97589492.459 6  23832342.461                    23832351.051
 115210221.894 8  89774196.890 7  21923760.078                    21923770.270
 106656497.452 8  83109050.232 8  20296027.539                    20296035.191
 115286944.533 7  89834044.66545  21938372.641                    21938381.238
 111168316.105 8  86624807.98946  21154598.500                    21154604.207
 11  8 24  1 22 30.0000000  0  8G10G12G04G29G25G05G30G02
 117090356.849 7  91239394.96244  22281528.023                    22281536.133
 109581414.295 8  85388192.537 7  20852646.711                    20852654.102
 126721233.944 6  98743943.11843  24114233.938                    24114246.008
 125156820.080 7  97524855.141 6  23816556.641                    23816565.910
 115167527.402 8  89740928.496 7  21915635.148                    21915645.680
 106641897.753 8  83097673.862 8  20293249.305                    20293256.688
 115252188.306 7  89806961.92045  21931759.109                    21931767.512
 111198607.614 8  86648411.76746  21160362.836                    21160368.723
 11  8 24  1 23  0.0000000  0  8G10G12G04G29G25G05G30G02
 117176145.521 7  91306243.25344  22297852.617                    22297861.316
 109604871.305 8  85406470.711 7  20857110.008                    20857117.586
 126800569.999 6  98805763.35643  24129332.469                    24129342.703
 125073830.859 7  97460188.286 6  23800764.414                    23800773.266
 115125368.541 8  89708077.466 7  21907612.602                    21907623.367
 106627874.843 8  83086746.946 8  20290580.672                    20290587.941
 115218015.714 7  89780333.95845  21925256.359                    21925264.695
 111229014.476 8  86672105.43646  21166149.063                    21166154.898
 11  8 24  1 23 30.0000000  0  8G10G12G04G29G25G05G30G02
 117262295.198 7  91373372.84644  22314246.297                    22314254.875
 109628893.385 8  85425189.204 7  20861681.273                    20861688.754
 126879850.345 6  98867540.15743  24144418.656                    24144429.293
 124990804.539 7  97395492.519 6  23784965.094                    23784973.934
 115083746.764 8  89675644.946 7  21899692.289                    21899702.828
 106614428.726 8  83076269.471 8  20288021.992                    20288029.387
 115184427.850 7  89754161.62845  21918864.555                    21918873.242
 111259536.001 8  86695888.44346  21171957.078                    21171962.723
 11  8 24  1 24  0.0000000  0  8G10G12G04G29G25G05G30G02
 117348803.567 7  91440781.94144  22330708.242                    22330717.008
 109653479.659 8  85444347.321 7  20866360.211                    20866367.410
 126959074.909 6  98929273.54043  24159495.219                    24159505.262
 124907742.878 7  97330769.235 6  23769158.461                    23769167.609
 115042663.791 8  89643632.264 7  21891874.813                    21891885.496
 106601559.685 8  83066241.664 8  20285573.242                    20285580.492
 115151426.002 7  89728445.92745  21912584.406                    21912592.699
 111290171.986 8  86719760.65046  21177786.703                    21177792.531
 11  8 24  1 24 30.0000000  0  8G10G12G04G29G25G05G30G02
 117435667.312 7  91508467.94144  22347238.188                    22347246.063
 109678629.155 8  85463944.321 7  20871146.000                    20871153.379
 127038243.139 6  98990963.04743  24174560.102                    24174570.590
 124824646.807 6  97266019.111 6  23753346.258                    23753355.293
 115002120.813 8  89612040.362 7  21884159.523                    21884170.281
 106589267.575 8  83056663.422 8  20283233.711                    20283241.520
 115119010.851 7  89703187.39645  21906416.016                    21906424.594
 111320921.588 8  86743721.38446  21183638.656                    21183644.492
 11  8 24  1 25  0.0000000  0  8G10G12G04G29G25G05G30G02
 117522883.761 7  91576428.78144  22363834.711                    22363843.367
 109704340.942 8  85483979.467 7  20876038.961                    20876046.102
 127117354.794 6  99052608.43643  24189614.648                    24189625.121
 124741517.281 6  97201242.937 6  23737526.688                    23737535.941
 114962119.278 8  89580870.362 7  21876547.563                    21876557.805
 106577552.486 8  83047534.800 8  20281004.680                    20281011.961
 115087183.484 7  89678386.87845  21900359.688                    21900368.145
 111351784.198 8  86767770.18346  21189511.148                    21189517.262
 11  8 24  1 25 30.0000000  0  9G10G12G04G29G25G05G26G30G02
 117610449.847 6  91644662.08844  22380498.469                    22380506.570
 109730613.849 8  85504451.858 7  20881038.242                    20881045.555
 127196408.828 6  99114208.95143  24204658.406                    24204668.887
 124658354.918 7  97136441.149 6  23721701.930                    23721710.645
 114922660.056 8  89550122.939 7  21869038.773                    21869048.961
 106566414.008 8  83038855.495 8  20278885.000                    20278892.391
 130579963.64316 101750689.76253  24848547.469                    24848558.922
 115055944.356 7  89654044.72645  21894415.102                    21894423.207
 111382758.458 8  86791905.97746  21195405.727                    21195411.066
 11  8 24  1 26  0.0000000  0  9G10G12G04G29G25G05G26G30G02
 117698363.737 7  91713166.38644  22397227.828                    22397236.477
 109757447.204 8  85525360.959 7  20886144.555                    20886152.031
 127275406.168 6  99175765.28343  24219690.844                    24219701.484
 124575161.916 7  97071615.519 6  23705870.273                    23705879.879
 114883745.559 8  89519799.971 7  21861633.586                    21861643.809
 106555852.964 8  83030626.131 8  20276874.984                    20276882.207
 130488644.680 6 101679532.25743  24831170.367                    24831182.090
 115025295.368 7  89630162.42945  21888582.648                    21888591.012
 111413845.369 8  86816129.55446  21201320.977                    21201327.145
 11  8 24  1 26 30.0000000  0  9G10G12G04G29G25G05G26G30G02
 117786621.567 7  91781938.69045  22414022.945                    22414031.332
 109784839.094 8  85546705.284 7  20891357.242                    20891364.543
 127354345.355 6  99237276.28843  24234711.820                    24234722.977
 124491939.016 7  97006766.549 6  23690033.289                    23690042.941
 114845376.082 8  89489901.694 7  21854331.961                    21854342.520
 106545868.301 8  83022845.897 8  20274975.156                    20274982.523
 130397183.457 6 101608263.90843  24813765.930                    24813777.152
 114995236.372 7  89606739.85945  21882862.250                    21882870.934
 111445042.582 8  86840439.07546  21207257.664                    21207263.367
 11  8 24  1 27  0.0000000  0  9G10G12G04G29G25G05G26G30G02
 117875220.521 7  91850976.81944  22430882.531                    22430890.973
 109812788.810 7  85568484.279 7  20896675.586                    20896682.758
 127433226.362 6  99298741.94643  24249723.156                    24249733.594
 124408687.326 7  96941895.144 6  23674191.688                    23674200.578
 114807553.127 8  89460429.277 7  21847134.703                    21847144.848
 106536460.150 8  83015514.897 8  20273184.898                    20273192.230
 130305582.886 6 101536887.01043  24796335.313                    24796347.305
 114965768.440 7  89583777.85345  21877254.891                    21877263.035
 111476349.893 7  86864834.38346  21213215.367                    21213220.992
 11  8 24  1 27 30.0000000  0  9G10G12G04G29G25G05G26G30G02
 117964157.736 7  91920278.50845  22447806.219                    22447815.309
 109841294.805 8  85590696.734 7  20902100.063                    20902107.535
 127512048.812 6  99360162.02843  24264722.828                    24264732.824
 124325407.803 7  96877002.044 6  23658343.625                    23658353.191
 114770277.844 8  89431383.619 7  21840041.078                    21840051.348
 106527628.336 8  83008632.974 8  20271504.180                    20271511.980
 130213845.896 6 101465403.76342  24778878.117                    24778889.668
 114936892.353 7  89561277.01945  21871760.023                    21871768.297
 111507766.427 8  86889314.80846  21219193.359                    21219199.172
 11  8 24  1 28  0.0000000  0  9G10G12G04G29G25G05G26G30G02
 118053430.512 7  91989841.68644  22464794.953                    22464803.246
 109870356.428 8  85613342.153 7  20907630.359                    20907637.730
 127590812.319 6  99421536.12043  24279711.023                    24279721.422
 124242101.716 7  96812088.223 6  23642491.086                    23642500.926
 114733551.592 8  89402765.761 7  21833052.414                    21833062.930
 106519372.602 8  83002199.960 8  20269933.000                    20269940.418
 130121975.240 6 101393816.39442  24761395.656                    24761406.477
 114908608.957 7  89539238.02545  21866377.867                    21866386.070
 111539292.054 8  86913880.23246  21225192.484                    21225198.496
 11  8 24  1 28 30.0000000  0  9G10G12G04G29G25G05G26G30G02
 118143035.528 7  92059663.74944  22481845.617                    22481854.520
 109899971.899 8  85636419.143 7  20913266.180                    20913273.453
 127669516.336 6  99482863.93243  24294687.828                    24294698.270
 124158770.353 7  96747154.707 6  23626634.070                    23626642.883
 114697375.155 8  89374576.341 7  21826168.578                    21826178.582
 106511692.135 8  82996215.199 8  20268471.586                    20268478.805
 130029973.526 5 101322126.93542  24743887.156                    24743899.965
 114880918.502 7  89517661.06745  21861108.492                    21861116.551
 111570925.693 8  86938529.83746  21231212.445                    21231218.340
 11  8 24  1 29  0.0000000  0  9G10G12G04G29G25G05G26G30G02
 118232970.484 7  92129742.89944  22498960.273                    22498968.535
 109930140.515 8  85659927.152 7  20919006.852                    20919014.309
 127748160.858 6  99544145.33643  24309653.688                    24309663.660
 124075414.986 7  96682202.474 6  23610772.164                    23610780.984
 114661750.214 8  89346816.647 7  21819389.086                    21819399.352
 106504587.585 8  82990679.204 8  20267119.602                    20267126.938
 129937844.008 5 101250337.75842  24726356.117                    24726368.027
 114853822.312 7  89496547.16245  21855952.508                    21855959.863
 111602667.060 8  86963263.39046  21237252.633                    21237258.703
 11  8 24  1 29 30.0000000  0  9G10G12G04G29G25G05G26G30G02
 118323232.138 7  92200076.61644  22516136.563                    22516144.734
 109960860.690 8  85683864.949 7  20924852.711                    20924860.250
 127826745.399 6  99605380.00043  24324606.891                    24324617.809
 123992036.544 7  96617232.288 6  23594905.898                    23594914.254
 114626677.672 8  89319487.398 7  21812715.023                    21812725.211
 106498058.212 8  82985591.394 8  20265877.063                    20265884.715
 129845589.159 5 101178451.02142  24708801.172                    24708812.910
 114827320.740 7  89475896.59945  21850909.594                    21850917.199
 111634515.200 8  86988080.13846  21243313.180                    21243318.711
 11  8 24  1 30  0.0000000  0  9G10G12G04G29G25G05G26G30G02
 118413817.473 7  92270662.54944  22533374.664                    22533383.051
 109992131.024 8  85708231.441 7  20930803.352                    20930810.535
 127905269.676 6  99666567.68943  24339550.297                    24339560.547
 123908636.306 7  96552245.099 6  23579034.828                    23579043.926
 114592158.548 8  89292589.384 7  21806146.570                    21806156.801
 106492103.674 8  82980951.515 8  20264744.133                    20264751.453
 129753211.930 5 101106468.95842  24691220.727                    24691233.434
 114801414.363 7  89455709.82245  21845979.719                    21845987.480
 111666469.514 8  87012979.61446  21249393.977                    21249399.270
 11  8 24  1 30 30.0000000  0  9G10G12G04G29G25G05G26G30G02
 118504723.848 7  92341498.66244  22550673.359                    22550681.613
 110023950.718 8  85733026.008 7  20936858.492                    20936865.730
 127983733.668 6  99727708.42242  24354481.328                    24354491.969
 123825215.772 7  96487242.104 6  23563160.500                    23563169.574
 114558194.289 8  89266123.737 7  21799683.383                    21799693.430
 106486724.328 8  82976759.829 8  20263720.492                    20263727.246
 129660715.54915 101034394.03352  24673618.727                    24673631.816
 114776104.175 7  89435987.59945  21841162.805                    21841171.070
 111698529.624 8  87037961.52646  21255494.859                    21255500.727
 11  8 24  1 31  0.0000000  0  9G10G12G04G29G25G05G26G30G02
 118595948.263 6  92412582.58444  22568032.484                    22568041.109
 110056317.940 8  85758247.209 7  20943017.766                    20943024.801
 128062136.921 6  99788801.82543  24369401.164                    24369411.629
 123741776.144 7  96422224.239 6  23547282.484                    23547291.254
 114524785.783 8  89240091.125 7  21793325.750                    21793335.805
 106481919.043 8  82973015.468 8  20262805.852                    20262812.809
 129568102.549 6 100962228.20243  24655996.078                    24656008.047
 114751390.561 7  89416730.24545  21836460.516                    21836468.605
 111730694.841 7  87063025.33946  21261615.898                    21261621.199
 11  8 24  1 31 30.0000000  0  9G10G12G04G29G25G05G26G30G02
 118687487.643 6  92483911.92444  22585451.977                    22585460.273
 110089231.510 8  85783894.150 7  20949281.188                    20949288.258
 128140478.972 6  99849847.52643  24384309.172                    24384319.430
 123658318.571 7  96357192.393 6  23531400.523                    23531409.035
 114491933.991 8  89214492.322 7  21787074.195                    21787084.816
 106477687.627 8  82969718.268 8  20262000.789                    20262008.195
 129475375.967 6 100889973.88543  24638350.344                    24638362.563
 114727274.025 7  89397938.13445  21831871.070                    21831879.262
 111762964.527 8  87088170.56746  21267756.492                    21267762.070
 11  8 24  1 32  0.0000000  0  9G10G12G04G29G25G05G26G30G02
 118779339.372 6  92555484.65144  22602930.633                    22602939.457
 110122689.766 8  85809965.512 7  20955648.180                    20955654.930
 128218759.616 6  99910845.38843  24399205.203                    24399216.223
 123574844.238 6  96292147.508 6  23515516.445                    23515524.992
 114459640.043 8  89189328.207 7  21780928.852                    21780938.719
 106474029.732 8  82966867.981 8  20261304.742                    20261311.977
 129382538.523 6 100817633.15443  24620684.672                    24620695.871
 114703755.144 7  89379611.72845  21827395.625                    21827403.430
 111795338.024 7  87113396.67446  21273916.719                    21273922.598
 11  8 24  1 32 30.0000000  0  9G10G12G04G29G25G05G26G30G02
 118871500.375 6  92627298.39244  22620468.383                    22620476.617
 110156691.740 8  85836460.547 7  20962118.195                    20962125.676
 128296978.629 6  99971795.19943  24414089.547                    24414100.273
 123491354.438 6  96227090.589 6  23499627.750                    23499637.379
 114427904.730 7  89164599.382 7  21774890.094                    21774900.082
 106470944.761 8  82964464.121 8  20260717.836                    20260724.977
 129289593.219 6 100745208.37643  24602997.250                    24603008.402
 114680834.282 7  89361751.31545  21823033.938                    21823042.199
 111827814.875 8  87138703.32746  21280097.055                    21280102.402
 11  8 24  1 33  0.0000000  0  9G10G12G04G29G25G05G26G30G02
 118963967.602 6  92699350.75244  22638064.477                    22638072.828
 110191235.481 8  85863377.750 7  20968691.602                    20968698.844
 128375135.576 6 100032696.64343  24428962.766                    24428973.586
 123407850.394 6  96162022.602 6  23483738.320                    23483747.059
 114396729.056 7  89140306.648 7  21768957.430                    21768967.469
 106468432.091 7  82962506.213 8  20260239.336                    20260246.754
 129196542.884 6 100672701.74243  24585290.508                    24585301.410
 114658511.985 7  89344357.31545  21818786.016                    21818794.352
 111860394.088 8  87164089.73546  21286296.406                    21286302.168
 11  8 24  1 33 30.0000000  0  9G10G12G04G29G25G05G26G30G02
 119056738.450 7  92771639.68744  22655717.766                    22655726.973
 110226319.882 8  85890716.232 7  20975368.008                    20975375.113
 128453230.272 6 100093549.65443  24443824.148                    24443833.793
 123324333.691 6  96096944.743 6  23467845.430                    23467854.461
 114366114.105 8  89116450.845 7  21763131.531                    21763141.613
 106466491.664 8  82960994.209 8  20259870.219                    20259877.902
 129103390.576 6 100600115.65143  24567563.836                    24567574.957
 114636788.731 7  89327430.08845  21814652.156                    21814660.586
 111893075.293 7  87189555.62046  21292515.398                    21292521.500
 11  8 24  1 34  0.0000000  0  9G10G12G04G29G25G05G26G30G02
 119149810.001 7  92844162.93744  22673429.094                    22673437.727
 110261943.492 8  85918474.882 7  20982147.117                    20982154.410
 128531262.758 6 100154354.14443  24458673.125                    24458683.875
 123240805.297 7  96031857.784 6  23451950.484                    23451959.500
 114336060.822 7  89093032.701 7  21757412.523                    21757422.988
 106465122.848 8  82959927.622 8  20259609.609                    20259616.988
 129010139.187 6 100527452.32444  24549818.883                    24549830.023
 114615665.036 7  89310970.07145  21810632.406                    21810640.836
 111925858.261 7  87215100.80146  21298753.703                    21298759.293
 11  8 24  1 34 30.0000000  0  9G10G12G04G29G25G05G26G30G02
 119243178.941 6  92916917.92844  22691196.789                    22691205.332
 110298104.599 8  85946652.357 7  20989028.164                    20989035.629
 128609232.471 7 100215109.73343  24473509.813                    24473520.625
 123157266.606 6  95966762.796 6  23436053.383                    23436062.695
 114306570.020 8  89070052.850 7  21751800.781                    21751810.383
 106464325.059 7  82959305.999 8  20259457.742                    20259465.172
 128916791.792 6 100454714.19943  24532054.836                    24532066.406
 114595141.186 7  89294977.44645  21806726.992                    21806735.371
 111958741.713 7  87240724.27146  21305011.016                    21305016.543
 11  8 24  1 35  0.0000000  0  9G10G12G04G29G25G05G26G30G02
 119336842.849 6  92989902.76344  22709020.695                    22709028.516
 110334801.662 8  85975247.460 7  20996011.219                    20996018.633
 128687139.395 6 100275816.40643  24488335.023                    24488345.922
 123073719.091 7  95901660.945 6  23420155.000                    23420163.879
 114277642.667 8  89047512.056 7  21746296.227                    21746305.895
 106464097.876 8  82959128.994 8  20259414.703                    20259421.816
 128823351.221 6 100381903.46443  24514274.102                    24514285.023
 114575217.610 8  89279452.57845  21802935.352                    21802943.891
 111991725.531 7  87266425.95746  21311287.969                    21311293.816
 11  8 24  1 35 30.0000000  0  9G10G12G04G29G25G05G26G30G02
 119430798.929 7  93063115.27044  22726899.477                    22726908.238
 110372033.579 8  86004259.329 7  21003096.461                    21003103.867
 128764983.237 6 100336473.91343  24503148.828                    24503158.652
 122990164.028 7  95836553.169 6  23404254.602                    23404263.531
 114249279.629 8  89025410.985 7  21740898.953                    21740908.949
 106464440.708 8  82959396.154 8  20259479.836                    20259486.793
 128729820.630 6 100309022.58643  24496476.094                    24496486.688
 114555894.761 8  89264395.81345  21799258.359                    21799267.070
 112024809.670 7  87292205.80446  21317583.648                    21317589.156
 11  8 24  1 36  0.0000000  0  9G10G12G04G29G25G05G26G30G02
 119525044.042 6  93136552.98744  22744834.320                    22744842.863
 110409798.491 8  86033686.519 7  21010282.781                    21010290.270
 128842763.812 6 100397082.13543  24517949.563                    24517960.484
 122906602.677 7  95771440.508 6  23388353.695                    23388362.336
 114221481.832 7  89003750.365 7  21735608.914                    21735619.168
 106465352.991 7  82960107.059 8  20259653.203                    20259660.445
 128636202.946 6 100236073.86043  24478660.063                    24478671.668
 114537173.006 8  89249807.42845  21795695.984                    21795704.422
 112057993.290 7  87318063.17146  21323898.063                    21323903.926
 11  8 24  1 36 30.0000000  0  9G10G12G04G29G25G05G26G30G02
 119619575.231 6  93210213.61444  22762822.664                    22762831.625
 110448094.567 8  86063527.612 7  21017569.898                    21017577.391
 128920480.857 6 100457640.85443  24532739.266                    24532749.633
 122823036.433 7  95706324.019 6  23372451.680                    23372460.559
 114194249.807 8  88982530.611 7  21730426.891                    21730437.180
 106466833.811 8  82961260.968 8  20259934.773                    20259942.375
 128542501.135 6 100163059.54343  24460829.719                    24460841.082
 114519052.286 8  89235687.39045  21792247.906                    21792255.852
 112091275.580 7  87343997.41946  21330231.594                    21330237.000
 11  8 24  1 37  0.0000000  0  9G10G12G04G29G25G05G26G30G02
 119714389.561 7  93284094.87444  22780864.828                    22780874.195
 110486920.552 8  86093781.615 7  21024958.891                    21024966.484
 128998134.035 6 100518149.80043  24547515.336                    24547526.379
 122739466.673 7  95641204.775 6  23356548.656                    23356557.836
 114167584.513 8  88961752.468 7  21725352.625                    21725362.805
 106468882.523 8  82962857.395 8  20260325.117                    20260332.164
 128448718.140 6 100089981.97042  24442983.266                    24442994.035
 114501533.151 8  89222036.11045  21788913.977                    21788921.969
 112124655.986 7  87370008.11146  21336583.906                    21336589.699
 11  8 24  1 37 30.0000000  0  9G10G12G04G29G25G05G26G30G02
 119809484.314 6  93358194.63844  22798961.617                    22798970.199
 110526274.745 8  86124447.209 7  21032447.398                    21032455.195
 129075723.645 6 100578609.21543  24562280.555                    24562290.559
 122655894.776 6  95576083.885 6  23340645.539                    23340654.137
 114141486.865 8  88941416.643 7  21720386.453                    21720396.383
 106471498.993 8  82964896.239 8  20260822.891                    20260830.078
 128354857.140 6 100016843.64442  24425121.867                    24425132.570
 114484615.899 8  89208853.84045  21785694.898                    21785702.961
 112158134.249 8  87396095.06546  21342954.305                    21342959.738
 11  8 24  1 38  0.0000000  0  9G10G12G04G29G25G05G26G30G02
 119904856.241 6  93432510.38144  22817109.969                    22817119.063
 110566155.227 8  86155522.901 7  21040036.703                    21040044.039
 129153249.208 6 100639018.72443  24577033.383                    24577043.824
 122572322.073 7  95510962.360 6  23324742.078                    23324751.152
 114115957.363 8  88921523.536 7  21715528.016                    21715538.254
 106474682.139 8  82967376.643 8  20261428.625                    20261436.246
 128260921.253 6  99943647.02343  24407245.961                    24407257.723
 114468300.549 8  89196140.59545  21782590.383                    21782598.242
 112191709.639 8  87422257.69346  21349343.914                    21349348.852
 11  8 24  1 38 30.0000000  0  9G10G12G04G29G25G05G26G30G02
 120000502.756 6  93507040.09844  22835311.039                    22835319.754
 110606560.422 8  86187007.463 7  21047725.445                    21047732.922
 129230710.494 6 100699378.18643  24591773.359                    24591784.129
 122488750.127 6  95445841.384 6  23308838.664                    23308847.781
 114090996.794 8  88902073.750 7  21710778.547                    21710788.824
 106478431.254 8  82970298.066 8  20262141.836                    20262149.098
 128166913.352 6  99870394.22942  24389356.742                    24389368.289
 114452587.356 8  89183896.55045  21779599.828                    21779607.957
 112225381.723 7  87448495.67246  21355751.492                    21355756.973
 11  8 24  1 39  0.0000000  0  9G10G12G04G29G25G05G26G30G02
 120096420.891 6  93581781.46644  22853562.961                    22853572.094
 110647488.814 8  86218899.710 7  21055514.094                    21055521.098
 129308107.423 6 100759687.44843  24606501.781                    24606512.902
 122405180.115 7  95380721.934 6  23292935.805                    23292944.441
 114066605.762 8  88883067.754 7  21706137.188                    21706147.320
 106482745.444 8  82973659.802 8  20262962.875                    20262970.246
 128072836.456 6  99797087.69342  24371454.758                    24371465.840
 114437476.409 8  89172121.79145  21776724.547                    21776732.914
 112259150.048 7  87474808.64746  21362177.086                    21362182.961
 11  8 24  1 39 30.0000000  0  9G10G12G04G29G25G05G26G30G02
 120192607.647 6  93656732.15744  22871866.742                    22871876.004
 110688938.483 8  86251198.144 7  21063401.391                    21063409.328
 129385439.582 6 100819946.28043  24621216.602                    24621228.273
 122321613.651 7  95315605.229 6  23277033.961                    23277042.238
 114042784.963 8  88864506.110 7  21701603.922                    21701614.242
 106487624.044 8  82977461.342 8  20263891.047                    20263898.566
 127978693.694 6  99723729.79643  24353540.070                    24353551.391
 114422967.823 8  89160816.40645  21773963.539                    21773971.715
 112293013.993 7  87501196.12346  21368621.398                    21368627.172
 11  8 24  1 40  0.0000000  0  9G10G12G04G29G25G05G26G30G02
 120289060.392 7  93731890.11544  22890221.578                    22890230.547
 110730907.630 8  86283901.371 7  21071388.008                    21071395.289
 129462706.900 6 100880154.57443  24635921.313                    24635931.832
 122238051.970 7  95250492.262 6  23261132.195                    23261140.926
 114019535.039 8  88846389.311 7  21697179.773                    21697189.758
 106493066.146 8  82981701.968 8  20264926.977                    20264934.250
 127884488.249 6  99650323.09242  24335613.227                    24335624.066
 114409061.740 8  89149980.50945  21771317.414                    21771325.449
 112326973.407 7  87527657.98746  21375083.695                    21375089.234
 11  8 24  1 40 30.0000000  0  9G10G12G04G29G25G05G26G30G02
 120385775.817 7  93807252.74244  22908626.023                    22908634.836
 110773394.497 8  86317008.008 7  21079473.063                    21079480.676
 129539909.152 6 100940312.18943  24650611.820                    24650623.520
 122154496.690 7  95185384.283 6  23245232.383                    23245240.504
 113996856.485 8  88828717.724 7  21692864.266                    21692874.063
 106499070.839 8  82986380.974 8  20266069.352                    20266076.918
 127790223.080 6  99576869.82143  24317674.602                    24317685.398
 114395758.032 8  89139613.99145  21768785.836                    21768793.656
 112361027.373 7  87554193.53846  21381563.797                    21381569.461
 11  8 24  1 41  0.0000000  0  9G10G12G04G29G25G05G26G30G02
 120482751.350 7  93882818.05844  22927080.055                    22927088.793
 110816397.553 8  86350516.873 7  21087655.945                    21087663.793
 129617046.619 6 101000419.23342  24665291.258                    24665301.910
 122070949.138 7  95120282.331 6  23229333.055                    23229342.168
 113974750.013 8  88811491.927 7  21688657.320                    21688667.754
 106505637.764 8  82991498.089 8  20267319.102                    20267326.641
 127695901.239 6  99503372.42443  24299726.586                    24299736.594
 114383056.998 8  89129717.09245  21766368.719                    21766377.242
 112395175.671 8  87580802.59246  21388062.039                    21388067.883
 11  8 24  1 41 30.0000000  0  8G10G12G29G25G05G26G30G02
 120579984.929 7  93958584.46344  22945582.820                    22945591.258
 110859916.133 8  86384427.448 7  21095937.555                    21095944.828
 121987411.892 6  95055188.416 6  23213437.109                    23213445.730
 113953217.118 8  88794713.070 7  21684559.930                    21684569.902
 106512766.704 8  82997053.129 8  20268675.586                    20268682.926
 127601526.907 6  99429834.15143  24281767.047                    24281778.258
 114370959.485 8  89120290.47345  21764066.516                    21764074.574
 112429418.928 7  87607485.64046  21394578.047                    21394584.348
 11  8 24  1 42  0.0000000  0  8G10G12G29G25G05G26G30G02
 120677473.154 7  94034549.31444  22964134.266                    22964143.199
 110903946.783 8  86418737.040 7  21104315.969                    21104323.773
 121903885.311 6  94990102.807 6  23197541.695                    23197550.508
 113932257.659 8  88778381.045 7  21680571.547                    21680581.387
 106520456.258 8  83003045.009 8  20270139.063                    20270146.445
 127507102.396 6  99356256.73443  24263799.539                    24263809.727
 114359464.795 8  89111333.58545  21761879.352                    21761887.598
 112463755.938 8  87634241.75146  21401112.711                    21401118.496
 11  8 24  1 42 30.0000000  0  8G10G12G29G25G05G26G30G02
 120775212.413 7  94110709.74844  22982734.258                    22982741.809
 110948487.507 8  86453444.074 7  21112792.273                    21112799.695
 121820370.537 6  94925026.396 6  23181650.258                    23181658.609
 113911871.485 8  88762495.739 7  21676691.844                    21676702.168
 106528704.602 8  83009472.311 8  20271708.727                    20271716.063
 127412630.429 7  99282642.37443  24245821.773                    24245831.895
 114348572.386 8  89102845.99845  21759806.281                    21759814.781
 112498185.615 8  87661070.07946  21407664.148                    21407669.680
 11  8 24  1 43  0.0000000  0  8G10G12G29G25G05G26G30G02
 120873200.001 7  94187063.70244  23001379.719                    23001388.539
 110993536.592 8  86488547.248 7  21121364.656                    21121372.285
 121736869.586 6  94859960.777 6  23165760.242                    23165768.301
 113892059.313 8  88747057.699 7  21672921.953                    21672932.227
 106537511.101 8  83016334.534 8  20273384.398                    20273391.836
 127318114.133 7  99208993.43643  24227835.680                    24227846.035
 114338282.252 8  89094827.72745  21757848.367                    21757856.348
 112532707.735 8  87687970.44546  21414233.594                    21414238.973
 11  8 24  1 43 30.0000000  0  8G10G12G29G25G05G26G30G02
 120971433.348 7  94263609.14344  23020073.109                    23020081.430
 111039092.543 8  86524045.380 7  21130033.758                    21130041.168
 121653383.699 7  94794906.879 6  23149872.945                    23149882.145
 113872821.822 8  88732067.473 7  21669261.234                    21669271.492
 106546875.057 8  83023631.137 8  20275166.203                    20275173.645
 127223556.839 6  99135312.53843  24209841.438                    24209852.199
 114328594.557 8  89087278.88945  21756004.758                    21756012.766
 112567322.172 8  87714942.73846  21420820.547                    21420826.539
 11  8 24  1 44  0.0000000  0  8G10G12G29G25G05G26G30G02
 121069909.387 6  94340343.70944  23038812.188                    23038821.141
 111085153.406 8  86559936.942 7  21138798.727                    21138805.973
 121569914.373 7  94729865.904 6  23133989.508                    23133997.973
 113854159.232 8  88717525.212 7  21665709.781                    21665719.637
 106556795.465 8  83031361.336 8  20277054.133                    20277061.316
 127128962.004 6  99061602.39943  24191840.539                    24191851.402
 114319508.955 8  89080199.21245  21754275.844                    21754284.324
 112602028.099 8  87741986.32546  21427424.727                    21427430.570
 11  8 24  1 44 30.0000000  0  8G10G12G29G25G05G26G30G02
 121168625.208 6  94417265.09544  23057597.508                    23057606.199
 111131717.113 8  86596220.339 7  21147659.602                    21147667.305
 121486463.383 7  94664839.202 6  23118109.703                    23118118.199
 113836072.198 8  88703431.438 7  21662267.648                    21662277.574
 106567271.291 8  83039524.335 8  20279047.305                    20279054.449
 127034332.460 6  98987865.22443  24173833.484                    24173843.688
 114311025.568 8  89073588.79145  21752661.438                    21752669.988
 112636825.416 8  87769101.12246  21434046.500                    21434052.078
 11  8 24  1 45  0.0000000  0  8G10G12G29G25G05G26G30G02
 121267577.978 6  94494371.13144  23076427.258                    23076436.465
 111178781.811 8  86632894.111 7  21156615.500                    21156623.113
 121403032.108 7  94599827.886 6  23102232.797                    23102241.613
 113818560.996 8  88689786.359 7  21658935.594                    21658945.621
 106578301.513 8  83048119.318 8  20281146.406                    20281153.707
 126939671.517 6  98914103.58443  24155819.289                    24155830.047
 114303144.092 8  89067447.39545  21751161.703                    21751169.668
 112671713.628 8  87796286.75846  21440685.508                    21440690.953
 11  8 24  1 45 30.0000000  0  8G10G12G29G25G05G26G30G02
 121366765.198 7  94571659.83844  23095302.125                    23095311.016
 111226345.859 8  86669956.997 7  21165667.008                    21165674.363
 121319621.959 7  94534833.014 6  23086360.578                    23086369.242
 113801626.024 8  88676590.293 7  21655712.672                    21655723.527
 106589885.305 8  83057145.661 8  20283350.867                    20283358.184
 126844982.631 6  98840320.17643  24137800.805                    24137811.355
 114295864.390 8  89061774.89545  21749776.313                    21749784.531
 112706692.557 8  87823543.08046  21447341.773                    21447347.711
 11  8 24  1 46  0.0000000  0  8G10G12G29G25G05G26G30G02
 121466183.717 6  94649128.80043  23114220.938                    23114229.762
 111274406.823 8  86707407.078 7  21174812.766                    21174820.074
 121236235.034 7  94469856.243 6  23070492.820                    23070501.211
 113785267.672 8  88663843.535 7  21652599.906                    21652610.176
 106602021.436 8  83066602.391 8  20285660.164                    20285668.020
 126750268.580 6  98766517.12643  24119776.703                    24119787.418
 114289186.208 8  89056571.12645  21748505.383                    21748513.586
 112741761.674 8  87850869.68646  21454015.211                    21454020.613
 11  8 24  1 46 30.0000000  0  8G10G12G29G25G05G26G30G02
 121565830.558 6  94726775.66144  23133183.141                    23133191.898
 111322962.543 8  86745242.675 7  21184052.477                    21184059.891
 121152872.321 7  94404898.335 6  23054629.273                    23054637.488
 113769485.957 8  88651546.102 7  21649596.914                    21649606.637
 106614708.611 8  83076488.512 8  20288074.656                    20288082.254
 126655532.831 6  98692697.15543  24101749.609                    24101759.711
 114283109.073 8  89051835.70245  21747348.883                    21747356.832
 112776920.570 8  87878266.23946  21460705.203                    21460711.402
 11  8 24  1 47  0.0000000  0  8G10G12G29G25G05G26G30G02
 121665703.117 6  94804598.40644  23152188.156                    23152197.305
 111372011.149 8  86783462.352 7  21193385.703                    21193393.250
 121069535.449 7  94339960.549 6  23038770.055                    23038779.012
 113754281.456 8  88639698.454 7  21646703.305                    21646713.664
 106627946.016 8  83086803.380 8  20290593.438                    20290600.828
 126560778.612 6  98618862.82643  24083718.633                    24083728.781
 114277632.948 8  89047568.58745  21746306.875                    21746315.129
 112812169.011 8  87905732.57945  21467413.117                    21467418.629
 11  8 24  1 47 30.0000000  0  8G10G12G29G25G05G26G30G02
 121765798.234 7  94882594.57244  23171235.383                    23171244.852
 111421550.452 8  86822064.394 7  21202813.008                    21202820.715
 120986225.827 7  94275044.007 6  23022917.078                    23022925.621
 113739653.973 8  88628300.416 7  21643920.141                    21643930.441
 106641731.804 8  83097545.564 8  20293217.086                    20293224.367
 126466008.750 6  98545016.29543  24065683.781                    24065694.438
 114272757.102 8  89043769.23245  21745379.148                    21745387.281
 112847505.933 8  87933267.85046  21474137.531                    21474142.906
 11  8 24  1 48  0.0000000  0  8G10G12G29G25G05G26G30G02
 121866113.121 7  94960761.97944  23190325.164                    23190333.848
 111471578.713 8  86861047.441 7  21212332.883                    21212340.559
 120902945.365 7  94210150.169 6  23007069.508                    23007077.742
 113725604.068 8  88617352.448 7  21641246.141                    21641256.426
 106656065.576 8  83108714.751 8  20295944.500                    20295952.078
 126371227.060 6  98471160.52743  24047648.461                    24047657.734
 114268481.484 8  89040437.58245  21744565.609                    21744573.543
 112882931.693 8  87960872.33846  21480878.438                    21480884.383
 11  8 24  1 48 30.0000000  0  8G10G12G29G25G05G26G30G02
 121966645.180 7  95039098.61944  23209455.891                    23209464.723
 111522094.063 8  86900410.044 7  21221945.625                    21221953.301
 120819695.695 7  94145280.340 6  22991227.766                    22991235.797
 113712132.006 8  88606854.735 7  21638682.523                    21638693.012
 106670946.100 8  83120309.978 8  20298776.109                    20298783.383
 126276436.494 6  98397297.84243  24029609.695                    24029619.848
 114264805.733 8  89037573.35945  21743866.094                    21743873.941
 112918445.851 7  87988545.71346  21487636.750                    21487642.570
 11  8 24  1 49  0.0000000  0  8G10G12G29G25G05G26G30G02
 122067391.631 7  95117602.31144  23228627.563                    23228635.781
 111573093.805 8  86940150.092 7  21231651.180                    21231658.156
 120736478.750 7  94080436.008 6  22975391.586                    22975400.285
 113699238.068 8  88596807.515 7  21636228.836                    21636239.250
 106686372.492 8  83132330.552 8  20301711.609                    20301718.781
 126181640.500 6  98323430.94343  24011570.063                    24011580.559
 114261729.629 7  89035176.39445  21743280.852                    21743288.938
 112954048.321 8  88016287.90246  21494412.336                    21494417.891
 11  8 24  1 49 30.0000000  0  8G10G12G29G25G05G26G30G02
 122168349.370 7  95196270.68944  23247839.313                    23247847.750
 111624576.149 8  86980266.195 7  21241447.750                    21241455.242
 120653295.720 7  94015618.088 6  22959562.813                    22959570.656
 113686922.165 8  88587210.720 7  21633885.453                    21633895.441
 106702342.872 8  83144775.012 8  20304750.602                    20304757.914
 126086842.230 6  98249562.25243  23993531.094                    23993540.840
 114259252.542 7  89033246.19345  21742809.719                    21742817.750
 112989738.544 8  88044098.47246  21501203.383                    21501209.164
 11  8 24  1 50  0.0000000  0  8G10G12G29G25G05G26G30G02
 122269515.643 7  95275101.52244  23267090.039                    23267098.805
 111676538.761 8  87020756.529 7  21251335.750                    21251342.727
 120570148.280 7  93950827.897 6  22943740.406                    22943748.301
 113675184.460 8  88578064.458 7  21631651.922                    21631661.945
 106718856.275 8  83157642.617 8  20307893.352                    20307900.434
 125992044.983 6  98175694.37443  23975492.258                    23975501.293
 114257373.890 7  89031782.30745  21742452.344                    21742460.164
 113025516.024 8  88071977.02846  21508011.813                    21508017.453
 11  8 24  1 50 30.0000000  0  8G10G12G29G25G05G26G30G02
 122370887.666 7  95354092.67944  23286380.750                    23286389.457
 111728979.534 8  87061619.457 7  21261314.898                    21261322.211
 120487038.016 7  93886066.669 6  22927925.039                    22927932.773
 113664025.099 8  88569368.858 7  21629528.102                    21629538.137
 106735911.543 8  83170932.453 8  20311138.813                    20311145.867
 125897252.200 6  98101829.96143  23957452.805                    23957463.012
 114256093.307 7  89030784.45845  21742208.141                    21742216.461
 113061380.673 8  88099923.50846  21514836.781                    21514842.332
 11  8 24  1 51  0.0000000  0  8G10G12G29G25G05G26G30G02
 122472462.378 7  95433241.79444  23305709.680                    23305718.910
 111781896.228 8  87102853.241 7  21271384.484                    21271391.926
 120403966.418 7  93821335.548 6  22912117.031                    22912125.215
 113653443.925 8  88561123.799 7  21627514.781                    21627525.086
 106753506.731 8  83184643.002 8  20314487.188                    20314494.262
 125802466.899 6  98027971.37143  23939416.633                    23939425.781
 114255410.131 7  89030252.11145  21742078.258                    21742086.641
 113097331.825 8  88127937.39546  21521677.906                    21521683.695
 11  8 24  1 51 30.0000000  0  8G10G12G29G25G05G26G30G02
 122574237.155 7  95512546.78843  23325076.945                    23325085.750
 111835287.064 8  87144456.466 7  21281544.695                    21281552.191
 120320935.360 7  93756636.021 6  22896316.688                    22896324.727
 113643441.172 8  88553329.450 7  21625611.063                    21625621.281
 106771641.025 8  83198773.643 8  20317937.742                    20317944.859
 125707692.434 6  97954121.27143  23921380.297                    23921390.727
 114255323.940 7  89030184.95445  21742061.938                    21742069.895
 113133369.362 8  88156018.59146  21528535.367                    21528540.980
 11  8 24  1 52  0.0000000  0  8G10G12G29G25G05G26G30G02
 122676209.474 7  95592005.74643  23344481.469                    23344490.355
 111889149.111 8  87186426.880 7  21291794.539                    21291801.688
 120237946.493 7  93691969.380 6  22880523.906                    22880532.906
 113634016.738 8  88545985.747 7  21623817.688                    21623828.203
 106790313.202 8  83213323.410 8  20321491.031                    20321497.988
 125612932.187 6  97880282.21643  23903348.906                    23903358.957
 114255834.054 7  89030582.44745  21742158.953                    21742166.801
 113169492.889 8  88184166.78946  21535409.773                    21535415.434
 11  8 24  1 52 30.0000000  0  8G10G12G29G25G05G26G30G02
 122778376.388 7  95671616.31243  23363922.930                    23363932.090
 111943480.734 7  87228763.204 7  21302133.367                    21302140.852
 120155001.956 7  93627337.298 6  22864740.680                    22864748.742
 113625171.042 8  88539093.016 7  21622134.633                    21622144.777
 106809522.340 8  83228291.585 8  20325146.195                    20325153.410
 125518189.730 6  97806457.03443  23885319.203                    23885329.664
 114256940.298 7  89031444.46645  21742369.273                    21742377.551
 113205702.842 8  88212382.32446  21542300.391                    21542306.000
 11  8 24  1 53  0.0000000  0  8G10G12G29G25G05G26G30G02
 122880734.753 7  95751376.04743  23383401.023                    23383410.355
 111998279.271 8  87271463.341 7  21312560.688                    21312568.734
 120072102.732 7  93562740.497 6  22848965.531                    22848973.609
 113616903.519 8  88532650.800 7  21620561.273                    21620571.531
 106829266.200 8  83243676.426 8  20328903.117                    20328910.742
 125423468.186 6  97732648.14143  23867294.547                    23867304.434
 114258641.438 7  89032770.03145  21742693.219                    21742701.363
 113241997.899 8  88240664.18646  21549206.945                    21549212.715
 11  8 24  1 53 30.0000000  0  8G10G12G29G25G05G26G30G02
 122983282.164 7  95831283.08443  23402916.211                    23402924.078
 112053543.010 8  87314525.982 7  21323077.578                    21323085.176
 119989251.005 7  93498180.728 6  22833199.227                    22833207.730
 113609214.552 8  88526659.411 7  21619098.203                    21619108.434
 106849544.106 8  83259477.409 8  20332762.000                    20332769.469
 125328770.995 6  97658858.24143  23849273.813                    23849283.832
 114260937.409 7  89034559.11045  21743129.766                    21743138.234
 113278378.771 8  88269012.91346  21556129.820                    21556135.703
 11  8 24  1 54  0.0000000  0  8G10G12G29G25G05G26G30G02
 123086015.484 6  95911335.02543  23422464.672                    23422473.508
 112109269.275 8  87357949.023 7  21333681.961                    21333689.691
 119906448.149 7  93433659.042 6  22817442.250                    22817450.605
 113602103.655 8  88521118.453 7  21617744.844                    21617755.090
 106870354.037 8  83275692.950 8  20336722.094                    20336729.512
 125234101.497 6  97585089.89743  23831258.719                    23831268.969
 114263827.011 7  89036810.75545  21743679.805                    21743687.887
 113314844.547 7  88297427.80246  21563069.383                    21563074.945
 11  8 24  1 54 30.0000000  0  8G10G12G29G25G05G26G30G02
 123188932.188 6  95991529.84443  23442049.102                    23442058.027
 112165455.565 8  87401730.529 7  21344373.727                    21344381.617
 119823696.289 7  93369177.090 7  22801694.859                    22801703.594
 113595570.927 8  88516028.021 7  21616501.797                    21616512.125
 106891694.951 8  83292322.254 8  20340782.703                    20340790.145
 125139462.854 6  97511345.62543  23813249.805                    23813260.012
 114267309.832 8  89039524.65645  21744342.656                    21744350.914
 113351395.016 7  88325908.67746  21570024.250                    21570030.207
 11  8 24  1 55  0.0000000  0  8G10G12G29G25G05G26G30G02
 123292029.936 7  96071865.72243  23461668.297                    23461677.020
 112222100.027 8  87445869.064 7  21355152.414                    21355160.391
 119740996.980 7  93304736.109 7  22785957.945                    22785966.258
 113589616.408 8  88511388.151 7  21615368.469                    21615378.852
 106913565.751 8  83309364.452 8  20344944.688                    20344952.141
 125044858.742 6  97437628.25243  23795247.094                    23795257.254
 114271385.282 7  89042700.33345  21745118.094                    21745126.039
 113388030.445 8  88354455.75446  21576996.070                    21577001.734
 11  8 24  1 55 30.0000000  0  8G10G12G29G25G05G26G30G02
 123395305.594 7  96152340.23143  23481320.453                    23481330.195
 112279200.167 8  87490362.658 7  21366018.570                    21366026.410
 119658351.851 7  93240337.348 7  22770231.070                    22770239.098
 113584239.667 8  88507198.484 7  21614345.344                    21614355.938
 106935964.626 8  83326818.133 8  20349207.188                    20349214.504
 124950292.493 6  97363940.36844  23777251.555                    23777261.730
 114276052.319 7  89046336.99245  21746006.180                    21746014.766
 113424750.378 7  88383068.68246  21583983.375                    21583989.141
 11  8 24  1 56  0.0000000  0  8G10G12G29G25G05G26G30G02
 123498755.909 7  96232950.84043  23501006.961                    23501016.051
 112336753.702 7  87535209.555 7  21376971.000                    21376978.074
 119575762.874 7  93175982.344 7  22754514.445                    22754523.234
 113579440.501 8  88503458.875 7  21613432.414                    21613442.375
 106958889.896 8  83344681.986 8  20353569.711                    20353577.059
 124855767.363 6  97290284.53143  23759264.375                    23759274.004
 114281310.116 7  89050433.99245  21747006.906                    21747015.121
 113461554.323 8  88411747.08345  21590986.883                    21590993.148
 11  8 24  1 56 30.0000000  0  8G10G12G29G25G05G26G30G02
 123602378.640 7  96313695.80243  23520726.227                    23520734.801
 112394758.049 7  87580407.737 7  21388008.641                    21388016.008
 119493231.595 7  93111672.317 7  22738809.234                    22738818.297
 113575218.739 8  88500169.204 7  21612629.016                    21612639.133
 106982340.282 8  83362955.038 8  20358032.195                    20358039.332
 124761286.816 6  97216663.43043  23741285.203                    23741295.055
 114287157.937 8  89054990.73445  21748119.398                    21748127.781
 113498442.262 8  88440490.93346  21598006.969                    21598012.391
 11  8 24  1 57  0.0000000  0  9G10G12G15G29G25G05G26G30G02
 123706170.794 7  96394572.76343  23540476.867                    23540485.801
 112453210.958 7  87625955.438 7  21399131.617                    21399139.582
 129419720.37616 100846545.21016  24627751.953                    24627760.930
 119410759.674 7  93047408.541 7  22723115.406                    22723124.203
 113571574.054 8  88497329.192 7  21611935.453                    21611945.633
 107006314.018 8  83381635.878 8  20362594.266                    20362601.707
 124666854.198 6  97143079.67143  23723314.383                    23723324.699
 114293594.896 8  89060006.55545  21749344.250                    21749352.430
 113535413.696 8  88469299.83346  21605041.813                    21605047.598
 11  8 24  1 57 30.0000000  0  9G10G12G15G29G25G05G26G30G02
 123810130.026 7  96475579.91344  23560259.547                    23560268.391
 112512110.093 7  87671850.857 7  21410339.969                    21410347.676
 129326999.652 6 100774295.440 6  24610106.508                    24610117.379
 119328349.058 7  92983192.533 7  22707432.914                    22707441.656
 113568506.223 7  88494938.674 7  21611351.422                    21611361.797
 107030809.695 8  83400723.432 8  20367255.695                    20367262.781
 124572472.790 6  97069535.80544  23705355.547                    23705365.039
 114300620.109 8  89065480.74145  21750681.477                    21750689.730
 113572468.690 8  88498173.84446  21612093.234                    21612099.004
 11  8 24  1 58  0.0000000  0  9G10G12G15G29G25G05G26G30G02
 123914253.049 7  96556714.71744  23580073.398                    23580082.789
 112571452.795 7  87718091.893 7  21421632.539                    21421640.152
 129234145.194 6 100701941.465 6  24592437.438                    24592447.750
 119246001.838 7  92919025.923 7  22691763.117                    22691771.953
 113566014.926 8  88492997.398 7  21610877.117                    21610887.355
 107055825.730 8  83420216.452 8  20372015.992                    20372023.516
 124478146.378 6  96996034.76643  23687405.016                    23687414.582
 114308232.681 8  89071412.61745  21752130.102                    21752137.797
 113609606.815 8  88527112.63745  21619160.461                    21619166.145
 11  8 24  1 58 30.0000000  0  9G10G12G15G29G25G05G26G30G02
 124018537.422 7  96637975.23044  23599918.656                    23599927.563
 112631237.044 7  87764677.007 7  21433008.969                    21433016.625
 129141159.693 6 100629485.375 6  24574741.961                    24574752.969
 119163719.232 7  92854909.657 6  22676105.180                    22676113.508
 113564099.943 7  88491505.202 7  21610512.992                    21610523.250
 107081360.763 8  83440113.894 8  20376875.203                    20376882.332
 124383878.306 6  96922579.20744  23669466.117                    23669476.215
 114316431.791 7  89077801.53345  21753690.227                    21753698.551
 113646828.244 8  88556116.34545  21626243.500                    21626249.211
 11  8 24  1 59  0.0000000  0  9G10G12G15G29G25G05G26G30G02
 124122980.584 7  96719359.47844  23619792.648                    23619802.547
 112691460.141 8  87811604.079 7  21444469.133                    21444476.930
 129048045.405 6 100556928.935 6  24557023.289                    24557033.707
 119081503.387 7  92790845.405 7  22660460.133                    22660468.531
 113562760.930 7  88490461.806 7  21610258.234                    21610268.352
 107107413.345 8  83460414.613 8  20381832.813                    20381840.008
 124289672.022 6  96849171.81244  23651539.234                    23651549.285
 114325216.518 7  89084646.77345  21755362.125                    21755369.840
 113684132.651 8  88585184.70746  21633342.367                    21633348.105
 11  8 24  1 59 30.0000000  0  9G10G12G15G29G25G05G26G30G02
 124227579.817 7  96800865.36743  23639698.234                    23639706.906
 112752119.651 7  87858871.205 7  21456012.234                    21456019.793
 128954804.867 6 100484274.093 6  24539280.398                    24539290.574
 118999356.004 7  92726834.505 7  22644827.992                    22644836.082
 113561997.468 8  88489866.899 7  21610112.914                    21610123.086
 107133981.745 8  83481117.275 8  20386888.867                    20386896.121
 124195530.889 6  96775815.16744  23633625.227                    23633634.953
 114334585.766 7  89091947.48945  21757144.844                    21757152.891
 113721519.705 7  88614317.48445  21640457.109                    21640462.230
 11  8 24  2  0  0.0000000  0  9G10G12G15G29G25G05G26G30G02
 124332331.981 7  96882490.40643  23659631.117                    23659640.250
 112813213.091 7  87906476.475 7  21467637.938                    21467645.328
 128861440.214 6 100411522.541 6  24521513.164                    24521523.211
 118917279.063 7  92662878.475 7  22629209.359                    22629217.379
 113561809.120 8  88489720.123 7  21610076.977                    21610087.398
 107161064.010 8  83502220.340 8  20392042.164                    20392049.348
 124101458.245 7  96702511.88043  23615723.109                    23615732.676
 114344538.525 7  89099702.87945  21759038.563                    21759046.637
 113758989.556 7  88643514.77245  21647587.422                    21647592.465
 11  8 24  2  0 30.0000000  0  9G10G12G15G29G25G05G26G30G02
 124437234.418 7  96964232.53843  23679593.609                    23679602.086
 112874737.716 7  87954417.720 7  21479345.797                    21479353.477
 128767953.952 6 100338676.252 5  24503723.406                    24503733.746
 118835274.338 7  92598978.723 7  22613604.664                    22613612.230
 113562195.238 8  88490020.984 7  21610150.320                    21610160.508
 107188658.362 8  83523722.442 8  20397292.984                    20397300.313
 124007457.498 7  96629264.62443  23597835.586                    23597845.008
 114355073.581 8  89107912.00845  21761043.172                    21761051.445
 113796541.570 8  88672776.09045  21654733.445                    21654738.910
 11  8 24  2  1  0.0000000  0  9G10G12G15G29G25G05G26G30G02
 124542284.606 6  97046089.79643  23699584.094                    23699592.816
 112936691.213 7  88002693.151 7  21491135.133                    21491142.660
 128674349.020 6 100265737.481 5  24485910.461                    24485920.734
 118753343.425 7  92535136.498 7  22598012.883                    22598021.496
 113563155.545 8  88490769.272 7  21610333.375                    21610343.309
 107216763.371 7  83545622.454 8  20402641.320                    20402648.773
 123913532.214 6  96556076.17744  23579961.961                    23579971.637
 114366189.955 8  89116574.10745  21763159.047                    21763167.371
 113834175.792 8  88702101.46445  21661894.938                    21661900.168
 11  8 24  2  1 30.0000000  0  9G10G12G15G29G25G05G26G30G02
 124647480.029 6  97128060.23143  23719602.734                    23719610.902
 112999071.329 8  88051301.014 7  21503005.281                    21503013.078
 128580627.871 6 100192708.130 5  24468076.031                    24468086.445
 118671488.459 7  92471353.430 6  22582436.633                    22582444.781
 113564689.599 8  88491964.629 7  21610625.391                    21610635.426
 107245377.590 7  83567919.249 8  20408086.156                    20408093.469
 123819685.972 6  96482949.30543  23562103.609                    23562112.840
 114377886.753 8  89125688.49645  21765384.859                    21765393.234
 113871892.331 8  88731490.98345  21669072.172                    21669077.184
 11  8 24  2  2  0.0000000  0  9G10G12G15G29G25G05G26G30G02
 124752817.828 6  97210141.59843  23739647.703                    23739656.164
 113061875.255 8  88100239.115 7  21514956.758                    21514964.363
 128486792.772 6 100119590.009 5  24450219.641                    24450229.375
 118589711.154 7  92407630.885 7  22566874.914                    22566883.195
 113566796.730 8  88493606.544 7  21611025.766                    21611036.254
 107274499.116 8  83590611.345 8  20413628.078                    20413635.293
 123725922.332 6  96409886.81743  23544260.977                    23544270.770
 114390162.620 8  89135254.10445  21767720.648                    21767728.621
 113909690.501 8  88760944.12045  21676264.977                    21676270.570
 11  8 24  2  2 30.0000000  0  9G10G12G15G29G25G05G26G30G02
 124858295.474 6  97292331.96043  23759718.977                    23759728.082
 113125100.920 7  88149505.845 7  21526987.977                    21526995.906
 128392846.634 6 100046385.350 5  24432342.000                    24432352.340
 118508013.421 7  92343970.348 7  22551328.703                    22551336.625
 113569476.706 8  88495694.836 7  21611536.375                    21611546.551
 107304126.374 8  83613697.528 8  20419265.602                    20419272.867
 123632244.691 6  96336891.33843  23526435.242                    23526444.473
 114403016.656 8  89145270.22945  21770166.641                    21770175.293
 113947570.750 8  88790461.20645  21683472.680                    21683478.203
 11  8 24  2  3  0.0000000  0  9G10G12G15G29G25G05G26G30G02
 124963910.166 6  97374629.10243  23779817.102                    23779825.645
 113188745.142 8  88199098.736 7  21539099.711                    21539106.570
 128298791.476 6  99973095.758 5  24414443.484                    24414454.141
 118426397.291 7  92280373.400 7  22535797.180                    22535805.629
 113572728.795 8  88498228.926 7  21612154.820                    21612165.301
 107334257.499 8  83637176.324 8  20424999.813                    20425007.000
 123538656.496 6  96263965.56543  23508625.148                    23508635.055
 114416447.640 8  89155735.93345  21772722.594                    21772730.984
 113985532.693 8  88820041.94945  21690696.977                    21690702.289
 11  8 24  2  3 30.0000000  0  9G10G12G15G29G25G05G26G30G02
 125069659.181 6  97457030.91243  23799939.586                    23799948.773
 113252805.342 8  88249015.754 7  21551289.539                    21551297.227
 128204630.130 6  99899723.391 6  24396525.828                    24396535.477
 118344864.387 7  92216841.312 7  22520281.781                    22520290.508
 113576552.106 8  88501208.119 7  21612882.703                    21612892.586
 107364890.585 7  83661046.269 8  20430828.602                    20430836.367
 123445161.067 6  96191112.05444  23490833.586                    23490843.496
 114430453.976 8  89166649.94945  21775388.148                    21775396.113
 114023576.104 7  88849686.17945  21697936.250                    21697941.730
 11  8 24  2  4  0.0000000  0  9G10G12G15G29G25G05G26G30G02
 125175540.038 6  97539535.46343  23820088.398                    23820097.762
 113317279.292 7  88299255.188 7  21563559.172                    21563566.375
 128110365.038 6  99826270.231 6  24378587.000                    24378597.801
 118263416.561 7  92153375.531 7  22504782.898                    22504791.324
 113580946.337 8  88504632.193 7  21613718.852                    21613729.188
 107396023.975 8  83685306.051 8  20436753.500                    20436761.031
 123351762.137 7  96118333.78744  23473060.180                    23473069.762
 114445034.836 8  89178011.66145  21778162.633                    21778170.875
 114061700.969 7  88879393.88945  21705190.914                    21705196.684
 11  8 24  2  4 30.0000000  0  9G10G12G15G29G25G05G26G30G02
 125281549.825 6  97622140.43943  23840261.961                    23840270.824
 113382164.029 8  88349814.711 7  21575905.883                    21575913.219
 128015998.858 6  99752738.289 6  24360629.703                    24360640.477
 118182056.001 7  92089977.755 7  22489300.664                    22489308.871
 113585910.808 8  88508500.599 7  21614663.297                    21614673.801
 107427656.042 7  83709954.416 8  20442772.906                    20442780.133
 123258463.268 6  96045633.46344  23455305.758                    23455315.691
 114460188.918 8  89189820.02945  21781046.625                    21781054.480
 114099907.098 8  88909164.91345  21712461.281                    21712466.871
 11  8 24  2  5  0.0000000  0  9G10G12G15G29G25G05G26G30G02
 125387685.725 7  97704843.70843  23860458.688                    23860467.613
 113447456.910 7  88400692.252 7  21588330.695                    21588338.438
 127921534.166 6  99679129.591 6  24342654.273                    24342663.684
 118100784.440 7  92026649.329 7  22473834.883                    22473843.500
 113591444.623 8  88512812.653 7  21615716.688                    21615726.496
 107459784.509 8  83734989.588 8  20448886.523                    20448893.660
 123165267.722 6  95973013.63044  23437571.555                    23437580.863
 114475914.690 8  89202073.87945  21784038.656                    21784047.184
 114138194.319 7  88938999.11345  21719747.438                    21719753.199
 11  8 24  2  5 30.0000000  0  9G10G12G15G29G25G05G26G30G02
 125493945.581 6  97787643.56543  23880679.688                    23880688.449
 113513156.209 7  88451886.501 7  21600832.789                    21600840.559
 127826973.666 6  99605446.248 6  24324658.883                    24324669.559
 118019604.001 7  91963391.934 7  22458386.750                    22458395.258
 113597547.516 8  88517568.143 7  21616878.063                    21616887.992
 107492408.325 8  83760410.745 8  20455094.555                    20455102.031
 123072179.501 7  95900477.46144  23419857.219                    23419867.402
 114492211.329 8  89214772.55045  21787139.969                    21787148.254
 114176562.831 7  88968896.65945  21727048.820                    21727054.613
 11  8 24  2  6  0.0000000  0  9G10G12G15G29G25G05G26G30G02
 125600326.951 7  97870538.12743  23900922.547                    23900931.977
 113579258.929 7  88503395.091 7  21613412.070                    21613419.703
 127732320.089 6  99531690.348 6  24306647.617                    24306657.648
 117938516.711 7  91900207.111 7  22442956.195                    22442964.367
 113604218.753 8  88522766.496 7  21618147.484                    21618157.926
 107525525.738 8  83786216.525 8  20461396.648                    20461403.828
 122979202.093 7  95828027.63144  23402164.484                    23402173.727
 114509077.479 8  89227915.00145  21790349.453                    21790357.949
 114215012.722 7  88998857.61745  21734365.828                    21734370.934
 11  8 24  2  6 30.0000000  0  9G10G12G15G29G25G05G26G30G02
 125706826.616 7  97953524.86043  23921189.102                    23921197.797
 113645761.756 7  88555215.466 7  21626067.289                    21626074.641
 127637575.479 6  99457863.499 6  24288618.102                    24288628.184
 117857524.124 7  91837096.084 7  22427543.406                    22427552.047
 113611457.069 8  88528406.737 7  21619524.617                    21619535.227
 107559133.863 7  83812404.676 8  20467792.328                    20467799.168
 122886338.333 7  95755666.33844  23384492.750                    23384502.410
 114526511.240 8  89241499.74145  21793667.313                    21793675.215
 114253543.491 7  89028881.60145  21741697.633                    21741703.078
 11  8 24  2  7  0.0000000  0  9G10G12G15G29G25G05G26G30G02
 125813442.129 6  98036601.84243  23941477.281                    23941486.582
 113712662.356 7  88607345.794 7  21638797.664                    21638805.098
 127542742.944 6  99383968.133 6  24270571.789                    24270581.922
 117776628.378 7  91774060.516 7  22412149.688                    22412157.781
 113619262.074 8  88534488.542 7  21621010.164                    21621020.547
 107593231.684 7  83838974.417 8  20474280.617                    20474287.805
 122793592.599 7  95683397.01144  23366844.055                    23366853.566
 114544511.616 8  89255525.99545  21797092.406                    21797100.906
 114292155.120 7  89058968.60145  21749045.266                    21749050.633
 11  8 24  2  7 30.0000000  0  9G10G12G15G29G25G05G26G30G02
 125920170.929 6  98119767.10543  23961787.586                    23961796.887
 113779958.202 7  88659784.095 7  21651603.734                    21651611.316
 127447824.791 6  99310006.064 6  24252509.461                    24252519.371
 117695831.448 7  91711101.954 7  22396774.531                    22396782.934
 113627632.787 8  88541011.164 7  21622602.719                    21622613.109
 107627816.926 8  83865923.963 8  20480862.242                    20480869.723
 122700967.839 7  95611221.96244  23349218.070                    23349227.063
 114563077.085 8  89269992.59145  21800625.352                    21800633.348
 114330847.587 7  89089118.57545  21756407.797                    21756413.988
 11  8 24  2  8  0.0000000  0  9G10G12G15G29G25G05G26G30G02
 126027010.604 6  98203018.78143  23982118.469                    23982127.555
 113847646.625 7  88712528.310 7  21664484.438                    21664492.266
 127352824.022 6  99235979.610 6  24234431.414                    24234440.793
 117615135.375 7  91648221.969 7  22381418.625                    22381426.699
 113636568.702 8  88547974.199 7  21624303.703                    21624313.492
 107662888.128 7  83893252.183 8  20487536.188                    20487543.012
 122608468.074 7  95539144.31044  23331615.211                    23331624.879
 114582206.486 8  89284898.59945  21804265.195                    21804273.531
 114369620.967 7  89119331.60645  21763785.914                    21763792.031
 11  8 24  2  8 30.0000000  0  9G10G12G15G29G25G05G26G30G02
 126133958.426 6  98286354.71043  24002470.383                    24002479.066
 113915724.947 7  88765576.333 7  21677439.391                    21677446.613
 127257743.007 6  99161890.627 6  24216337.477                    24216346.832
 117534541.792 7  91585421.849 7  22366082.352                    22366090.586
 113646068.618 8  88555376.719 7  21626111.359                    21626121.313
 107698442.848 8  83920957.169 8  20494301.789                    20494309.199
 122516096.582 7  95467166.60344  23314038.211                    23314047.195
 114601897.984 8  89300242.60245  21808012.828                    21808020.859
 114408474.992 7  89149607.46445  21771180.047                    21771185.684
 11  8 24  2  9  0.0000000  0  9G10G12G15G29G25G05G26G30G02
 126241011.542 6  98369772.68043  24022841.250                    24022850.508
 113984190.080 7  88818925.772 7  21690467.992                    21690475.754
 127162584.234 6  99087741.077 6  24198230.008                    24198239.672
 117454053.083 7  91522703.440 7  22350765.547                    22350773.477
 113656131.668 8  88563218.037 7  21628026.141                    21628036.270
 107734479.246 7  83949037.496 8  20501159.211                    20501166.426
 122423857.017 7  95395291.70044  23296485.219                    23296494.641
 114622150.238 8  89316023.56345  21811866.938                    21811874.949
 114447409.685 7  89179946.18245  21778588.953                    21778594.895
 11  8 24  2  9 30.0000000  0  9G10G12G15G29G25G05G26G30G02
 126348167.900 6  98453271.12343  24043232.391                    24043241.734
 114053039.480 7  88872574.639 7  21703569.102                    21703576.895
 127067350.939 6  99013533.474 6  24180107.180                    24180117.676
 117373671.069 7  91460068.164 7  22335469.125                    22335477.414
 113666757.224 8  88571497.683 7  21630048.320                    21630058.340
 107770995.863 8  83977492.015 8  20508108.617                    20508115.535
 122331753.094 7  95323522.46944  23278958.563                    23278967.527
 114642961.899 8  89332240.42845  21815826.984                    21815835.078
 114486425.155 7  89210347.85045  21786013.617                    21786019.125
 11  8 24  2 10  0.0000000  0  9G10G12G15G29G25G05G26G30G02
 126455424.764 6  98536847.84543  24063642.969                    24063652.465
 114122270.544 7  88926520.902 7  21716743.430                    21716751.410
 126972045.335 6  98939269.512 6  24161970.445                    24161981.148
 117293397.876 7  91397517.691 7  22320194.172                    22320201.895
 113677944.178 8  88580214.762 7  21632176.836                    21632187.414
 107807990.500 8  84006319.026 8  20515148.094                    20515155.445
 122239788.151 7  95251861.55644  23261457.695                    23261467.109
 114664331.349 8  89348891.92645  21819893.281                    21819901.418
 114525521.403 7  89240812.46345  21793453.609                    21793459.340
 11  8 24  2 10 30.0000000  0  9G10G12G15G29G25G05G26G30G02
 126562779.592 6  98620500.93343  24084071.992                    24084080.789
 114191880.435 7  88980762.361 7  21729990.023                    21729997.625
 126876670.043 6  98864951.253 6  24143821.078                    24143831.707
 117213235.265 7  91335053.370 7  22304939.633                    22304946.965
 113689691.523 8  88589368.529 7  21634412.516                    21634423.168
 107845461.051 8  84035516.879 8  20522278.516                    20522285.379
 122147965.984 7  95180311.87644  23243984.430                    23243994.020
 114686256.939 8  89365976.77445  21824066.094                    21824073.906
 114564698.341 7  89271339.95345  21800908.266                    21800914.016
 11  8 24  2 11  0.0000000  0  9G10G12G15G29G25G05G26G30G02
 126670229.807 6  98704228.36043  24104518.727                    24104528.066
 114261866.972 7  89035297.316 7  21743307.992                    21743315.648
 126781227.796 6  98790580.816 6  24125659.664                    24125669.555
 117133185.659 7  91272677.097 7  22289706.578                    22289714.348
 113701998.333 8  88598958.231 7  21636754.375                    21636764.914
 107883405.610 7  84065084.079 8  20529499.148                    20529506.000
 122056289.898 7  95108876.03644  23226539.180                    23226548.910
 114708737.171 8  89383493.81645  21828343.391                    21828351.652
 114603955.812 7  89301930.18545  21808378.570                    21808384.336
 11  8 24  2 11 30.0000000  0  9G10G12G15G29G25G05G26G30G02
 126777772.969 6  98788028.19143  24124983.820                    24124993.152
 114332226.730 7  89090123.087 7  21756697.391                    21756704.844
 126685721.448 6  98716160.437 6  24107485.086                    24107494.531
 117053250.705 7  91210390.159 7  22274495.063                    22274503.195
 113714863.751 8  88608983.225 7  21639202.578                    21639212.758
 107921822.366 8  84095019.228 8  20536809.445                    20536816.484
 121964763.939 7  95037557.17343  23209122.453                    23209131.652
 114731770.538 8  89401441.88145  21832727.016                    21832734.656
 114643293.982 7  89332583.30345  21815864.578                    21815869.910
 11  8 24  2 12  0.0000000  0  9G10G12G15G29G25G05G26G30G02
 126885406.237 6  98871898.21743  24145465.813                    24145474.973
 114402956.860 7  89145237.459 7  21770156.227                    21770164.609
 126590153.529 6  98641692.054 6  24089299.203                    24089308.871
 116973432.561 7  91148194.241 7  22259306.188                    22259314.117
 113728286.543 8  88619442.531 7  21641756.789                    21641767.121
 107960709.045 8  84125320.550 8  20544209.383                    20544216.367
 121873391.415 7  94966357.86543  23191734.609                    23191743.855
 114755355.285 8  89419819.59645  21837214.984                    21837222.715
 114682712.862 7  89363299.31145  21823365.281                    21823371.289
 11  8 24  2 12 30.0000000  0  9G10G12G15G29G25G05G26G30G02
 126993127.191 6  98955836.57343  24165963.914                    24165973.777
 114474054.863 7  89200638.483 7  21783686.047                    21783693.934
 126494526.947 6  98567177.959 6  24071101.539                    24071111.371
 116893733.074 7  91086090.782 7  22244140.039                    22244148.059
 113742265.774 8  88630335.430 7  21644417.055                    21644427.215
 108000063.563 8  84155986.428 8  20551697.898                    20551705.566
 121782176.056 7  94895281.04243  23174376.570                    23174386.273
 114779489.808 8  89438625.69245  21841807.438                    21841815.848
 114722212.351 7  89394078.13445  21830882.117                    21830888.266
 11  8 24  2 13  0.0000000  0  9G10G12G15G29G25G05G26G30G02
 127100933.753 6  99039841.64343  24186478.867                    24186488.254
 114545518.100 7  89256324.116 7  21797284.617                    21797292.504
 126398844.550 7  98492620.371 6  24052894.398                    24052903.617
 116814154.754 7  91024081.724 7  22228996.742                    22229004.406
 113756800.513 8  88641661.189 7  21647182.992                    21647193.512
 108039884.688 8  84187015.891 8  20559275.797                    20559283.070
 121691121.636 7  94824329.60944  23157049.586                    23157058.844
 114804172.685 7  89457859.08345  21846504.328                    21846512.723
 114761792.694 7  89424919.95545  21838414.242                    21838419.957
 11  8 24  2 13 30.0000000  0  9G10G12G15G29G25G05G26G30G02
 127208822.983 6  99123911.11243  24207009.625                    24207019.492
 114617343.516 7  89312291.958 7  21810952.750                    21810960.582
 126303108.663 7  98418021.094 6  24034676.172                    24034685.586
 116734699.277 7  90962168.384 7  22213877.047                    22213884.848
 113771889.226 8  88653418.629 7  21650054.211                    21650064.465
 108080169.378 8  84218406.569 8  20566942.188                    20566948.762
 121600231.166 7  94753505.93344  23139753.703                    23139762.617
 114829401.708 7  89477518.04445  21851305.000                    21851312.996
 114801453.421 7  89455824.42145  21845961.234                    21845967.070
 11  8 24  2 14  0.0000000  0  9G10G12G15G29G25G05G26G30G02
 127316792.601 6  99208043.29443  24227555.727                    24227564.602
 114689528.138 7  89368539.703 7  21824689.188                    21824697.063
 126207321.997 7  98343382.259 6  24016448.984                    24016458.285
 116655368.645 7  90900352.324 7  22198780.750                    22198788.961
 113787530.904 8  88665606.948 7  21653030.359                    21653040.988
 108120915.902 7  84250157.118 8  20574695.828                    20574702.332
 121509508.541 7  94682813.03644  23122490.242                    23122499.230
 114855175.299 7  89497601.34445  21856210.289                    21856218.313
 114841194.815 7  89486791.74545  21853523.703                    21853529.441
 11  8 24  2 14 30.0000000  0  9G10G12G15G29G25G05G26G30G02
 127424840.105 6  99292236.11443  24248116.367                    24248125.230
 114762069.323 7  89425065.291 7  21838493.211                    21838501.148
 126111487.424 7  98268706.098 6  23998211.719                    23998221.484
 116576165.084 7  90838635.277 7  22183708.836                    22183716.852
 113803724.469 8  88678225.314 7  21656112.328                    21656122.371
 108162122.161 8  84282265.923 8  20582537.297                    20582544.199
 121418957.470 7  94612253.83444  23105258.219                    23105267.586
 114881491.776 7  89518107.66945  21861217.672                    21861225.984
 114881016.935 8  89517821.97845  21861101.516                    21861107.313
 11  8 24  2 15  0.0000000  0  9G10G12G15G29G25G05G26G30G02
 127532962.795 6  99376487.53242  24268691.820                    24268701.043
 114834964.366 7  89481866.603 7  21852364.852                    21852372.711
 126015607.722 7  98193994.774 6  23979966.406                    23979975.977
 116497090.830 7  90777018.984 7  22168661.391                    22168669.547
 113820468.807 8  88691272.855 7  21659298.641                    21659308.719
 108203786.166 8  84314731.385 8  20590465.734                    20590472.566
 121328581.639 7  94541831.18944  23088061.133                    23088069.797
 114908349.511 7  89539035.76645  21866328.758                    21866336.945
 114920919.718 8  89548915.05945  21868695.195                    21868700.566
 11  8 24  2 15 30.0000000  0  9G10G12G15G29G25G05G26G30G02
 127641158.336 6  99460795.74042  24289280.445                    24289290.613
 114908210.428 7  89538941.451 7  21866302.898                    21866310.723
 125919685.727 6  98119250.505 6  23961712.820                    23961721.945
 116418147.781 7  90715504.918 7  22153639.445                    22153647.063
 113837762.611 8  88704748.543 7  21662589.461                    21662599.555
 108245905.884 8  84347551.963 8  20598480.117                    20598486.938
 121238384.829 7  94471548.02644  23070896.344                    23070905.828
 114935746.551 7  89560384.10245  21871541.953                    21871550.547
 114960903.439 8  89580071.18945  21876303.750                    21876309.066
 11  8 24  2 16  0.0000000  0  9G10G12G15G29G25G05G26G30G02
 127749424.418 6  99545158.82343  24309883.602                    24309892.219
 114981804.718 7  89596287.637 7  21880307.430                    21880315.520
 125823724.572 6  98044475.731 6  23943451.969                    23943461.254
 116339338.377 7  90654094.992 7  22138642.438                    22138650.406
 113855604.966 8  88718651.694 7  21665985.180                    21665994.633
 108288479.526 8  84380726.243 7  20606582.047                    20606588.941
 121148370.498 7  94401407.06644  23053767.844                    23053776.613
 114963681.442 7  89582151.54545  21876857.984                    21876866.512
 115000968.225 7  89611290.49345  21883927.891                    21883933.363
 11  8 24  2 16 30.0000000  0  9G10G12G15G29G25G05G26G30G02
 127857758.306 6  99629574.82643  24330497.781                    24330508.086
 115055743.999 7  89653902.643 7  21894377.859                    21894385.465
 125727726.426 6  97969672.126 6  23925184.289                    23925193.309
 116260664.396 7  90592790.604 7  22123671.008                    22123678.809
 113873994.293 8  88732981.044 7  21669484.398                    21669493.988
 108331504.413 8  84414252.149 8  20614769.180                    20614776.141
 121058542.261 7  94331411.10744  23036673.969                    23036682.980
 114992152.004 7  89604336.38345  21882275.633                    21882284.043
 115041114.082 8  89642572.97345  21891567.227                    21891573.035
 11  8 24  2 17  0.0000000  0  9G10G12G15G29G25G05G26G30G02
 127966157.709 6  99714041.83543  24351126.250                    24351135.656
 115130025.319 7  89711784.177 7  21908513.109                    21908520.965
 125631693.884 6  97894841.684 6  23906908.508                    23906918.156
 116182128.058 7  90531593.478 7  22108726.047                    22108733.844
 113892929.287 8  88747735.598 7  21673087.289                    21673097.730
 108374978.398 8  84448127.993 8  20623042.078                    20623049.441
 120968903.729 7  94261562.98144  23019616.023                    23019625.309
 115021156.324 7  89626937.14845  21887794.922                    21887803.559
 115081340.777 7  89673918.44045  21899222.023                    21899227.992
 11  8 24  2 17 30.0000000  0  9G10G12G15G29G25G05G26G30G02
 128074619.962 6  99798557.87443  24371765.844                    24371775.184
 115204646.198 8  89769930.303 7  21922712.984                    21922720.793
 125535630.337 6  97819987.059 6  23888628.758                    23888638.230
 116103731.385 7  90470505.176 7  22093807.445                    22093815.258
 113912408.727 8  88762914.393 7  21676793.984                    21676803.898
 108418899.421 8  84482352.179 8  20631400.180                    20631406.809
 120879458.534 7  94191865.50544  23002595.109                    23002604.391
 115050692.687 8  89649952.49245  21893415.758                    21893424.168
 115121648.534 7  89705327.08945  21906892.742                    21906898.352
 11  8 24  2 18  0.0000000  0  9G10G12G15G29G25G05G26G30G02
 128183143.165 6  99883121.36143  24392417.086                    24392426.230
 115279604.082 8  89828339.027 7  21936977.469                    21936984.852
 125439538.473 6  97745110.396 6  23870343.391                    23870352.352
 116025476.839 7  90409527.639 7  22078915.773                    22078924.262
 113932431.615 8  88778516.654 7  21680604.602                    21680614.566
 108463265.910 8  84516923.476 8  20639842.305                    20639849.277
 120790210.742 7  94122321.84444  22985611.984                    22985620.492
 115080759.404 8  89673381.11345  21899137.234                    21899145.371
 115162037.711 8  89736799.16645  21914578.602                    21914584.152
 11  8 24  2 18 30.0000000  0  9G10G12G15G29G25G05G26G30G02
 128291724.792 6  99967730.39543  24413079.758                    24413088.645
 115354895.903 7  89887007.960 7  21951304.586                    21951312.617
 125343421.031 6  97670213.816 6  23852051.844                    23852061.910
 115947366.286 7  90348662.304 7  22064052.289                    22064060.309
 113952996.376 8  88794541.141 7  21684517.836                    21684527.797
 108508075.423 8  84551839.997 8  20648369.477                    20648376.645
 120701163.641 7  94052934.57544  22968666.500                    22968676.145
 115111354.439 7  89697221.39945  21904959.211                    21904968.066
 115202508.343 8  89768334.72245  21922279.680                    21922285.031
 11  8 24  2 19  0.0000000  0  9G10G12G15G29G25G05G26G30G02
 128400362.212 6 100052382.92143  24433752.992                    24433761.828
 115430518.138 8  89945934.359 7  21965695.344                    21965702.941
 125247280.673 6  97595299.358 6  23833757.828                    23833766.840
 115869401.500 7  90287910.567 7  22049216.195                    22049223.945
 113974101.161 8  88810986.443 7  21688533.813                    21688544.246
 108553325.080 8  84587099.477 7  20656979.922                    20656987.156
 120612320.373 7  93983706.11844  22951760.633                    22951769.285
 115142475.307 7  89721471.44245  21910881.031                    21910889.492
 115243059.922 7  89799933.33645  21929996.727                    21930001.859
 11  8 24  2 19 30.0000000  0  9G10G12G15G29G25G05G26G30G02
 128509053.015 5 100137077.03643  24454436.164                    24454444.508
 115506468.286 8  90005116.271 7  21980148.180                    21980155.512
 125151120.165 6  97520369.184 6  23815459.039                    23815467.973
 115791585.334 7  90227274.642 7  22034407.945                    22034416.203
 113995745.004 8  88827851.780 7  21692652.805                    21692662.953
 108599013.425 8  84622700.786 7  20665674.492                    20665681.762
 120523685.298 7  93914639.89944  22934893.508                    22934902.398
 115174120.508 7  89746130.04645  21916903.398                    21916911.480
 115283692.813 8  89831595.33045  21937728.594                    21937734.359
 11  8 24  2 20  0.0000000  0  9G10G12G15G29G25G05G26G30G02
 128617794.794 6 100221810.81543  24475128.742                    24475137.828
 115582743.299 8  90064551.342 7  21994662.922                    21994670.180
 125054942.487 7  97445425.610 6  23797156.875                    23797165.430
 115713919.446 7  90166755.825 7  22019629.102                    22019636.477
 114017926.370 8  88845135.964 7  21696873.734                    21696883.992
 108645137.848 8  84658641.904 8  20674451.531                    20674458.848
 120435261.744 7  93845738.49644  22918067.117                    22918075.988
 115206287.881 7  89771195.54245  21923024.570                    21923033.137
 115324407.227 7  89863320.83345  21945476.539                    21945481.969
 11  8 24  2 20 30.0000000  0  9G10G12G15G29G25G05G26G30G02
 128726585.489 6 100306582.79443  24495831.055                    24495840.406
 115659340.405 7  90124237.386 7  22009238.813                    22009246.313
 124958750.598 7  97370470.928 6  23778851.883                    23778860.938
 115636406.183 7  90106355.936 7  22004878.320                    22004886.547
 114040644.037 8  88862838.054 7  21701196.336                    21701206.457
 108691696.662 8  84694921.510 8  20683311.461                    20683318.566
 120347053.726 7  93777005.05244  22901281.539                    22901290.426
 115238975.702 7  89796666.58245  21929244.758                    21929252.813
 115365203.578 7  89895110.19045  21953239.523                    21953245.148
 11  8 24  2 21  0.0000000  0  9G10G12G15G29G25G05G26G30G02
 128835422.371 6 100391390.71643  24516541.766                    24516551.441
 115736256.384 8  90184171.892 7  22023875.289                    22023883.156
 124862547.205 7  97295507.285 6  23760544.875                    23760553.906
 115559047.334 7  90046076.371 7  21990157.477                    21990165.430
 114063896.118 8  88880956.556 7  21705621.219                    21705631.539
 108738686.967 8  84731537.333 8  20692253.375                    20692260.770
 120259064.437 7  93708442.03844  22884537.703                    22884546.617
 115272181.520 7  89822541.25845  21935563.570                    21935572.051
 115406081.597 7  89926963.18545  21961018.000                    21961024.074
 11  8 24  2 21 30.0000000  0  9G10G12G15G29G25G05G26G30G02
 128944303.334 6 100476233.02843  24537260.570                    24537270.984
 115813488.802 7  90244352.988 7  22038571.883                    22038579.242
 124766335.276 7  97220537.048 6  23742235.977                    23742245.500
 115481845.591 7  89985919.233 7  21975466.492                    21975473.961
 114087681.493 8  88899490.616 7  21710147.422                    21710157.930
 108786106.966 8  84768487.992 8  20701277.438                    20701284.590
 120171297.904 7  93640052.60144  22867836.109                    22867845.082
 115305903.574 7  89848818.18545  21941980.344                    21941988.973
 115447041.462 7  89958879.95545  21968812.891                    21968818.387
 11  8 24  2 22  0.0000000  0  9G10G12G15G29G25G05G26G30G02
 129053225.899 6 100561107.70442  24557988.789                    24557998.137
 115891034.435 8  90304778.151 7  22053328.688                    22053336.504
 124670117.518 7  97145562.279 6  23723927.313                    23723936.070
 115404803.159 7  89925886.251 7  21960805.727                    21960813.309
 114111998.557 8  88918438.976 7  21714774.688                    21714784.660
 108833954.456 8  84805771.752 8  20710382.305                    20710389.414
 120083757.620 7  93571839.45644  22851177.289                    22851187.043
 115340139.784 7  89875495.76645  21948495.672                    21948503.859
 115488083.671 7  89990860.89745  21976622.977                    21976628.465
 11  8 24  2 22 30.0000000  0  9G10G12G15G29G25G05G26G30G02
 129162188.107 6 100646013.33443  24578722.953                    24578732.719
 115968890.384 8  90365445.110 7  22068143.922                    22068151.199
 124573896.863 6  97070585.221 6  23705616.578                    23705625.570
 115327921.984 8  89865978.914 7  21946175.750                    21946183.375
 114136845.908 8  88937800.550 7  21719503.406                    21719513.824
 108882227.374 8  84843387.016 8  20719568.289                    20719575.391
 119996447.308 7  93503805.51744  22834563.367                    22834571.840
 115374888.205 7  89902572.45845  21955107.813                    21955116.410
 115529208.123 7  90022905.91645  21984448.641                    21984454.410
 11  8 24  2 23  0.0000000  0  9G21G12G15G29G25G05G26G30G02
 132354060.19716 103133103.68053  25186148.961                    25186157.422
 116047055.176 7  90426352.736 7  22083018.188                    22083025.594
 124477677.451 6  96995609.170 6  23687306.891                    23687315.563
 115251205.623 8  89806199.997 7  21931576.641                    21931584.395
 114162223.056 8  88957574.949 7  21724332.227                    21724342.559
 108930924.737 8  84881333.021 7  20728835.023                    20728842.203
 119909372.091 7  93435954.75244  22817993.227                    22818002.289
 115410147.761 7  89930047.44645  21961817.805                    21961825.664
 115570416.376 7  90055016.24445  21992290.125                    21992295.520
 11  8 24  2 23 30.0000000  0  9G21G12G15G29G25G05G26G30G02
 132298484.398 6 103089797.92843  25175573.336                    25175581.406
 116125524.169 7  90487497.400 7  22097950.227                    22097958.121
 124381460.851 6  96920635.295 6  23668996.617                    23669006.176
 115174654.947 7  89746550.198 7  21917010.109                    21917017.820
 114188127.232 8  88977760.023 7  21729261.563                    21729271.777
 108980042.696 8  84919606.767 7  20738181.961                    20738188.977
 119822534.175 7  93368288.90244  22801468.242                    22801477.164
 115445915.009 8  89957918.03745  21968623.969                    21968631.891
 115611707.083 7  90087190.82345  22000147.742                    22000153.324
 11  8 24  2 24  0.0000000  0  9G21G12G15G29G25G05G26G30G02
 132242913.869 6 103046496.21242  25164998.109                    25165006.484
 116204294.983 8  90548877.236 7  22112939.445                    22112948.074
 124285250.543 6  96845666.305 6  23650688.609                    23650697.754
 115098272.544 8  89687031.521 7  21902474.609                    21902482.969
 114214557.152 8  88998354.765 7  21734291.031                    21734301.105
 109029579.484 8  84958206.871 7  20747608.500                    20747615.570
 119735937.428 7  93300810.97044  22784989.609                    22784998.219
 115482188.261 8  89986182.91045  21975526.977                    21975535.164
 115653080.664 7  90119429.96945  22008020.453                    22008026.566
 11  8 24  2 24 30.0000000  0  9G21G12G15G29G25G05G26G30G02
 132187347.882 6 103003198.04142  25154423.242                    25154432.477
 116283364.305 7  90610489.673 7  22127986.234                    22127993.918
 124189048.557 6  96770703.807 6  23632381.836                    23632390.805
 115022060.278 7  89627645.414 7  21887971.664                    21887979.480
 114241510.730 8  89019357.554 7  21739419.992                    21739430.371
 109079532.217 8  84997131.083 8  20757114.164                    20757121.117
 119649585.272 7  93233523.64144  22768557.359                    22768565.926
 115518964.815 7  90014839.97245  21982524.969                    21982533.102
 115694537.009 7  90151733.60745  22015909.555                    22015915.246
 11  8 24  2 25  0.0000000  0  9G21G12G15G29G25G05G26G30G02
 132131785.474 5 102959902.69642  25143850.648                    25143860.605
 116362728.608 7  90672331.970 7  22143089.156                    22143096.762
 124092857.635 6  96695749.930 6  23614076.820                    23614086.402
 114946020.162 8  89568393.442 7  21873501.727                    21873509.523
 114268985.923 8  89040766.799 7  21744648.430                    21744658.625
 109129898.068 8  85036377.209 7  20766698.469                    20766705.430
 119563481.027 7  93166429.47744  22752172.188                    22752180.660
 115556242.163 7  90043887.25245  21989618.609                    21989626.602
 115736075.921 7  90184101.59945  22023814.445                    22023819.434
 11  8 24  2 25 30.0000000  0  9G21G12G15G29G25G05G26G30G02
 132076226.389 5 102916609.93942  25133278.055                    25133287.418
 116442385.537 7  90734402.292 7  22158247.289                    22158254.801
 123996681.262 6  96620807.387 6  23595775.547                    23595784.758
 114870154.616 8  89509277.504 7  21859065.133                    21859072.770
 114296981.673 8  89062581.659 7  21749975.852                    21749986.113
 109180675.341 8  85075943.915 7  20776361.227                    20776367.926
 119477628.921 7  93099531.79944  22735835.273                    22735843.441
 115594018.622 7  90073323.45145  21996806.867                    21996815.512
 115777697.868 7  90216534.29345  22031734.391                    22031739.844
 11  8 24  2 26  0.0000000  0  9G21G12G15G29G25G05G26G30G02
 132020670.702 5 102873319.96842  25122706.117                    25122716.148
 116522332.266 7  90796698.424 7  22173460.563                    22173468.277
 123900522.630 7  96545878.681 6  23577477.477                    23577486.324
 114794466.203 7  89450299.589 7  21844662.172                    21844669.730
 114325496.503 8  89084800.993 7  21755402.250                    21755412.141
 109231862.773 8  85115830.234 7  20786101.656                    20786108.777
 119392032.924 7  93032833.68744  22719546.445                    22719555.098
 115632292.230 7  90103147.03645  22004090.109                    22004098.402
 115819403.364 7  90249032.09845  22039670.828                    22039676.195
 11  8 24  2 26 30.0000000  0  9G21G12G15G29G25G05G26G30G02
 131965117.145 6 102830031.43242  25112134.969                    25112144.734
 116602565.237 7  90859217.608 7  22188728.414                    22188735.953
 123804384.112 6  96470965.640 6  23559182.117                    23559191.164
 114718956.849 7  89391461.190 7  21830292.773                    21830301.043
 114354528.216 8  89107423.115 7  21760926.820                    21760936.645
 109283457.011 8  85156033.546 8  20795919.789                    20795926.977
 119306695.995 7  92966337.43244  22703307.414                    22703316.598
 115671060.245 7  90133355.87345  22011467.547                    22011475.828
 115861192.484 7  90281595.06145  22047623.094                    22047628.512
 11  8 24  2 27  0.0000000  0  9G21G12G15G29G25G05G26G30G02
 131909564.959 6 102786744.10842  25101563.000                    25101573.375
 116683080.814 7  90921957.011 7  22204050.141                    22204057.449
 123708268.250 7  96396070.207 6  23540892.656                    23540900.078
 114643628.162 8  89332763.573 7  21815958.305                    21815966.238
 114384074.627 8  89130446.283 7  21766549.281                    21766559.508
 109335455.172 8  85196551.597 8  20805814.539                    20805821.809
 119221621.440 7  92900045.63844  22687118.492                    22687127.180
 115710319.957 8  90163947.85445  22018938.531                    22018947.016
 115903064.972 7  90314222.99245  22055590.320                    22055596.547
 11  8 24  2 27 30.0000000  0  9G21G12G15G29G25G05G26G30G02
 131854013.842 6 102743457.56242  25090992.492                    25091001.566
 116763877.193 7  90984915.194 7  22219424.719                    22219433.031
 123612178.427 7  96321195.086 6  23522606.563                    23522615.160
 114568482.858 7  89274208.848 7  21801658.547                    21801666.270
 114414134.459 8  89153869.521 7  21772269.469                    21772279.891
 109387855.549 8  85237383.053 7  20815786.078                    20815792.977
 119136813.499 7  92833961.59244  22670980.125                    22670988.574
 115750069.512 7  90194921.53145  22026502.297                    22026511.043
 115945021.293 7  90346916.24245  22063574.805                    22063580.766
 11  8 24  2 28  0.0000000  0  9G21G12G15G29G25G05G26G30G02
 131798463.414 6 102700171.61042  25080421.914                    25080430.516
 116844951.420 7  91048089.896 7  22234852.656                    22234860.742
 123516117.884 7  96246342.808 6  23504327.273                    23504336.063
 114493523.698 8  89215799.162 7  21787394.547                    21787401.703
 114444706.338 8  89177691.764 7  21778086.844                    21778097.125
 109440656.330 8  85278526.520 8  20825834.109                    20825840.887
 119052276.281 7  92768088.50344  22654893.281                    22654901.309
 115790306.984 8  90226275.39145  22034159.633                    22034167.863
 115987061.873 7  90379675.15145  22071575.500                    22071580.680
 11  8 24  2 28 30.0000000  0  9G21G12G15G29G25G05G26G30G02
 131742912.489 6 102656885.22443  25069850.359                    25069858.910
 116926299.611 7  91111478.080 7  22250332.820                    22250341.160
 123420088.903 7  96171515.124 6  23486053.766                    23486061.852
 114418752.229 8  89157535.729 7  21773165.539                    21773173.332
 114475787.803 8  89201911.081 7  21784001.461                    21784011.742
 109493854.067 8  85319979.299 7  20835956.992                    20835963.820
 118968012.760 7  92702428.66444  22638858.289                    22638866.547
 115831029.480 8  90258007.19145  22041908.789                    22041916.691
 116029186.419 8  90412499.49145  22079591.352                    22079596.848
 11  8 24  2 29  0.0000000  0  9G21G12G15G29G25G05G26G30G02
 131687360.773 6 102613598.20142  25059278.781                    25059288.355
 117007919.320 7  91175077.837 7  22265864.836                    22265872.234
 123324095.185 7  96096714.895 6  23467786.766                    23467794.508
 114344171.265 8  89099420.729 7  21758973.461                    21758981.176
 114507377.533 8  89226526.441 7  21790012.727                    21790022.891
 109547447.409 8  85361740.349 8  20846155.539                    20846162.746
 118884027.151 7  92636985.41045  22622875.922                    22622884.730
 115872235.113 8  90290115.47345  22049750.047                    22049758.262
 116071395.562 7  90445389.75745  22087623.414                    22087628.695
 11  8 24  2 29 30.0000000  0  9G21G12G15G29G25G05G26G30G02
 131631807.659 6 102570310.09143  25048708.109                    25048716.711
 117089807.353 7  91238886.672 7  22281447.383                    22281455.281
 123228139.012 7  96021943.911 6  23449526.398                    23449534.828
 114269782.782 8  89041455.723 7  21744817.570                    21744825.492
 114539473.242 8  89251536.071 7  21796120.461                    21796130.570
 109601433.325 8  85403807.294 7  20856428.891                    20856435.840
 118800322.536 7  92571761.09945  22606947.391                    22606955.996
 115913921.101 7  90322598.04045  22057682.617                    22057690.918
 116113689.308 7  90478345.92945  22095671.703                    22095677.363
 11  8 24  2 30  0.0000000  0  9G21G12G15G29G25G05G26G30G02
 131576252.732 6 102527020.56043  25038135.188                    25038144.039
 117171961.028 7  91302902.488 7  22297080.906                    22297088.508
 123132223.867 7  95947204.902 6  23431273.867                    23431282.980
 114195589.584 7  88983642.879 7  21730698.992                    21730707.031
 114572073.701 8  89276939.014 7  21802324.508                    21802334.684
 109655810.339 8  85446178.991 7  20866776.375                    20866783.117
 118716903.220 7  92506759.10145  22591072.813                    22591081.836
 115956085.624 7  90355453.49845  22065705.961                    22065714.566
 116156068.484 7  90511368.68545  22103735.922                    22103741.785
 11  8 24  2 30 30.0000000  0  9G21G12G15G29G25G05G26G30G02
 131520695.466 6 102483729.21043  25027563.219                    25027572.816
 117254377.359 7  91367122.987 7  22312764.086                    22312772.211
 123036352.686 7  95872500.193 6  23413030.617                    23413039.465
 114121593.647 8  88925983.742 7  21716618.586                    21716626.059
 114605176.718 8  89302733.568 7  21808623.516                    21808633.750
 109710575.843 8  85488853.404 8  20877197.961                    20877204.840
 118633772.580 7  92441982.04144  22575253.953                    22575262.652
 115998726.105 7  90388679.82145  22073820.445                    22073828.875
 116198533.090 7  90544458.00545  22111816.656                    22111822.066
 11  8 24  2 31  0.0000000  0  9G21G12G15G29G25G05G26G30G02
 131465135.002 6 102440435.39043  25016991.148                    25016999.855
 117337052.943 7  91431545.498 7  22328496.969                    22328504.695
 122940528.523 7  95797832.096 6  23394795.727                    23394804.707
 114047797.166 7  88868480.031 7  21702575.070                    21702582.883
 114638780.447 8  89328918.280 7  21815018.195                    21815028.293
 109765727.051 8  85531828.373 7  20887692.766                    20887699.820
 118550934.431 7  92377432.89844  22559490.109                    22559498.945
 116041840.092 7  90422275.12845  22082024.586                    22082033.059
 116241083.063 7  90577613.84745  22119913.781                    22119919.242
 11  8 24  2 31 30.0000000  0  9G21G12G15G29G25G05G26G30G02
 131409570.739 6 102397138.59943  25006418.016                    25006425.840
 117419984.513 7  91496167.467 7  22344277.977                    22344286.113
 122844753.771 7  95723202.503 6  23376570.586                    23376579.066
 113974202.432 8  88811133.514 7  21688570.688                    21688578.258
 114672882.620 8  89355491.397 7  21821507.609                    21821517.785
 109821261.451 8  85575101.931 8  20898260.445                    20898267.844
 118468392.064 7  92313114.23945  22543783.305                    22543791.844
 116085424.838 7  90456237.24745  22090318.781                    22090326.703
 116283718.665 7  90610836.41245  22128026.563                    22128032.938
 11  8 24  2 32  0.0000000  0  9G21G12G15G29G25G05G26G30G02
 131354002.070 6 102353838.36143  24995843.211                    24995851.609
 117503169.378 7  91560986.815 7  22360107.813                    22360115.516
 122749031.845 7  95648614.053 6  23358354.891                    23358363.699
 113900811.707 8  88753945.970 7  21674604.664                    21674612.352
 114707481.523 8  89382451.571 7  21828091.766                    21828101.902
 109877176.880 8  85618672.402 8  20908900.789                    20908907.980
 118386149.345 7  92249029.06445  22528132.789                    22528141.531
 116129478.140 7  90490564.48245  22098701.813                    22098710.250
 116326440.203 7  90644125.95445  22136156.523                    22136162.328
 11  8 24  2 32 30.0000000  0  9G21G12G15G29G25G05G26G30G02
 131298428.501 6 102310534.34143  24985268.086                    24985276.121
 117586604.373 7  91626001.076 7  22375984.922                    22375992.688
 122653365.663 7  95574069.043 6  23340150.172                    23340159.207
 113827627.270 8  88696919.157 7  21660677.852                    21660685.469
 114742575.274 8  89409797.339 7  21834769.664                    21834779.844
 109933471.053 8  85662537.991 7  20919613.258                    20919620.441
 118304210.010 7  92185180.28844  22512540.078                    22512548.867
 116173997.499 7  90525254.87045  22107173.531                    22107181.867
 116369248.072 7  90677482.74345  22144302.891                    22144308.309
 11  8 24  2 33  0.0000000  0  9G21G12G15G29G25G05G26G30G02
 131242849.413 6 102267225.97843  24974692.141                    24974699.930
 117670286.520 7  91691207.916 7  22391909.281                    22391916.945
 122557758.285 7  95499569.862 6  23321956.859                    23321965.828
 113754651.721 8  88640055.128 7  21646791.516                    21646798.902
 114778161.659 8  89437526.985 7  21841541.547                    21841552.117
 109990141.475 8  85706696.764 7  20930396.906                    20930404.504
 118222577.557 7  92121570.63844  22497005.383                    22497014.508
 116218980.382 7  90560306.46245  22115733.195                    22115742.023
 116412142.377 7  90710906.88445  22152464.867                    22152470.629
 11  8 24  2 33 30.0000000  0  9G21G12G15G29G25G05G26G30G02
 131187264.267 6 102223912.91243  24964114.930                    24964122.270
 117754212.618 7  91756604.847 7  22407879.742                    22407887.543
 122462212.619 7  95425118.796 6  23303775.266                    23303784.004
 113681886.767 8  88583355.191 7  21632944.281                    21632952.301
 114814238.667 8  89465638.934 7  21848406.602                    21848417.172
 110047185.674 8  85751146.780 7  20941252.359                    20941259.922
 118141255.658 7  92058202.97844  22481531.117                    22481539.617
 116264424.209 7  90595717.21045  22124380.789                    22124389.328
 116455123.193 7  90744398.43645  22160644.242                    22160649.715
 11  8 24  2 34  0.0000000  0  9G21G12G15G29G25G05G26G30G02
 131131672.680 6 102180594.81443  24953535.133                    24953543.461
 117838379.972 7  91822189.773 7  22423896.391                    22423904.059
 122366732.007 7  95350718.392 6  23285606.031                    23285614.246
 113609335.485 8  88526821.757 7  21619138.766                    21619146.176
 114850804.797 8  89494132.009 7  21855365.391                    21855374.945
 110104601.824 8  85795886.643 7  20952178.242                    20952185.316
 118060248.343 7  91995080.45444  22466115.656                    22466123.984
 116310326.866 7  90631485.49545  22133116.547                    22133123.961
 116498191.172 7  90777957.90545  22168839.609                    22168845.270
 11  8 24  2 34 30.0000000  0  9G21G12G15G29G25G05G26G30G02
 131076073.950 6 102137271.18943  24942955.688                    24942963.887
 117922785.787 7  91887960.515 7  22439958.289                    22439966.191
 122271319.082 7  95276370.712 6  23267449.094                    23267457.844
 113537000.112 8  88470456.578 7  21605374.086                    21605381.191
 114887857.766 8  89523004.449 7  21862415.977                    21862426.160
 110162387.148 8  85840914.171 7  20963174.477                    20963181.742
 117979559.070 7  91932205.74845  22450760.828                    22450769.633
 116356685.748 7  90667609.29345  22141937.859                    22141946.102
 116541346.713 7  90811585.60345  22177051.922                    22177057.684
 11  8 24  2 35  0.0000000  0  9G21G12G15G29G25G05G26G30G02
 131020467.113 6 102093941.19643  24932373.727                    24932382.063
 118007426.672 7  91953914.429 7  22456065.211                    22456072.836
 122175977.133 7  95202078.350 6  23249306.461                    23249315.398
 113464882.886 8  88414261.359 7  21591650.320                    21591657.664
 114925395.324 8  89552254.499 7  21869559.148                    21869568.934
 110220538.990 8  85886227.292 7  20974240.547                    20974247.547
 117899191.418 7  91869581.66144  22435467.383                    22435475.605
 116403498.150 7  90704086.47945  22150846.172                    22150853.883
 116584589.853 7  90845281.56445  22185280.742                    22185286.121
 11  8 24  2 35 30.0000000  0  9G21G12G15G29G25G05G26G30G02
 130964851.971 6 102050604.74743  24921790.602                    24921798.848
 118092299.134 7  92020048.782 7  22472215.906                    22472223.832
 122080708.961 7  95127843.483 6  23231176.875                    23231185.746
 113392985.751 8  88358237.664 7  21577968.797                    21577976.082
 114963415.283 8  89581880.439 7  21876794.414                    21876804.590
 110279054.935 8  85931824.127 7  20985376.070                    20985382.766
 117819148.691 7  91807210.74245  22420235.688                    22420244.023
 116450761.239 8  90740914.85245  22159840.195                    22159848.250
 116627920.666 7  90879045.84145  22193526.289                    22193532.141
 11  8 24  2 36  0.0000000  0  9G21G12G15G29G25G05G26G30G02
 130909227.726 6 102007261.23843  24911205.047                    24911214.020
 118177399.963 7  92086361.095 7  22488409.727                    22488417.848
 121985517.427 7  95053668.325 6  23213062.422                    23213071.125
 113321310.819 8  88302387.101 7  21564329.297                    21564336.902
 115001915.363 8  89611880.491 7  21884120.594                    21884130.875
 110337932.258 8  85977702.557 7  20996579.414                    20996586.984
 117739434.692 7  91745095.99044  22405066.664                    22405074.863
 116498472.353 7  90778092.32745  22168919.102                    22168927.156
 116671339.271 7  90912878.52445  22201788.844                    22201794.109
 11  8 24  2 36 30.0000000  0  9G21G12G15G29G25G05G26G30G02
 130853594.368 6 101963910.62143  24900618.727                    24900627.160
 118262726.994 7  92152849.667 7  22504647.031                    22504654.898
 121890405.866 7  94979555.462 6  23194963.563                    23194971.574
 113249861.354 8  88246712.224 7  21550732.781                    21550740.344
 115040894.134 8  89642253.559 7  21891538.273                    21891548.066
 110397169.733 8  86023861.616 7  21007852.320                    21007859.043
 117660053.465 7  91683240.53544  22389960.664                    22389968.875
 116546629.573 7  90815617.43045  22178083.211                    22178091.391
 116714846.754 7  90946780.45545  22210067.742                    22210073.398
 11  8 24  2 37  0.0000000  0  9G21G12G15G29G25G05G26G30G02
 130797950.716 6 101920552.00343  24890030.500                    24890038.395
 118348276.555 7  92219511.630 7  22520926.469                    22520934.664
 121795377.303 7  94905507.279 6  23176880.070                    23176888.328
 113178639.194 8  88191214.476 7  21537179.711                    21537187.121
 115080349.022 8  89672997.620 7  21899046.063                    21899056.336
 110456764.102 8  86070298.783 7  21019192.930                    21019199.555
 117581008.173 7  91621646.84345  22374918.844                    22374926.984
 116595229.852 7  90853487.77845  22187331.797                    22187340.000
 116758443.164 7  90980751.67645  22218363.813                    22218369.324
 11  8 24  2 37 30.0000000  0  9G21G12G15G29G25G05G26G30G02
 130742296.363 6 101877185.04242  24879438.898                    24879447.277
 118434045.569 7  92286344.596 7  22537247.453                    22537256.316
 121700434.701 7  94831526.097 6  23158812.539                    23158821.527
 113107646.482 8  88135895.505 7  21523670.180                    21523677.691
 115120277.799 8  89704110.953 7  21906644.086                    21906654.449
 110516712.756 8  86117012.015 7  21030600.891                    21030607.617
 117502302.468 7  91560317.77345  22359941.414                    22359949.820
 116644270.491 7  90891701.25745  22196663.797                    22196671.563
 116802128.505 7  91014792.19345  22226676.883                    22226682.906
 11  8 24  2 38  0.0000000  0  9G21G12G15G29G25G05G26G30G02
 130686630.974 6 101833809.45142  24868845.859                    24868855.047
 118520031.469 7  92353346.570 7  22553610.211                    22553618.754
 121605580.726 7  94757613.967 6  23140762.852                    23140771.535
 113036885.834 8  88080757.371 7  21510204.531                    21510212.301
 115160678.488 8  89735592.000 7  21914332.250                    21914342.203
 110577013.536 8  86163999.625 7  21042075.719                    21042082.453
 117423940.114 7  91499256.23845  22345029.336                    22345037.961
 116693749.000 7  90930255.93245  22206079.359                    22206087.531
 116845903.287 7  91048902.39145  22235007.305                    22235012.621
 11  8 24  2 38 30.0000000  0  9G21G12G15G29G25G05G26G30G02
 130630953.859 6 101790424.69642  24858250.938                    24858259.555
 118606230.798 7  92420514.840 7  22570013.766                    22570021.773
 121510819.118 7  94683773.802 6  23122730.320                    23122738.707
 112966359.525 8  88025801.843 7  21496784.055                    21496791.730
 115201548.732 8  89767438.936 7  21922109.539                    21922119.727
 110637663.981 8  86211259.703 7  21053616.930                    21053623.949
 117345924.688 7  91438465.04245  22330184.188                    22330192.270
 116743662.685 7  90969149.70845  22215577.039                    22215585.523
 116889767.628 8  91083082.38745  22243354.359                    22243359.863
 11  8 24  2 39  0.0000000  0  9G21G12G15G29G25G05G26G30G02
 130575264.476 6                  24847653.750
 118692641.013 7  92487847.455 7  22586457.109                    22586464.988
 121416152.810 7  94610007.893 6  23104715.844                    23104724.402
 112896070.204 8  87971030.968 7  21483408.563                    21483415.918
 115242886.563 8  89799650.232 7  21929975.867                    21929985.914
 110698661.815 8  86258790.472 7  21065224.859                    21065231.570
 117268260.004 7  91377947.15145  22315405.086                    22315413.078
 116794009.028 7  91008380.62445  22225157.984                    22225166.395
 116933722.214 7  91117332.71545  22251718.227                    22251724.180
 11  8 24  2 39 30.0000000  0  9G21G12G15G29G25G05G26G30G02
 130519562.257 6                  24837054.313
 118779258.350 7  92555341.462 7  22602939.344                    22602947.508
 121321584.714 7  94536318.522 6  23086720.344                    23086728.488
 112826020.211 8  87916446.590 7  21470077.688                    21470085.820
 115284689.741 8  89832224.119 7  21937930.898                    21937940.652
 110760004.598 8  86306590.029 7  21076897.570                    21076904.711
 117190949.632 7  91317705.35945  22300693.391                    22300701.000
 116844785.378 7  91047946.60645  22234820.703                    22234828.738
 116977767.180 7  91151653.46445  22260099.977                    22260105.164
 11  8 24  2 40  0.0000000  0  9G21G12G15G29G25G05G26G30G02
 130463846.635 6                  24826451.305
 118866080.050 7  92622994.697 7  22619461.602                    22619469.316
 121227117.884 7  94462708.050 6  23068743.852                    23068752.473
 112756211.709 8  87862050.376 7  21456794.102                    21456801.641
 115326955.893 8  89865158.772 7  21945973.930                    21945983.785
 110821689.831 8  86354656.421 7  21088635.688                    21088642.914
 117113996.969 7  91257742.28845  22286049.469                    22286057.703
 116895988.937 7  91087845.47745  22244563.953                    22244572.246
 117021902.786 7  91186044.84145  22268498.992                    22268504.477
 11  8 24  2 40 30.0000000  0  9G21G12G15G29G25G05G26G30G02
 130408116.678 6                  24815846.609
 118953102.493 7  92690804.362 7  22636021.281                    22636029.137
 121132755.156 7  94389178.696 6  23050787.117                    23050795.254
 112686646.829 8  87807844.002 7  21443556.531                    21443563.891
 115369682.352 8  89898452.106 7  21954104.055                    21954114.316
 110883714.460 8  86402987.292 7  21100438.609                    21100445.828
 117037405.239 7  91198060.46245  22271474.734                    22271483.113
 116947616.448 7  91128074.70045  22254388.461                    22254396.492
 117066129.214 7  91220506.98045  22276914.813                    22276919.844
 11  8 24  2 41  0.0000000  0  9G21G12G15G29G25G05G26G30G02
 130352372.261 6 101573329.29453  24805238.773                    24805245.785
 119040323.289 7  92758768.592 7  22652619.008                    22652626.355
 121038499.717 7  94315732.941 6  23032850.734                    23032859.434
 112617328.397 8  87753829.673 7  21430365.633                    21430373.055
 115412867.366 8  89932102.744 7  21962322.273                    21962332.086
 110946076.691 8  86451581.227 7  21112305.828                    21112312.895
 116961178.389 7  91138662.97045  22256968.906                    22256977.258
 116999665.866 7  91168632.68645  22264293.617                    22264301.652
 117110447.091 7  91255040.36945  22285348.180                    22285353.602
 11  8 24  2 41 30.0000000  0  9G21G12G15G29G25G05G26G30G02
 130296612.615 6 101529880.24943  24794628.297                    24794636.441
 119127739.137 7  92826884.819 7  22669253.031                    22669261.566
 120944354.869 7  94242373.366 6  23014935.875                    23014944.113
 112548258.405 8  87700008.919 7  21417221.820                    21417229.055
 115456508.450 8  89966108.781 7  21970626.453                    21970637.059
 111008773.968 8  86500436.238 7  21124236.883                    21124243.949
 116885320.129 7  91079552.67845  22242533.477                    22242541.652
 117052134.238 7  91209517.12245  22274277.242                    22274286.148
 117154856.742 8  91289645.27845  22293799.125                    22293804.691
 11  8 24  2 42  0.0000000  0  9G21G12G15G29G25G05G26G30G02
 130240837.272 7 101486418.99343  24784014.531                    24784022.559
 119215346.704 7  92895150.426 7  22685925.086                    22685932.914
 120850323.516 7  94169102.236 7  22997041.570                    22997050.531
 112479438.807 8  87646383.292 7  21404126.109                    21404133.547
 115500603.093 8  90000468.223 7  21979018.063                    21979028.066
 111071803.578 8  86549550.206 7  21136230.734                    21136237.980
 116809833.800 7  91020732.21645  22228168.992                    22228177.465
 117105018.575 7  91250725.68045  22284341.359                    22284349.395
 117199358.117 8  91324321.66845  22302267.453                    22302273.066
 11  8 24  2 42 30.0000000  0  9G21G12G15G29G25G05G26G30G02
 130185045.881 7 101442945.24443  24773397.414                    24773405.824
 119303143.407 7  92963563.408 7  22702632.172                    22702640.031
 120756408.786 7  94095921.979 6  22979170.703                    22979179.063
 112410872.966 8  87592955.391 7  21391078.297                    21391085.746
 115545149.361 8  90035179.596 7  21987494.297                    21987504.789
 111135163.449 8  86598921.526 7  21148287.805                    21148295.008
 116734723.142 7  90962204.47345  22213875.773                    22213884.293
 117158316.570 7  91292256.58945  22294482.891                    22294491.664
 117243952.102 7  91359070.21745  22310753.508                    22310759.645
 11  8 24  2 43  0.0000000  0  9G21G12G15G29G25G05G26G30G02
 130129237.637 7 101399458.30843  24762777.273                    24762785.516
 119391125.620 7  93032120.946 7  22719374.492                    22719382.117
 120662613.777 7  94022834.992 7  22961321.664                    22961330.277
 112342562.641 8  87539726.589 7  21378079.133                    21378087.031
 115590144.593 8  90070240.801 7  21996056.836                    21996067.199
 111198850.883 8  86648548.099 7  21160407.039                    21160414.344
 116659991.718 7  90903972.24145  22199654.992                    22199663.148
 117212025.117 7  91334107.40245  22304703.500                    22304712.172
 117288638.831 7  91393891.04045  22319257.180                    22319262.688
 11  8 24  2 43 30.0000000  0 10G21G12G15G29G25G05G26G30G18G02
 130073412.027 7 101355957.88643  24752155.375                    24752162.852
 119479290.354 7  93100820.715 7  22736151.172                    22736159.598
 120568941.435 7  93949843.627 7  22943496.586                    22943505.141
 112274510.234 8  87486698.772 7  21365129.180                    21365136.945
 115635586.411 8  90105649.992 7  22004704.000                    22004714.590
 111262863.135 8  86698427.769 7  21172588.570                    21172595.730
 116585642.779 7  90846038.04445  22185507.078                    22185515.266
 117266141.363 7  91376275.89945  22315001.516                    22315010.445
 129711951.66716 101074304.19553  24683370.609                    24683378.070
 117333418.505 7  91428784.29245  22327778.438                    22327783.641
 11  8 24  2 44  0.0000000  0 10G21G12G15G29G25G05G26G30G18G02
 130017568.528 7 101312443.50943  24741527.633                    24741535.668
 119567634.923 7  93169660.605 7  22752963.461                    22752970.879
 120475395.067 7  93876950.408 6  22925695.250                    22925703.375
 112206718.333 8  87433873.946 7  21352229.258                    21352236.313
 115681472.542 8  90141405.417 7  22013435.719                    22013445.797
 111327197.914 8  86748558.766 7  21184830.734                    21184837.848
 116511680.025 7  90788404.77345  22171432.406                    22171440.633
 117320662.673 7  91418760.04345  22325376.633                    22325385.023
 129622696.521 6 101004754.86743  24666385.734                    24666394.293
 117378291.682 7  91463750.39745  22336317.734                    22336322.789
 11  8 24  2 44 30.0000000  0 10G21G12G15G29G25G05G26G30G18G02
 129961706.942 6 101268915.04943  24730897.320                    24730905.766
 119656156.141 7  93238638.141 7  22769807.781                    22769816.500
 120381977.414 7  93804157.475 6  22907918.586                    22907926.758
 112139189.372 8  87381253.997 7  21339378.578                    21339386.004
 115727800.562 8  90177505.159 7  22022251.805                    22022261.887
 111391852.906 8  86798939.276 7  21197134.445                    21197141.438
 116438107.189 7  90731075.33045  22157431.719                    22157440.309
 117375586.191 7  91461557.58045  22335828.766                    22335836.668
 129533607.179 6 100935334.72043  24649432.266                    24649442.145
 117423258.604 7  91498789.54945  22344874.500                    22344879.680
 11  8 24  2 45  0.0000000  0 10G21G12G15G29G25G05G26G30G18G02
 129905826.361 7 101225371.78844  24720264.773                    24720272.156
 119744850.466 7  93307750.557 7  22786685.820                    22786694.168
 120288691.514 7  93731467.220 6  22890166.648                    22890174.949
 112071925.517 8  87328840.650 7  21326578.570                    21326586.547
 115774567.890 8  90213947.212 7  22031151.445                    22031161.766
 111456825.385 8  86849567.180 7  21209498.086                    21209505.336
 116364927.389 7  90674052.15545  22143505.570                    22143514.145
 117430908.886 7  91504666.16945  22346355.977                    22346364.656
 129444684.901 6 100866044.75643  24632511.055                    24632520.941
 117468319.602 7  91533902.00945  22353449.031                    22353454.945
 11  8 24  2 45 30.0000000  0 10G21G12G15G29G25G05G26G30G18G02
 129849926.379 6 101181813.41543  24709625.984                    24709634.543
 119833715.083 7  93376995.671 7  22803596.492                    22803604.703
 120195540.851 7  93658882.338 6  22872440.664                    22872448.809
 112004928.920 8  87276635.537 7  21313829.852                    21313837.109
 115821772.122 8  90250729.724 7  22040134.195                    22040144.211
 111522112.980 8  86900440.630 7  21221921.758                    21221929.008
 116292144.113 7  90617337.94545  22129655.953                    22129664.188
 117486628.036 7  91548083.68445  22356958.914                    22356967.090
 129355930.517 6 100796885.62042  24615621.219                    24615630.684
 117513475.191 7  91569088.19045  22362041.609                    22362047.098
 11  8 24  2 46  0.0000000  0 10G21G12G15G29G25G05G26G30G18G02
 129794006.523 6 101138239.56743  24698985.328                    24698993.590
 119922747.123 7  93446371.247 7  22820539.477                    22820546.859
 120102528.668 7  93586405.362 6  22854741.203                    22854749.047
 111938202.569 8  87224641.009 7  21301132.281                    21301139.504
 115869411.148 8  90287851.026 7  22049199.656                    22049210.023
 111587713.453 8  86951557.880 7  21234405.469                    21234412.359
 116219761.175 7  90560935.70045  22115881.859                    22115890.367
 117542741.040 7  91591808.08945  22367636.711                    22367645.191
 129267346.003 6 100727858.89743  24598764.344                    24598773.840
 117558725.980 7  91604348.54045  22370652.641                    22370658.039
 11  8 24  2 46 30.0000000  0 10G21G12G15G29G25G05G26G30G18G02
 129738066.368 6 101094649.95043  24688339.938                    24688348.656
 120011943.701 7  93515875.040 7  22837512.984                    22837520.793
 120009657.931 7  93514038.605 6  22837068.203                    22837076.332
 111871748.915 8  87172858.977 7  21288486.359                    21288493.898
 115917482.493 8  90325309.201 7  22058347.313                    22058357.348
 111653624.414 8  87002917.077 7  21246948.047                    21246954.984
 116147782.343 7  90504848.33045  22102184.844                    22102192.813
 117599245.094 7  91635837.20945  22378389.781                    22378397.695
 129178932.827 6 100658965.59242  24581940.016                    24581949.418
 117604072.120 7  91639683.20045  22379282.188                    22379287.172
 11  8 24  2 47  0.0000000  0 10G21G12G15G29G25G05G26G30G18G02
 129682105.668 6 101051044.26343  24677689.891                    24677699.445
 120101301.612 7  93585504.547 7  22854517.141                    22854525.004
 119916931.918 7  93441784.630 6  22819423.461                    22819431.164
 111805570.236 8  87121291.214 7  21275892.797                    21275900.301
 115965983.640 7  90363102.294 7  22067576.680                    22067586.980
 111719843.556 8  87054516.405 7  21259548.883                    21259555.809
 116076210.944 7  90449078.45245  22088565.250                    22088573.324
 117656137.226 7  91680168.71545  22389215.406                    22389223.629
 129090691.929 6 100590206.61542  24565147.391                    24565157.930
 117649514.103 7  91675092.51845  22387929.289                    22387934.754
 11  8 24  2 47 30.0000000  0 10G21G12G15G29G25G05G26G30G18G02
 129626123.318 6 101007421.77943  24667037.680                    24667046.434
 120190817.578 7  93655257.209 6  22871551.086                    22871559.352
 119824353.580 7  93369645.730 6  22801805.836                    22801814.117
 111739668.748 8  87069939.447 7  21263351.969                    21263359.707
 116014912.007 8  90401228.268 7  22076887.234                    22076897.758
 111786367.992 8  87106353.640 7  21272207.867                    21272215.449
 116005050.581 8  90393628.83945  22075023.875                    22075031.750
 117713414.485 7  91724800.33545  22400115.164                    22400122.953
 129002624.843 5 100521582.95542  24548389.125                    24548399.023
 117695052.321 7  91710576.83545  22396595.023                    22396600.531
 11  8 24  2 48  0.0000000  0 10G21G12G15G29G25G05G26G30G18G02
 129570118.925 6 100963782.04243  24656380.055                    24656388.953
 120280488.266 7  93725130.431 6  22888614.688                    22888622.414
 119731925.717 7  93297624.061 6  22784217.570                    22784225.609
 111674046.527 8  87018805.279 7  21250864.719                    21250872.063
 116064264.787 8  90439684.959 7  22086278.742                    22086289.406
 111853194.656 8  87158426.362 7  21284924.406                    21284931.641
 115934303.856 7  90338501.56345  22061560.859                    22061568.758
 117771073.615 7  91769729.51945  22411087.203                    22411095.598
 128914732.133 6 100453095.29642  24531664.055                    24531673.172
 117740686.879 7  91746136.22645  22405279.008                    22405284.664
 11  8 24  2 48 30.0000000  0 10G21G12G15G29G25G05G26G30G18G02
 129514092.297 6 100920125.03443  24645718.367                    24645726.719
 120370311.187 7  93795122.288 6  22905707.867                    22905715.496
 119639651.655 7  93225722.248 6  22766658.469                    22766666.543
 111608706.518 8  86967891.014 7  21238430.977                    21238438.059
 116114039.885 8  90478470.716 7  22095751.141                    22095761.465
 111920322.406 8  87210733.695 7  21297698.516                    21297705.813
 115863975.223 7  90283700.05745  22048177.680                    22048185.914
 117829112.254 7  91814954.40145  22422131.945                    22422140.215
 128827015.568 6 100384744.80742  24514971.977                    24514981.020
 117786418.542 7  91781771.27445  22413981.125                    22413987.250
 11  8 24  2 49  0.0000000  0 10G21G12G15G29G25G05G26G30G18G02
 129458042.748 6 100876450.18043  24635052.125                    24635061.086
 120460282.976 7  93865230.152 6  22922829.094                    22922836.484
 119547534.682 7  93153942.869 7  22749129.148                    22749137.121
 111543650.694 8  86917198.199 7  21226051.117                    21226058.363
 116164234.608 8  90517583.471 7  22105302.820                    22105313.039
 111987747.981 8  87263273.101 7  21310529.172                    21310536.270
 115794067.856 7  90229226.81245  22034874.977                    22034882.734
 117887527.242 7  91860472.55145  22433248.070                    22433256.082
 128739476.280 6 100316532.51443  24498313.344                    24498323.031
 117832247.505 7  91817482.14245  22422702.195                    22422707.504
 11  8 24  2 49 30.0000000  0 10G21G12G15G29G25G05G26G30G18G02
 129401969.330 6 100832756.67243  24624382.398                    24624390.375
 120550400.119 7  93935451.267 6  22939977.117                    22939985.082
 119455577.073 7  93082287.642 6  22731629.922                    22731637.629
 111478881.240 8  86866728.528 7  21213726.289                    21213733.191
 116214845.910 8  90557020.812 7  22114934.109                    22114944.129
 112055468.621 8  87316042.430 7  21323416.484                    21323423.328
 115724584.420 7  90175083.90245  22021652.063                    22021660.820
 117946315.188 7  91906281.31745  22444434.859                    22444442.910
 128652115.248 6 100248459.06543  24481689.758                    24481698.633
 117878174.005 7  91853269.01045  22431441.711                    22431447.117
 11  8 24  2 50  0.0000000  0 10G21G12G15G29G25G05G26G30G18G02
 129345872.339 6 100789044.82443  24613707.359                    24613715.594
 120640660.350 7  94005783.887 6  22957153.414                    22957161.234
 119363782.978 7  93010759.824 7  22714161.898                    22714170.203
 111414401.234 8  86816484.397 7  21201455.648                    21201462.773
 116265871.901 8  90596781.302 7  22124644.148                    22124653.746
 112123482.366 8  87369040.153 7  21336358.828                    21336365.801
 115655529.189 8  90121274.65645  22008511.469                    22008519.770
 118005473.831 7  91952378.94945  22455692.148                    22455700.672
 128564934.026 6 100180525.79743  24465099.180                    24465108.781
 117924198.626 7  91889132.33945  22440200.008                    22440205.727
 11  8 24  2 50 30.0000000  0 10G21G12G15G29G25G05G26G30G18G02
 129289750.791 6 100745313.87343  24603027.219                    24603035.941
 120731059.848 7  94076225.030 6  22974356.336                    22974363.406
 119272155.129 7  92939361.569 7  22696725.500                    22696734.070
 111350212.597 8  86766467.307 7  21189241.242                    21189248.391
 116317309.687 8  90636862.672 7  22134432.141                    22134442.500
 112191786.296 8  87422263.993 7  21349356.547                    21349363.969
 115586905.220 7  90067801.47245  21995453.023                    21995461.094
 118064999.868 7  91998762.83645  22467019.609                    22467028.418
 128477933.790 6 100112733.54042  24448543.430                    24448552.582
 117970321.699 7  91925072.36845  22448976.773                    22448982.664
 11  8 24  2 51  0.0000000  0 10G21G12G15G29G25G05G26G30G18G02
 129233604.428 6 100701563.54043  24592343.422                    24592351.398
 120821596.105 7  94146772.740 6  22991583.984                    22991592.309
 119180696.961 7  92868095.537 7  22679322.148                    22679330.453
 111286317.929 8  86716679.286 7  21177082.594                    21177089.586
 116369156.894 8  90677263.064 7  22144298.477                    22144308.797
 112260378.299 8  87475712.313 7  21362409.250                    21362416.203
 115518716.224 7  90014667.21345  21982477.344                    21982485.199
 118124890.664 7  92045430.94245  22478416.641                    22478425.250
 128391115.755 6 100045083.29143  24432022.297                    24432031.977
 118016543.793 7  91961089.55545  22457772.805                    22457778.359
 11  8 24  2 51 30.0000000  0 10G21G12G15G29G25G05G26G30G18G02
 129177432.642 6 100657793.41143  24581654.703                    24581662.176
 120912265.911 7  94217424.501 6  23008838.750                    23008846.695
 119089411.117 7  92796963.769 7  22661950.375                    22661958.863
 111222719.659 7  86667122.222 7  21164979.609                    21164986.914
 116421410.826 8  90717980.396 7  22154241.805                    22154252.406
 112329255.964 8  87529383.214 7  21375515.898                    21375523.234
 115450965.504 7  89961874.46745  21969584.234                    21969592.598
 118185143.017 7  92092380.81345  22489882.258                    22489890.180
 128304481.313 6  99977576.07143  24415536.273                    24415545.082
 118062865.494 7  91997184.34745  22466587.734                    22466593.477
 11  8 24  2 52  0.0000000  0 10G21G12G15G29G25G05G26G30G18G02
 129121234.859 6 100614003.01643  24570959.633                    24570968.723
 121003066.048 7  94288177.814 6  23026117.148                    23026125.027
 118998300.566 7  92725968.602 7  22644612.961                    22644621.215
 111159419.953 7  86617797.804 7  21152934.414                    21152941.344
 116474068.654 8  90759012.454 7  22164262.203                    22164272.547
 112398416.644 8  87583274.662 7  21388677.133                    21388683.980
 115383656.370 7  89909425.82045  21956776.094                    21956784.453
 118245753.817 7  92139609.96645  22501415.867                    22501424.078
 128218031.278 6  99910212.52843  24399085.555                    24399093.840
 118109286.921 7  92033356.86045  22475421.500                    22475427.148
 11  8 24  2 52 30.0000000  0 10G21G12G15G29G25G05G26G30G18G02
 129065010.889 7 100570192.17743  24560261.906                    24560268.367
 121093993.680 7  94359030.467 6  23043419.594                    23043427.961
 118907368.874 7  92655112.796 7  22627309.055                    22627317.367
 111096421.574 7  86568708.179 7  21140946.078                    21140953.672
 116527127.950 8  90800357.339 7  22174358.391                    22174369.238
 112467858.094 8  87637384.881 7  21401891.266                    21401898.555
 115316792.047 7  89857323.77745  21944052.352                    21944060.301
 118306720.348 7  92187116.32845  22513017.641                    22513025.781
 128131767.032 6  99842993.75143  24382669.453                    24382678.586
 118155808.627 7  92069607.50945  22484274.609                    22484279.746
 11  8 24  2 53  0.0000000  0 10G21G12G15G29G25G05G26G30G18G02
 129008759.955 6 100526360.34643  24549556.813                    24549564.109
 121185045.535 7  94429979.925 7  23060746.484                    23060754.633
 118816619.031 7  92584398.688 7  22610039.914                    22610048.059
 111033726.388 7  86519854.810 7  21129015.711                    21129023.027
 116580585.865 8  90842012.837 7  22184531.836                    22184541.980
 112537577.241 8  87691711.486 7  21415158.234                    21415165.566
 115250375.839 7  89805570.92645  21931413.328                    21931421.816
 118368039.262 7  92234897.27145  22524685.797                    22524694.523
 128045689.707 6  99775920.63243  24366289.516                    24366298.367
 118202430.748 7  92105936.39845  22493145.930                    22493151.473
 11  8 24  2 53 30.0000000  0 10G21G12G15G29G25G05G26G30G18G02
 128952481.655 7 100482507.15143  24538847.539                    24538854.426
 121276218.687 7  94501023.896 7  23078096.406                    23078104.148
 118726054.190 7  92513828.718 7  22592806.008                    22592814.055
 110971337.023 8  86471239.741 7  21117143.219                    21117150.922
 116634439.904 8  90883977.003 7  22194780.133                    22194790.309
 112607572.117 8  87746252.953 7  21428478.023                    21428484.852
 115184411.355 7  89754170.04845  21918860.703                    21918869.113
 118429707.880 7  92282950.70445  22536421.672                    22536429.547
 127959800.589 6  99708994.18643  24349945.359                    24349954.406
 118249154.015 7  92142344.11645  22502036.945                    22502042.859
 11  8 24  2 54  0.0000000  0 10G21G12G15G29G25G05G26G30G18G02
 128896175.464 6 100438632.24443  24528132.664                    24528139.992
 121367509.875 7  94572159.855 6  23095468.516                    23095476.590
 118635677.308 7  92443405.238 7  22575608.281                    22575615.703
 110909256.009 7  86422864.941 7  21105329.695                    21105337.223
 116688687.287 8  90926247.686 7  22205102.688                    22205113.523
 112677840.152 8  87801007.270 7  21441849.680                    21441856.492
 115118901.700 7  89703123.59845  21906394.617                    21906402.816
 118491723.045 7  92331274.19345  22548222.617                    22548230.680
 127874100.885 6  99642215.30943  24333636.453                    24333646.148
 118295978.748 7  92178830.87645  22510947.609                    22510953.332
 11  8 24  2 54 30.0000000  0 10G21G12G15G29G25G05G26G30G18G02
 128839841.007 7 100394735.30843  24517412.969                    24517420.238
 121458915.845 7  94643385.257 6  23112862.805                    23112870.418
 118545491.193 7  92373130.388 7  22558445.773                    22558453.656
 110847485.100 7  86374731.784 7  21093574.992                    21093582.234
 116743325.028 8  90968822.528 7  22215500.367                    22215510.453
 112748378.275 8  87855972.033 7  21455272.375                    21455279.680
 115053849.889 7  89652433.90745  21894015.711                    21894023.684
 118554081.404 7  92379865.09645  22560089.117                    22560097.082
 127788591.109 6  99575584.41043  24317365.070                    24317374.184
 118342905.283 7  92215396.97245  22519877.945                    22519883.051
 11  8 24  2 55  0.0000000  0 10G21G12G15G29G25G05G26G30G18G02
 128783478.064 6 100350816.19043  24506687.102                    24506693.789
 121550434.016 7  94714698.091 6  23130277.586                    23130286.074
 118455499.697 7  92303007.198 7  22541320.625                    22541328.977
 110786027.312 8  86326842.612 7  21081879.914                    21081887.141
 116798350.882 8  91011699.816 7  22225971.156                    22225981.215
 112819184.762 8  87911145.926 7  21468746.898                    21468753.340
 114989259.920 7  89602104.08245  21881724.703                    21881733.242
 118616780.325 7  92428721.38445  22572020.172                    22572028.957
 127703273.078 6  99509102.91143  24301129.313                    24301138.398
 118389934.227 7  92252042.86945  22528827.188                    22528832.422
 11  8 24  2 55 30.0000000  0 10G21G12G15G29G25G05G26G30G18G02
 128727086.142 6 100306874.47543  24495955.906                    24495963.504
 121642061.869 7  94786096.378 6  23147714.242                    23147722.043
 118365706.055 7  92233038.181 7  22524234.008                    22524242.125
 110724885.592 8  86279199.730 7  21070245.086                    21070252.188
 116853762.549 8  91054877.722 7  22236515.750                    22236526.078
 112890257.637 8  87966527.383 7  21482271.133                    21482278.266
 114925135.275 7  89552136.85145  21869522.164                    21869530.430
 118679817.307 7  92477841.09644  22584015.383                    22584024.031
 127618148.277 6  99442772.01843  24284930.914                    24284939.504
 118437066.339 7  92288769.15145  22537796.133                    22537801.770
 11  8 24  2 56  0.0000000  0 10G21G12G15G29G25G05G26G30G18G02
 128670664.735 6 100262909.82843  24485219.492                    24485227.117
 121733795.622 7  94857577.192 6  23165170.641                    23165178.652
 118276112.955 7  92163225.424 7  22507184.898                    22507192.723
 110664061.607 7  86231804.428 7  21058670.789                    21058677.980
 116909556.884 7  91098353.823 7  22247132.773                    22247143.434
 112961593.769 8  88022113.980 7  21495846.039                    21495852.770
 114861478.888 7  89502534.50245  21857408.805                    21857416.961
 118743188.802 7  92527221.46445  22596074.641                    22596083.410
 127533217.340 6  99376592.11643  24268768.688                    24268777.824
 118484301.655 7  92325575.86145  22546784.508                    22546790.332
 11  8 24  2 56 30.0000000  0 10G21G12G15G29G25G05G26G30G18G02
 128614213.087 6 100218921.60543  24474476.594                    24474484.586
 121825632.342 7  94929138.246 6  23182646.008                    23182654.254
 118186723.541 7  92093571.373 7  22490174.430                    22490182.523
 110603557.529 8  86184658.414 7  21047156.883                    21047164.555
 116965730.895 7  91142125.770 7  22257822.508                    22257832.789
 113033190.694 8  88077903.791 7  21509470.703                    21509477.512
 114798293.763 7  89453299.36145  21845385.172                    21845393.793
 118806891.446 7  92576859.87345  22608197.391                    22608205.676
 127448481.472 6  99310564.25943  24252644.164                    24252652.566
 118531640.738 7  92362463.43145  22555793.102                    22555798.695
 11  8 24  2 57  0.0000000  0 10G21G12G15G29G25G05G26G30G18G02
 128557731.083 6 100174909.69443  24463728.844                    24463736.023
 121917569.107 6  95000777.249 6  23200141.375                    23200149.082
 118097541.193 7  92024078.695 7  22473203.477                    22473212.031
 110543376.246 7  86137763.917 7  21035705.047                    21035712.012
 117022282.211 7  91186191.720 7  22268584.047                    22268594.539
 113105046.293 8  88133895.176 7  21523144.336                    21523151.379
 114735583.453 7  89404434.20845  21833452.000                    21833459.988
 118870922.677 7  92626754.33345  22620381.883                    22620390.551
 127363941.970 6  99244689.44143  24236556.102                    24236565.988
 118579084.038 7  92399432.20645  22564821.234                    22564826.641
 11  8 24  2 57 30.0000000  0 10G21G12G15G29G25G05G26G30G18G02
 128501218.249 6 100130873.80743  24452974.086                    24452981.875
 122009602.453 7  95072491.516 6  23217654.648                    23217662.395
 118008568.458 7  91954749.336 7  22456272.477                    22456280.262
 110483519.452 8  86091122.266 7  21024314.898                    21024321.609
 117079207.570 7  91230549.137 7  22279416.289                    22279426.988
 113177157.388 8  88190085.642 7  21536866.305                    21536873.523
 114673350.614 7  89355941.11445  21821608.977                    21821617.648
 118935278.875 7  92676902.01045  22632628.203                    22632636.832
 127279599.338 6  99178967.99742  24220506.344                    24220515.602
 118626631.695 7  92436482.29345  22573868.734                    22573874.555
 11  8 24  2 58  0.0000000  0 10G21G12G15G29G25G05G26G30G18G02
 128444674.381 6 100086813.69443  24442213.977                    24442221.621
 122101730.183 6  95144279.305 6  23235185.633                    23235194.008
 117919809.228 7  91885586.350 7  22439382.539                    22439390.457
 110423990.767 7  86044736.292 7  21012986.500                    21012993.836
 117136504.822 7  91275196.346 7  22290319.758                    22290330.063
 113249522.236 8  88246473.837 7  21550637.195                    21550644.164
 114611599.177 7  89307823.14245  21809858.180                    21809866.117
 118999957.556 7  92727300.99745  22644936.648                    22644945.020
 127195455.178 6  99113401.18543  24204494.297                    24204502.828
 118674284.923 7  92473614.64444  22582937.141                    22582943.012
 11  8 24  2 58 30.0000000  0 10G21G12G15G29G25G05G26G30G18G02
 128388098.566 6 100042728.73943  24431448.352                    24431455.711
 122193948.491 6  95216137.665 6  23252734.750                    23252743.387
 117831266.007 7  91816591.684 7  22422533.109                    22422541.293
 110364791.340 8  85998606.888 7  21001721.297                    21001728.777
 117194170.785 7  91320130.849 7  22301293.477                    22301303.688
 113322138.027 8  88303057.572 7  21564455.633                    21564462.547
 114550331.964 7  89260082.47845  21798199.383                    21798207.270
 119064955.278 7  92777948.57645  22657304.664                    22657313.570
 127111510.610 6  99047989.92943  24188519.781                    24188529.383
 118722043.646 7  92510829.19445  22592025.445                    22592031.109
 11  8 24  2 59  0.0000000  0 10G21G12G15G29G25G05G26G30G18G02
 128331490.572 6  99998618.67043  24420676.422                    24420683.398
 122286254.803 6  95288064.604 6  23270300.383                    23270308.191
 117742941.942 7  91747767.786 7  22405725.703                    22405733.652
 110305923.709 8  85952736.021 7  20990519.352                    20990526.449
 117252202.479 7  91365350.340 7  22312336.555                    22312347.051
 113395002.056 8  88359834.749 7  21578321.055                    21578328.008
 114489552.018 7  89212721.50145  21786633.711                    21786641.703
 119130268.776 7  92828842.18845  22669733.281                    22669742.180
 127027766.353 6  98982734.71043  24172584.313                    24172593.328
 118769908.079 7  92548126.13345  22601133.852                    22601139.641
 11  8 24  2 59 30.0000000  0 10G21G12G15G29G25G05G26G30G18G02
 128274850.171 6  99954483.36143  24409897.961                    24409905.246
 122378645.619 6  95360057.415 6  23287881.289                    23287889.418
 117654840.590 7  91679117.430 7  22388960.203                    22388968.086
 110247390.785 8  85907125.971 7  20979380.703                    20979387.828
 117310597.571 7  91410852.994 7  22323449.117                    22323459.371
 113468112.383 8  88416803.839 7  21592233.141                    21592240.063
 114429263.063 7  89165743.12745  21775160.742                    21775168.980
 119195895.360 7  92879979.77844  22682222.070                    22682230.273
 126944223.883 6  98917636.82143  24156686.539                    24156695.211
 118817879.225 7  92585506.22644  22610262.297                    22610267.941
 11  8 24  3  0  0.0000000  0 10G21G12G15G29G25G05G26G30G18G02
 128218176.682 6  99910322.26343  24399113.164                    24399120.875
 122471118.401 7  95432114.106 6  23305478.141                    23305486.504
 117566964.944 7  91610642.948 7  22372237.859                    22372245.922
 110189194.798 8  85861778.475 7  20968306.219                    20968313.949
 117369353.275 7  91456636.650 7  22334629.414                    22334639.582
 113541466.717 8  88473963.056 7  21606191.992                    21606198.945
 114369468.059 7  89119149.64945  21763782.156                    21763789.996
 119261831.936 7  92931358.91544  22694769.172                    22694777.953
 126860884.313 7  98852696.98343  24140827.766                    24140835.926
 118865957.429 7  92622969.71644  22619411.211                    22619416.793
 11  8 24  3  0 30.0000000  0 10G21G12G15G29G25G05G26G30G18G02
 128161469.735 6  99866135.11643  24388321.898                    24388330.043
 122563669.804 7  95504232.033 6  23323090.211                    23323098.617
 117479317.883 7  91542346.592 7  22355559.375                    22355567.695
 110131337.630 8  85816694.991 7  20957296.375                    20957303.730
 117428466.316 7  91502698.742 7  22345878.156                    22345888.891
 113615062.212 8  88531310.207 7  21620196.805                    21620203.891
 114310169.728 7  89072943.17545  21752497.813                    21752506.094
 119328075.011 7  92982976.89445  22707375.258                    22707383.543
 126777748.298 7  98787915.76043  24125007.398                    24125015.855
 118914142.830 7  92660516.75045  22628580.180                    22628586.461
 11  8 24  3  1  0.0000000  0 10G21G12G15G29G25G05G26G30G18G02
 128104729.189 6  99821921.76043  24377523.813                    24377532.195
 122656297.158 7  95576409.136 6  23340716.586                    23340724.934
 117391902.736 7  91474230.934 7  22338925.031                    22338933.148
 110073822.239 7  85771877.825 7  20946351.875                    20946358.938
 117487934.287 7  91549037.395 7  22357194.883                    22357204.980
 113688896.637 8  88588843.522 7  21634247.125                    21634254.133
 114251371.746 7  89027126.59645  21741309.398                    21741317.258
 119394621.822 7  93034831.53844  22720038.398                    22720046.941
 126694817.126 7  98723294.12943  24109226.031                    24109234.203
 118962436.346 7  92698148.02844  22637770.672                    22637775.949
 11  8 24  3  1 30.0000000  0 10G21G12G15G29G25G05G26G30G18G02
 128047954.290 6  99777681.63843  24366720.305                    24366728.637
 122748996.862 7  95648642.600 6  23358357.711                    23358365.719
 117304722.189 7  91406298.095 7  22322335.070                    22322342.277
 110016650.396 8  85727328.359 7  20935472.125                    20935479.523
 117547753.834 7  91595649.999 7  22368577.602                    22368588.984
 113762967.078 8  88646560.749 7  21648342.242                    21648349.277
 114193076.665 7  88981701.88845  21730215.977                    21730224.063
 119461468.815 7  93086920.07645  22732759.117                    22732767.652
 126612091.731 7  98658832.84843  24093483.758                    24093492.055
 119010838.076 7  92735863.62444  22646981.625                    22646986.828
 11  8 24  3  2  0.0000000  0 10G21G12G15G29G25G05G26G30G18G02
 127991145.120 6  99733414.78343  24355910.148                    24355918.066
 122841767.014 7  95720930.979 6  23376011.109                    23376019.246
 117217780.181 7  91338551.120 7  22305790.500                    22305798.496
 109959825.433 8  85683049.198 7  20924658.742                    20924665.766
 117607922.869 7  91642534.942 7  22380027.813                    22380038.707
 113837271.949 8  88704460.643 7  21662482.266                    21662489.309
 114135288.435 7  88936672.13145  21719218.906                    21719227.402
 119528613.623 7  93139240.70544  22745536.313                    22745544.555
 126529573.593 7  98594533.11543  24077780.820                    24077789.773
 119059348.878 7  92773664.22645  22656212.656                    22656218.363
 11  8 24  3  2 30.0000000  0 10G21G12G15G29G25G05G26G30G18G02
 127934301.063 6  99689120.80443  24345092.992                    24345100.996
 122934604.060 7  95793271.486 6  23393677.211                    23393685.457
 117131079.491 7  91270992.198 7  22289291.633                    22289299.418
 109903349.119 8  85639041.697 7  20913911.836                    20913919.387
 117668438.169 7  91689689.697 7  22391543.109                    22391553.859
 113911808.326 8  88762540.930 7  21676665.828                    21676673.188
 114078009.442 7  88892039.17545  21708319.094                    21708327.270
 119596052.753 7  93191790.65744  22758369.672                    22758378.527
 126447263.615 6  98530395.54343  24062118.141                    24062126.258
 119107968.951 7  92811549.96345  22665464.211                    22665470.438
 11  8 24  3  3  0.0000000  0 10G21G12G15G29G25G05G26G30G18G02
 127877421.543 6  99644799.16443  24334269.086                    24334276.949
 123027504.245 6  95865661.200 6  23411355.492                    23411363.883
 117044622.277 7  91203622.977 7  22272839.203                    22272847.262
 109847223.190 8  85595307.239 7  20903231.680                    20903238.348
 117729296.454 7  91737111.707 7  22403124.234                    22403135.121
 113986573.575 8  88820799.555 7  21690893.516                    21690900.352
 114021242.522 7  88847805.24645  21697517.125                    21697524.832
 119663782.553 7  93244567.09444  22771257.914                    22771266.637
 126365162.292 6  98466420.59643  24046494.602                    24046502.809
 119156698.430 7  92849520.93345  22674737.406                    22674743.352
 11  8 24  3  3 30.0000000  0 10G21G12G15G29G25G05G26G30G18G02
 127820506.577 6  99600449.89543  24323438.164                    24323446.734
 123120465.331 6  95938098.369 6  23429045.414                    23429053.918
 116958413.008 7  91136446.984 7  22256434.078                    22256442.227
 109791450.551 8  85551848.063 7  20892618.320                    20892625.551
 117790495.266 7  91784799.069 7  22414770.852                    22414780.793
 114061565.588 8  88879234.896 7  21705163.703                    21705170.637
 113964991.150 7  88803973.04245  21686812.570                    21686820.309
 119731800.439 7  93297568.03145  22784201.602                    22784209.801
 126283270.637 6  98402608.99343  24030910.773                    24030918.879
 119205538.374 7  92887577.99345  22684031.773                    22684037.293
 11  8 24  3  4  0.0000000  0 10G21G12G15G29G25G05G26G30G18G02
 127763555.296 7  99556072.33743  24312601.148                    24312608.461
 123213484.423 6  96010580.734 6  23446746.281                    23446754.660
 116872454.266 7  91069466.193 7  22240076.453                    22240084.816
 109736033.673 8  85508666.102 8  20882072.656                    20882080.070
 117852031.681 7  91832749.501 7  22426480.461                    22426490.801
 114136781.988 8  88937845.068 7  21719476.813                    21719483.891
 113909258.381 7  88760544.94445  21676206.945                    21676214.488
 119800103.137 7  93350790.89644  22797199.211                    22797207.746
 126201589.787 6  98338961.65443  24015367.555                    24015376.320
 119254489.390 7  92925721.62044  22693346.914                    22693352.430
 11  8 24  3  4 30.0000000  0 10G21G12G15G29G25G05G26G30G18G02
 127706567.383 7  99511666.19343  24301756.859                    24301764.402
 123306558.545 6  96083105.950 6  23464458.148                    23464466.359
 116786748.938 7  91002682.867 7  22223767.742                    22223775.410
 109680974.647 8  85465762.991 7  20871594.828                    20871602.422
 117913902.791 7  91880960.737 7  22438253.711                    22438264.480
 114212220.293 8  88996628.164 7  21733832.867                    21733839.238
 113854046.933 7  88717523.05645  21665700.711                    21665708.738
 119868687.551 7  93404233.25844  22810250.164                    22810258.582
 126120120.947 6  98275479.55243  23999864.016                    23999872.445
 119303551.525 7  92963951.81345  22702683.281                    22702688.770
 11  8 24  3  5  0.0000000  0 10G21G12G15G29G25G05G26G30G18G02
 127649542.696 6  99467231.43844  24290905.141                    24290912.785
 123399684.426 6  96155671.496 6  23482178.805                    23482187.781
 116701300.180 7  90936099.470 7  22207507.211                    22207515.141
 109626275.770 8  85423140.512 7  20861186.375                    20861193.055
 117976105.452 7  91929430.309 7  22450090.789                    22450101.207
 114287877.880 8  89055582.121 7  21748229.625                    21748236.617
 113799359.893 7  88674909.80845  21655294.016                    21655301.711
 119937550.265 7  93457892.48444  22823354.398                    22823362.949
 126038865.278 6  98212163.50643  23984402.188                    23984409.879
 119352725.145 7  93002268.88645  22712041.086                    22712046.258
 11  8 24  3  5 30.0000000  0 10G21G12G15G29G25G05G26G30G18G02
 127592481.142 6  99422767.95244  24280046.883                    24280054.223
 123492859.050 6  96228275.031 6  23499909.859                    23499918.418
 116616111.313 7  90869718.587 7  22191296.086                    22191303.688
 109571939.925 8  85380800.914 7  20850846.594                    20850853.520
 118038637.215 7  91978156.327 7  22461990.000                    22462000.879
 114363752.787 8  89114705.408 7  21762668.211                    21762675.109
 113745200.475 7  88632707.68945  21644987.773                    21644995.805
 120006688.604 7  93511766.48844  22836511.070                    22836519.535
 125957823.681 6  98149014.33643  23968979.750                    23968988.254
 119402011.205 7  93040673.59144  22721419.117                    22721424.887
 11  8 24  3  6  0.0000000  0 10G21G12G15G29G25G05G26G30G18G02
 127535382.208 6  99378275.34143  24269180.742                    24269188.375
 123586079.770 6  96300914.482 6  23517648.820                    23517657.785
 116531185.788 7  90803542.897 7  22175135.695                    22175143.211
 109517969.087 7  85338745.736 7  20840576.125                    20840583.207
 118101495.123 7  92027136.495 7  22473951.672                    22473961.770
 114439842.603 8  89173996.170 7  21777147.469                    21777154.918
 113691571.707 7  88590919.06545  21634782.438                    21634790.277
 120076099.358 7  93565852.76444  22849719.539                    22849727.621
 125876996.775 6  98086032.42143  23953598.680                    23953606.926
 119451410.165 7  93079166.26945  22730818.891                    22730825.359
 11  8 24  3  6 30.0000000  0 10G21G12G15G29G25G05G26G30G18G02
 127478245.273 6  99333753.10443  24258308.289                    24258315.613
 123679343.406 6  96373587.392 6  23535396.336                    23535405.188
 116446526.151 7  90737574.395 7  22159025.039                    22159033.172
 109464365.193 8  85296976.496 7  20830375.797                    20830383.137
 118164675.845 7  92076368.210 7  22485974.547                    22485984.934
 114516144.640 8  89233452.291 7  21791667.133                    21791674.203
 113638476.048 7  88549545.85245  21624678.570                    21624686.203
 120145778.932 7  93620148.49644  22862978.883                    22862987.473
 125796385.549 6  98023218.56643  23938259.289                    23938267.008
 119500922.220 7  93117747.07545  22740241.438                    22740247.375
 11  8 24  3  7  0.0000000  0 10G21G12G15G29G25G05G26G30G18G02
 127421070.337 6  99289201.27343  24247427.891                    24247435.523
 123772647.132 6  96446291.565 6  23553151.656                    23553160.391
 116362135.505 7  90671815.492 7  22142966.563                    22142974.086
 109411131.009 8  85255495.329 8  20820245.461                    20820252.680
 118228176.756 7  92125849.404 7  22498058.039                    22498068.793
 114592656.823 8  89293072.177 7  21806227.039                    21806233.789
 113585916.563 7  88508590.44145  21614676.867                    21614684.508
 120215724.482 7  93674651.50744  22876289.305                    22876297.727
 125715991.057 6  97960573.60343  23922960.555                    23922968.996
 119550548.049 7  93156416.53645  22749685.008                    22749691.070
 11  8 24  3  7 30.0000000  0 10G21G12G15G29G25G05G26G30G18G02
 127363856.869 6  99244619.43043  24236540.680                    24236547.641
 123865987.782 7  96519024.522 6  23570913.938                    23570922.520
 116278016.955 7  90606268.610 7  22126959.242                    22126966.801
 109358268.444 8  85214303.750 8  20810186.148                    20810193.121
 118291994.618 7  92175577.596 7  22510202.523                    22510212.961
 114669376.284 8  89352853.574 7  21820826.273                    21820833.465
 113533896.266 7  88468055.17745  21604777.742                    21604785.605
 120285932.566 7  93729359.06444  22889649.891                    22889657.996
 125635814.061 6  97898098.09243  23907703.680                    23907711.625
 119600288.012 7  93195174.93445  22759150.203                    22759156.270
 11  8 24  3  8  0.0000000  0 10G21G12G15G29G25G05G26G30G18G02
 127306604.280 6  99200007.06543  24225645.664                    24225653.383
 123959362.795 7  96591784.227 6  23588682.969                    23588691.172
 116194173.297 7  90540935.941 7  22111004.055                    22111011.859
 109305779.759 8  85173403.505 8  20800197.555                    20800205.145
 118356126.466 7  92225550.444 7  22522406.367                    22522417.250
 114746300.697 8  89412794.684 7  21835464.578                    21835471.320
 113482417.554 7  88427941.93245  21594981.609                    21594989.496
 120356400.009 7  93784268.73344  22903058.891                    22903067.398
 125555855.466 6  97835792.76443  23892487.961                    23892495.441
 119650142.514 7  93234022.58545  22768636.945                    22768643.398
 11  8 24  3  8 30.0000000  0 10G21G12G15G29G25G05G26G30G18G02
 127249312.684 7  99155364.34443  24214743.594                    24214750.855
 124052768.937 6  96664568.180 6  23606457.305                    23606465.469
 116110608.185 7  90475820.309 7  22095101.828                    22095109.750
 109253667.839 8  85132796.839 8  20790281.180                    20790288.602
 118420569.769 7  92275765.994 7  22534669.398                    22534679.680
 114823428.268 8  89472894.096 7  21850141.422                    21850148.430
 113431484.152 7  88388253.60045  21585288.945                    21585297.012
 120427123.999 7  93839378.31744  22916517.219                    22916525.777
 125476116.611 7  97773658.66343  23877313.563                    23877321.523
 119700112.442 7  93272960.16345  22778146.398                    22778151.941
 11  8 24  3  9  0.0000000  0 10G21G12G15G29G25G05G26G30G18G02
 127191981.669 7  99110690.87643  24203834.156                    24203841.168
 124146203.268 7  96737374.111 6  23624237.250                    23624245.461
 116027324.417 7  90410923.923 7  22079253.789                    22079261.301
 109201934.986 8  85092485.545 7  20780436.969                    20780444.000
 118485321.392 7  92326221.781 7  22546991.367                    22547001.680
 114900756.444 8  89533149.811 7  21864856.523                    21864863.398
 113381098.307 8  88348991.92945  21575700.938                    21575709.230
 120498101.275 7  93894685.26744  22930023.688                    22930032.766
 125396598.210 6  97711696.35243  23862182.133                    23862190.055
 119750198.182 7  93311987.99845  22787676.891                    22787682.836
 11  8 24  3  9 30.0000000  0 10G21G12G15G29G25G05G26G30G18G02
 127134611.081 7  99065986.60343  24192917.172                    24192923.746
 124239663.094 7  96810199.903 6  23642022.086                    23642029.953
 115944325.286 7  90346249.321 7  22063459.102                    22063467.047
 109150582.977 8  85052471.023 7  20770664.820                    20770672.258
 118550378.349 7  92376915.492 7  22559371.672                    22559381.605
 114978282.621 8  89593559.830 7  21879609.469                    21879616.191
 113331263.096 7  88310159.34145  21566217.977                    21566225.504
 120569328.575 7  93950187.02144  22943577.617                    22943586.680
 125317300.929 6  97649906.33143  23847092.305                    23847100.672
 119800400.007 7  93351106.27845  22797229.945                    22797236.449
 11  8 24  3 10  0.0000000  0 10G21G12G15G29G25G05G26G30G18G02
 127077200.374 6  99021251.01043  24181991.523                    24181998.980
 124333145.439 7  96883043.245 6  23659811.188                    23659819.469
 115861613.391 7  90281798.542 7  22047719.484                    22047727.293
 109099614.066 8  85012755.009 8  20760965.773                    20760972.574
 118615737.477 7  92427844.656 7  22571808.945                    22571819.070
 115056004.409 8  89654122.272 7  21894399.164                    21894406.219
 113281980.959 7  88271757.70445  21556839.477                    21556847.352
 120640802.514 7  94005880.98644  22957178.734                    22957187.773
 125238225.917 7  97588289.49443  23832044.070                    23832053.461
 119850718.324 7  93390315.33944  22806805.078                    22806811.594
 11  8 24  3 10 30.0000000  0 10G21G12G15G29G25G05G26G30G18G02
 127019749.254 7  98976483.97543  24171058.695                    24171066.367
 124426647.336 7  96955901.830 6  23677604.250                    23677612.820
 115779192.464 7  90217574.488 7  22032035.719                    22032043.016
 109049030.731 8  84973339.445 8  20751339.961                    20751346.660
 118681396.009 7  92479007.130 7  22584303.336                    22584313.563
 115133919.807 8  89714835.577 7  21909225.852                    21909232.625
 113233254.952 8  88233789.42745  21547567.281                    21547575.270
 120712520.199 7  94061764.87144  22970826.430                    22970835.180
 125159374.141 6  97526846.63743  23817039.102                    23817047.711
 119901153.872 7  93429615.75444  22816402.617                    22816409.137
 11  8 24  3 11  0.0000000  0 10G21G12G15G29G25G05G26G30G18G02
 126962257.555 6  98931685.30143  24160117.891                    24160125.703
 124520165.987 7  97028773.465 6  23695400.328                    23695408.934
 115697065.393 7  90153579.413 7  22016407.195                    22016415.070
 108998835.670 8  84934226.431 8  20741787.961                    20741795.387
 118747351.140 7  92530400.725 7  22596854.188                    22596864.539
 115212026.628 8  89775698.035 7  21924089.250                    21924096.355
 113185087.755 8  88196256.58445  21538401.133                    21538409.504
 120784478.535 7  94117836.27644  22984519.750                    22984528.426
 125080746.608 6  97465578.46743  23802077.250                    23802085.453
 119951707.377 7  93469008.07944  22826023.711                    22826029.309
 11  8 24  3 11 30.0000000  0 10G21G12G15G29G25G05G26G30G18G02
 126904724.814 6  98886854.66143  24149170.211                    24149177.613
 124613698.110 6  97101655.568 6  23713198.891                    23713207.805
 115615234.629 7  90089815.236 7  22000834.984                    22000843.109
 108949030.317 8  84895417.086 7  20732310.164                    20732317.250
 118813599.295 7  92582022.640 7  22609460.797                    22609470.824
 115290321.856 8  89836707.300 7  21938988.203                    21938995.332
 113137481.941 7  88159161.19045  21529342.406                    21529349.707
 120856673.875 7  94174092.35244  22998258.133                    22998266.879
 125002343.513 6  97404485.17543  23787158.070                    23787165.992
 120002378.942 7  93508492.39944  22835665.273                    22835671.574
 11  8 24  3 12  0.0000000  0 10G21G12G15G29G25G05G26G30G18G02
 126847150.963 6  98841991.98143  24138214.219                    24138221.914
 124707240.952 6  97174546.025 6  23730998.695                    23731007.965
 115533703.534 7  90026284.565 7  21985320.383                    21985327.977
 108899616.975 8  84856913.198 7  20722907.508                    20722914.422
 118880137.707 7  92633870.718 7  22622122.539                    22622133.137
 115368803.173 8  89897861.581 7  21953922.922                    21953930.262
 113090440.066 8  88122505.22845  21520390.352                    21520398.207
 120929103.104 7  94230530.67744  23012040.930                    23012050.180
 124924165.831 6  97343567.55643  23772280.703                    23772289.047
 120053169.093 7  93548069.10144  22845330.945                    22845336.340
 11  8 24  3 12 30.0000000  0 10G21G12G15G29G25G05G26G30G18G02
 126789535.894 6  98797097.20543  24127250.945                    24127258.348
 124800792.078 6  97247442.921 6  23748801.516                    23748810.168
 115452475.361 7  89962989.928 7  21969862.984                    21969870.805
 108850598.642 8  84818717.112 8  20713579.633                    20713586.402
 118946963.763 7  92685942.945 7  22634839.469                    22634849.453
 115447468.967 8  89959159.608 7  21968892.516                    21968899.582
 113043965.541 8  88086291.35245  21511546.523                    21511554.078
 121001763.527 7  94287149.15045  23025867.945                    23025876.324
 124846214.827 6  97282826.60843  23757446.711                    23757455.059
 120104078.569 7  93587738.81744  22855018.039                    22855024.145
 11  8 24  3 13  0.0000000  0 10G21G12G15G29G25G05G26G30G18G02
 126731878.883 7  98752169.70143  24116278.578                    24116286.043
 124894348.313 6  97320343.793 6  23766604.859                    23766613.680
 115371553.051 7  89899933.641 7  21954463.969                    21954471.711
 108801977.066 8  84780830.183 7  20704327.133                    20704334.043
 119014074.114 7  92738236.709 7  22647609.672                    22647620.523
 115526316.698 7  90020599.395 7  21983896.242                    21983903.551
 112998060.531 8  88050521.25745  21502811.148                    21502819.289
 121074651.562 7  94343944.99744  23039738.039                    23039746.988
 124768491.031 6  97222262.71743  23742656.141                    23742664.371
 120155107.787 7  93627501.81244  22864728.438                    22864734.734
 11  8 24  3 13 30.0000000  0 10G21G12G15G29G25G05G26G30G18G02
 126674179.657 6  98707209.31043  24105298.891                    24105306.113
 124987906.960 6  97393246.553 6  23784408.586                    23784416.910
 115290939.600 7  89837118.006 7  21939124.023                    21939131.348
 108753754.513 8  84743254.177 8  20695150.742                    20695157.902
 119081465.692 7  92790749.604 7  22660434.188                    22660444.359
 115605343.888 8  90082179.022 7  21998934.938                    21998942.016
 112952727.322 7  88015196.71945  21494184.680                    21494192.500
 121147763.961 7  94400915.69644  23053651.125                    23053659.637
 124690995.278 7  97161876.49144  23727909.070                    23727918.176
 120206257.197 7  93667358.46444  22874462.484                    22874468.500
 11  8 24  3 14  0.0000000  0 10G21G12G15G29G25G05G26G30G18G02
 126616438.276 6  98662216.05143  24094310.430                    24094318.000
 125081464.859 7  97466148.748 6  23802211.711                    23802220.410
 115210638.260 7  89774545.585 7  21923843.297                    21923850.742
 108705933.406 8  84705990.991 7  20686050.484                    20686057.258
 119149135.699 7  92843479.442 7  22673311.078                    22673321.547
 115684548.284 7  90143896.711 7  22014007.117                    22014014.051
 112907969.170 7  87980320.28445  21485667.266                    21485674.805
 121221097.774 7  94458058.90444  23067605.906                    23067614.383
 124613728.728 7  97101668.88043  23713206.461                    23713215.031
 120257527.582 7  93707309.38644  22884218.469                    22884224.309
 11  8 24  3 14 30.0000000  0 10G21G12G15G29G25G05G26G30G18G02
 126558654.410 6  98617189.69843  24083314.555                    24083322.254
 125175018.897 7  97539047.941 6  23820014.781                    23820023.801
 115130651.630 7  89712218.389 7  21908622.289                    21908629.566
 108658515.432 8  84669041.924 7  20677027.242                    20677034.258
 119217080.686 7  92896423.566 7  22686240.836                    22686251.426
 115763927.141 7  90205750.365 7  22029112.484                    22029119.578
 112863788.124 8  87945893.54945  21477259.703                    21477267.598
 121294649.380 7  94515371.82944  23081602.531                    23081611.180
 124536691.766 7  97041640.14344  23698546.539                    23698554.777
 120308919.033 7  93747354.66244  22893998.273                    22894003.855
 11  8 24  3 15  0.0000000  0 10G21G12G15G29G25G05G26G30G18G02
 126500827.533 6  98572129.84444  24072311.094                    24072318.789
 125268566.220 7  97611941.915 6  23837816.523                    23837824.957
 115050982.543 7  89650138.627 7  21893461.414                    21893469.086
 108611503.070 8  84632408.921 8  20668081.305                    20668087.449
 119285297.730 7  92949579.677 7  22699222.320                    22699232.695
 115843478.599 7  90267738.506 7  22044250.711                    22044257.566
 112820186.779 7  87911918.51645  21468963.000                    21468970.473
 121368415.683 7  94572852.03844  23095639.727                    23095648.301
 124459885.520 7  96981791.16843  23683931.211                    23683939.074
 120360432.227 7  93787494.79744  22903801.086                    22903806.863
